GFSSE_sfc_thetae_000.txt.gz
Theta_e
322 330 348 348 349 350 349 349 349 349 348 348 348 349 348 348 348 348 347 346 346 348 348 347 347 348 347 347 347 346 346 344 343 343 343 343 346 351 351 351 350 347 351
324 332 347 348 348 349 350 350 349 349 348 348 349 348 344 344 347 347 346 346 348 347 348 347 345 345 344 343 343 342 342 339 338 339 340 338 340 349 351 351 351 348 351
328 333 340 347 349 350 351 350 350 349 349 347 348 346 345 344 343 341 342 344 346 346 344 342 339 338 337 336 337 337 336 333 332 329 332 331 333 346 349 350 350 348 348
329 331 334 344 348 349 350 350 350 350 348 347 345 343 341 342 341 340 338 339 340 342 340 336 333 330 329 329 329 328 326 325 320 317 314 318 322 339 347 348 347 345 344
326 329 331 342 345 346 348 348 348 349 347 344 341 340 339 338 336 335 335 336 337 336 332 330 328 326 325 325 323 322 322 319 315 309 306 309 312 329 342 346 345 344 344
323 326 333 341 342 343 344 345 344 345 341 339 337 338 337 335 333 331 329 331 331 329 327 325 323 323 322 322 322 321 317 315 310 303 306 313 317 335 344 345 345 346 344
319 322 328 339 340 340 340 342 342 341 340 338 337 336 335 331 328 326 325 326 325 324 323 322 322 322 322 320 318 318 315 312 301 301 304 309 318 335 339 340 341 343 344
318 320 324 333 337 338 339 341 340 339 339 337 335 333 329 326 325 324 323 323 322 322 321 321 320 319 318 317 316 314 312 308 300 299 301 306 323 331 333 333 334 335 337
316 318 320 324 328 332 335 336 337 338 336 334 332 329 325 324 323 321 321 322 321 321 320 317 317 316 316 314 313 311 309 306 295 298 302 305 321 327 329 329 329 330 331
313 315 316 317 319 320 322 329 331 332 332 330 328 326 324 322 322 321 321 321 321 320 317 315 314 313 312 311 309 307 305 302 294 296 298 306 317 322 324 325 326 326 327
311 312 312 313 314 314 314 318 324 327 326 325 323 320 312 304 305 306 311 320 318 317 315 313 310 309 307 307 306 303 299 292 292 294 296 309 314 318 320 321 322 323 324
309 311 311 310 310 309 312 312 312 314 313 310 308 304 300 298 299 303 309 316 316 315 312 310 307 303 296 291 291 295 290 291 291 292 295 306 310 314 317 318 320 321 322
312 312 310 309 307 306 307 307 306 306 305 303 301 298 295 294 298 298 297 295 295 298 293 294 291 290 290 290 289 288 289 289 289 290 295 304 308 312 314 316 318 320 321
307 310 310 308 306 304 303 305 303 303 300 299 297 295 291 292 293 293 290 289 288 288 288 288 288 288 288 289 288 287 287 288 288 289 291 301 306 310 314 316 318 319 319
304 308 308 307 307 305 302 302 301 300 300 297 294 294 291 292 290 290 288 287 287 287 287 286 287 287 287 287 287 287 287 287 288 289 289 299 304 308 312 314 315 316 318
301 305 307 306 307 305 303 302 303 300 297 294 292 293 291 291 290 289 288 287 286 286 286 286 286 285 285 286 286 286 287 287 287 288 289 290 301 305 309 311 312 313 315
298 298 303 305 305 304 303 301 301 299 295 294 293 291 291 291 289 289 288 286 285 285 286 285 285 284 284 285 284 285 286 287 287 288 289 289 290 299 305 310 311 312 312
298 295 297 303 303 303 303 300 299 296 295 294 292 291 291 290 289 288 287 285 285 285 284 284 283 283 283 283 283 284 284 286 287 288 287 288 289 290 296 303 304 309 310
297 297 294 297 300 301 301 298 296 294 294 293 291 291 290 290 289 288 287 285 285 284 283 283 282 282 282 282 283 283 284 285 286 287 285 287 287 288 288 294 296 298 302
296 297 295 294 297 298 298 294 290 290 291 289 290 290 289 290 288 287 286 285 284 283 283 282 282 282 282 281 283 283 283 284 284 284 284 286 286 287 286 286 287 289 298
292 293 293 291 294 295 294 291 290 291 290 290 290 290 289 289 288 287 286 284 284 283 282 282 282 281 281 281 281 282 282 284 284 284 284 283 284 285 285 285 286 287 288
293 292 292 291 292 294 294 294 291 293 290 291 289 287 288 287 287 287 286 284 284 282 282 281 282 281 281 280 280 279 279 280 282 284 283 284 282 283 284 285 285 286 287
290 290 292 291 291 293 293 291 285 284 284 284 284 286 285 287 286 286 285 285 283 283 282 281 281 281 280 280 280 281 278 278 278 281 282 282 281 282 282 283 284 285 285
292 291 291 290 290 292 292 290 289 289 288 289 290 289 287 286 286 285 285 284 283 282 281 281 281 280 281 279 280 281 279 279 277 277 279 280 281 281 281 282 282 283 285
291 289 289 289 289 291 291 291 290 290 290 285 286 287 286 284 285 284 284 283 282 282 281 281 280 280 280 280 280 279 278 278 278 277 276 278 279 279 281 281 281 282 284
288 287 287 287 288 289 290 290 290 290 284 285 283 285 284 283 283 283 283 283 283 282 281 281 280 280 280 279 279 279 279 277 277 277 276 276 276 278 279 280 281 282 284

GFSSE_sfc_thetae_003.txt.gz
Theta_e
329 337 349 351 350 350 350 349 350 350 349 348 349 350 350 349 349 347 347 347 348 350 349 349 350 349 348 348 347 345 342 340 340 342 342 344 350 353 352 351 350 350 352
330 337 347 350 350 351 351 351 351 349 348 348 349 348 346 349 349 348 348 348 349 349 349 348 347 346 343 343 342 341 339 337 334 335 337 338 343 352 351 351 350 349 350
329 338 347 348 350 351 352 351 351 349 348 349 349 347 347 346 346 345 346 347 348 348 346 344 341 339 338 337 337 334 332 329 325 323 324 329 338 347 350 349 349 345 345
332 340 345 346 349 351 352 351 350 349 350 349 349 348 347 345 344 342 339 341 345 344 342 338 334 333 331 331 330 328 327 322 319 317 317 321 324 339 346 348 346 344 344
334 339 341 346 349 350 351 351 350 351 351 349 347 345 342 340 339 337 336 338 339 340 336 333 330 328 328 326 326 324 321 318 316 315 318 326 329 340 345 347 346 344 345
332 335 339 345 347 348 350 350 349 350 350 346 343 341 339 338 335 334 333 337 336 334 331 328 326 325 325 324 322 319 317 315 312 314 318 324 332 338 346 346 346 346 344
330 333 338 342 345 346 347 349 347 347 344 342 339 338 339 336 333 331 330 332 330 328 326 325 325 325 322 321 320 317 314 312 308 311 315 321 333 339 340 341 341 342 343
328 329 334 336 339 341 341 345 345 345 344 342 338 336 336 333 330 328 328 327 326 325 324 324 322 321 320 318 316 315 311 307 305 308 313 319 329 334 335 335 336 336 337
326 326 330 334 335 334 337 339 341 343 342 340 338 335 333 329 327 326 325 325 325 324 323 321 320 319 318 316 313 311 308 305 303 307 310 317 324 329 330 330 331 331 332
322 324 326 329 331 333 335 332 334 337 338 337 335 332 327 327 326 326 325 325 324 324 320 319 318 317 315 312 310 307 303 302 300 303 309 314 320 322 325 326 327 328 328
317 320 322 325 326 327 328 329 330 331 331 330 328 324 321 318 319 318 318 325 323 321 318 316 315 312 310 308 306 303 299 298 298 300 306 311 316 320 322 322 323 324 325
317 318 319 321 322 321 321 325 327 326 327 323 320 316 312 311 311 311 315 320 322 319 315 313 309 304 298 297 297 297 296 296 297 298 303 308 313 315 318 320 322 322 323
318 319 317 318 319 318 318 318 320 320 319 316 314 309 307 306 308 309 310 308 308 307 306 303 298 296 297 296 295 295 295 295 296 297 301 307 311 314 317 319 321 322 322
314 317 318 316 315 315 315 315 316 316 313 311 309 306 303 302 304 304 304 302 302 299 297 296 296 295 295 294 294 294 294 295 295 297 299 304 309 313 316 318 319 320 321
312 314 315 315 315 314 311 313 312 313 311 310 306 302 301 300 301 301 299 297 296 294 294 294 294 294 294 293 293 293 293 294 294 296 298 305 308 313 316 317 317 319 321
310 312 314 313 315 313 312 311 311 311 310 306 304 302 298 299 299 299 295 293 293 293 293 293 293 293 293 292 291 292 292 293 294 295 296 301 306 310 313 314 315 316 316
304 309 312 312 313 312 312 310 310 309 305 305 303 300 298 297 297 296 294 292 292 292 292 291 291 291 291 291 291 291 292 293 294 294 295 296 302 308 310 312 313 315 316
301 302 307 311 310 311 311 310 309 307 305 305 302 300 297 296 296 295 293 292 291 291 291 291 290 289 290 291 290 290 291 293 293 292 293 294 294 294 298 302 308 311 310
300 300 300 307 309 309 310 310 309 305 305 304 300 298 296 295 295 294 293 292 290 290 290 289 288 289 289 289 289 290 291 292 291 291 291 292 292 292 292 297 300 303 304
299 300 300 300 306 307 308 308 305 301 303 301 299 297 295 295 294 294 293 291 290 289 288 288 288 288 289 289 287 288 290 290 290 291 290 290 291 291 291 292 293 295 300
296 296 297 295 300 304 304 301 298 298 300 297 298 297 295 295 293 293 292 290 289 289 289 288 288 288 287 287 288 288 289 289 289 290 290 289 289 289 290 290 291 292 294
296 295 295 294 296 300 302 302 300 300 299 298 296 295 295 294 293 292 291 290 289 288 287 287 287 286 286 286 289 288 286 288 289 289 289 288 287 289 288 289 289 290 291
295 294 294 294 294 298 299 298 290 291 289 291 290 291 292 292 292 292 291 290 289 289 287 287 287 288 286 285 285 290 285 288 286 287 287 288 287 287 288 288 288 289 290
294 294 293 293 292 295 296 295 295 294 292 292 294 293 291 291 291 292 290 289 289 288 287 286 287 287 287 286 285 285 285 287 287 284 285 286 287 286 286 287 287 288 290
291 291 292 292 291 294 294 295 294 294 294 291 293 292 290 289 290 289 289 288 288 287 287 286 285 285 287 287 286 284 284 284 284 285 285 284 285 285 286 286 287 289 291
290 289 290 290 289 291 292 293 293 293 291 290 290 290 289 288 288 288 288 288 288 287 286 286 286 286 286 286 286 285 285 284 283 283 283 283 283 284 285 286 287 289 288

GFSSE_sfc_thetae_006.txt.gz
Theta_e
334 339 349 353 352 351 351 351 350 350 349 350 349 349 348 348 348 348 347 348 348 350 350 350 349 348 347 346 345 342 340 339 339 341 343 348 352 351 351 350 351 350 351
334 341 348 352 352 351 351 351 352 349 349 349 350 349 348 349 349 348 348 349 349 349 349 347 346 344 343 342 341 338 336 333 332 332 335 344 349 349 348 348 348 346 348
333 343 349 350 352 351 351 352 351 349 349 349 350 347 346 348 347 346 347 348 349 347 346 344 342 340 338 337 335 332 331 327 324 322 326 339 346 349 348 347 347 344 345
333 342 347 347 351 352 352 351 351 348 348 349 350 348 347 346 344 341 341 346 346 344 342 339 336 333 333 330 329 328 324 322 320 321 330 333 335 344 347 346 343 342 343
333 340 344 346 350 351 352 352 351 349 349 350 350 348 347 342 341 337 337 338 341 341 338 334 331 330 328 327 325 322 319 317 317 324 328 333 339 344 346 347 345 342 344
335 339 342 346 349 350 351 351 350 349 349 350 349 344 341 340 338 335 335 338 338 336 334 330 327 327 325 323 320 318 316 314 316 318 324 331 338 342 346 344 346 344 344
336 340 343 345 348 349 350 350 350 350 351 349 344 342 341 339 336 334 334 335 334 332 328 327 327 324 322 321 318 315 313 312 314 316 321 330 337 338 340 340 340 340 340
336 340 342 339 342 345 347 349 349 349 348 345 343 338 340 337 334 332 332 332 330 327 326 326 324 321 320 318 316 313 309 307 311 314 320 326 331 334 334 335 335 335 335
336 339 341 342 341 336 339 341 344 345 344 343 341 339 337 336 332 329 329 328 327 325 325 323 321 320 318 315 313 310 307 306 308 312 313 321 324 328 329 329 330 330 331
334 337 338 340 341 341 340 333 336 340 340 340 338 334 332 331 330 328 327 327 325 325 322 320 320 318 315 312 309 305 303 303 305 308 312 316 321 323 325 325 326 327 328
329 333 336 337 338 338 338 335 331 333 335 334 333 328 325 329 326 324 324 327 325 323 321 319 317 314 311 308 305 302 302 303 303 305 309 311 316 320 321 321 323 323 324
326 328 332 333 334 335 334 337 338 338 339 338 336 332 330 326 324 322 320 323 325 322 318 316 313 307 302 304 302 300 302 302 302 303 307 309 313 315 318 319 320 322 323
324 327 328 330 332 332 332 333 335 336 335 336 334 330 326 322 320 319 321 321 321 316 315 311 306 303 303 303 302 302 301 302 303 303 304 308 313 314 317 319 321 322 321
319 323 327 327 328 330 331 331 332 333 332 331 329 325 322 320 318 317 318 319 318 315 312 306 303 303 302 300 300 300 300 301 302 302 303 306 310 314 316 319 320 321 322
316 319 323 326 326 327 327 328 328 329 329 328 325 321 320 318 315 314 316 315 314 310 306 302 302 301 300 299 299 299 299 300 300 302 305 306 310 314 316 317 319 321 322
313 317 320 323 325 325 325 325 325 326 327 326 322 319 317 316 313 312 312 311 309 305 302 301 301 300 300 299 297 298 298 299 300 301 303 307 308 312 313 314 316 317 319
311 314 317 320 323 323 323 324 324 324 323 323 320 318 315 313 310 309 309 307 304 301 301 300 299 299 298 297 297 297 298 299 299 299 301 304 309 308 312 313 314 318 317
310 310 313 317 319 321 322 323 322 322 320 320 319 317 313 310 308 306 306 304 301 299 299 298 297 297 297 297 296 297 298 298 297 298 299 300 302 301 303 308 311 312 312
309 309 309 313 316 318 321 321 321 320 319 318 317 315 312 308 306 304 304 302 299 298 298 297 297 297 296 296 295 297 297 298 296 296 297 297 296 297 299 301 303 304 305
309 309 309 309 313 316 317 319 319 318 317 317 316 314 311 307 304 303 302 301 298 297 297 296 296 296 297 296 292 294 296 296 296 296 295 295 295 295 296 297 299 301 304
307 306 306 306 308 313 313 313 314 314 314 314 314 312 310 307 304 302 301 300 297 297 297 296 296 294 294 295 295 294 294 294 295 295 295 294 293 293 294 295 297 298 302
302 303 303 304 304 309 311 312 313 312 312 312 312 310 309 307 303 301 301 299 297 297 296 295 294 293 294 294 296 295 292 291 293 293 294 292 292 293 292 293 294 295 298
298 299 300 302 302 304 308 309 309 304 305 307 307 307 305 305 303 302 300 299 298 297 296 296 296 295 293 293 295 297 292 294 292 293 292 292 291 292 292 292 293 293 296
296 297 298 299 299 300 304 304 304 302 300 302 302 303 303 303 302 300 300 299 298 297 296 296 295 296 298 293 292 291 293 296 293 289 291 291 291 290 291 291 292 292 296
297 297 296 297 297 298 299 301 301 301 302 302 300 301 301 301 300 300 299 298 297 296 297 296 294 295 296 297 295 291 291 291 292 294 289 288 289 290 290 291 292 293 295
296 295 295 295 294 295 297 298 298 298 299 299 297 298 299 298 297 298 298 298 297 296 295 295 295 295 295 295 296 294 293 291 291 291 291 290 289 288 289 290 291 293 293

GFSSE_sfc_thetae_012.txt.gz
Theta_e
331 342 349 353 352 351 352 352 353 352 351 348 347 347 347 347 346 346 347 347 351 351 350 349 349 347 346 344 341 339 338 338 339 342 351 352 351 350 348 350 349 349 351
334 342 348 352 353 353 353 353 352 352 351 349 349 348 347 347 347 347 347 348 350 350 349 346 345 343 342 340 336 335 334 332 332 332 337 350 349 347 345 347 348 346 350
333 342 347 351 353 352 353 352 351 351 350 349 349 349 349 350 349 348 348 350 349 348 347 344 343 342 339 334 333 331 330 329 328 330 334 336 345 348 345 346 347 345 346
332 343 344 349 352 352 352 351 351 351 351 350 350 349 349 348 348 348 348 348 347 345 343 342 340 337 333 331 328 326 324 323 323 328 327 333 340 348 346 343 343 343 344
329 342 344 348 352 352 352 351 351 351 351 351 350 348 349 347 343 342 341 343 344 342 340 337 336 333 331 326 323 321 319 318 323 322 326 328 333 347 347 346 341 342 344
328 338 343 348 351 352 352 352 351 350 349 350 351 349 348 345 343 338 335 339 342 340 336 333 332 329 326 322 320 318 317 318 325 313 320 333 337 343 344 345 344 344 343
326 333 344 347 349 351 351 352 352 351 350 350 351 350 347 346 340 335 334 336 337 337 333 330 329 326 323 320 317 314 314 317 310 312 320 326 330 340 341 341 341 340 340
327 332 342 341 344 347 349 350 350 350 350 350 351 349 347 344 340 336 334 335 335 334 331 330 325 323 321 318 314 312 312 315 310 311 321 321 331 332 333 334 335 336 336
328 332 334 340 340 338 342 344 347 348 348 349 348 346 344 341 339 336 334 334 334 331 329 328 323 321 320 316 312 309 309 315 305 307 317 315 326 328 328 329 330 332 332
326 331 332 336 339 340 340 336 339 342 344 345 342 338 335 335 334 333 331 334 332 329 328 325 322 320 317 313 308 305 306 310 301 304 310 312 322 324 325 325 326 327 328
324 329 331 332 335 337 339 337 333 336 337 337 334 330 327 328 327 326 326 330 331 328 326 323 321 319 315 310 305 304 307 298 299 301 305 314 317 320 321 322 323 324 325
319 323 329 330 332 334 337 334 338 338 338 336 334 329 328 327 325 325 321 325 328 327 326 323 320 316 311 300 298 305 298 298 297 298 303 313 316 316 318 319 321 322 324
315 321 325 328 330 331 332 330 334 336 333 336 335 332 330 329 322 318 316 318 317 318 314 315 310 304 300 298 297 297 297 296 296 298 304 310 315 316 317 319 322 322 322
308 313 322 326 328 329 330 329 329 330 330 331 334 332 330 328 318 315 315 315 314 312 309 307 302 299 298 298 298 296 296 295 295 297 302 310 314 315 317 320 320 322 323
306 308 313 322 325 327 327 327 327 327 329 330 329 331 331 325 316 314 313 314 314 311 308 304 299 299 297 296 297 296 296 295 296 297 300 310 314 317 317 318 320 322 322
307 308 310 315 323 324 325 325 326 325 326 328 328 328 328 322 315 312 311 312 313 311 306 301 298 297 296 296 295 296 295 295 296 297 301 304 313 316 316 316 318 320 321
305 308 309 311 318 321 321 324 324 324 325 325 328 325 323 319 315 312 309 310 310 307 303 298 297 297 295 296 294 294 295 295 295 296 298 302 305 311 314 317 317 319 320
302 304 305 309 311 318 320 320 323 322 322 322 323 322 321 318 315 310 308 308 308 303 298 296 295 294 293 293 292 292 293 295 294 295 296 298 298 302 306 311 314 317 317
300 301 302 304 307 312 318 319 319 320 320 320 320 319 318 317 314 309 306 306 304 299 296 296 294 293 292 291 292 291 292 292 293 295 294 294 292 295 299 304 306 307 307
297 299 300 303 304 309 313 315 316 317 317 317 317 317 316 314 313 307 304 304 301 296 295 294 293 293 292 292 293 293 292 292 291 291 292 293 292 293 294 295 295 299 308
296 296 298 299 301 303 308 309 310 311 313 315 316 315 316 312 310 306 302 301 297 296 295 294 292 292 291 290 290 289 289 290 290 290 290 290 291 291 291 293 293 296 299
295 294 295 296 298 301 305 306 307 305 307 308 314 313 313 312 309 305 301 299 296 294 293 293 292 291 291 291 289 287 284 286 289 290 290 290 289 289 290 291 291 293 296
293 294 294 295 295 297 299 303 304 303 301 301 302 306 310 310 308 304 301 298 296 294 294 293 292 291 288 289 292 290 286 285 285 287 288 288 288 287 288 289 291 292 295
292 293 294 295 295 295 296 296 295 296 296 299 299 299 300 305 305 305 301 299 296 294 293 293 294 293 289 288 288 292 290 289 285 282 286 287 287 287 287 288 288 290 294
292 292 292 293 294 294 294 293 292 292 293 294 295 295 296 299 301 301 300 298 296 294 292 292 291 291 292 288 290 287 287 287 288 285 281 283 286 286 287 287 288 288 293
291 290 290 291 292 292 293 292 291 290 290 290 291 291 293 294 296 298 298 296 296 294 293 292 291 291 290 290 290 288 287 286 285 285 284 282 282 284 285 287 287 288 290

GFSSE_sfc_thetae_015.txt.gz
Theta_e
333 341 350 353 352 352 354 354 354 352 350 348 348 348 348 347 348 348 348 350 352 351 349 350 348 347 345 341 340 338 337 338 340 343 353 352 350 349 350 350 350 348 352
335 343 349 352 353 354 354 354 353 352 351 348 347 348 347 346 345 346 347 350 351 350 348 345 345 344 342 337 336 335 335 334 333 335 340 349 349 346 346 348 348 347 350
339 343 347 351 353 353 353 353 352 352 351 349 349 348 348 348 348 347 347 349 350 348 346 344 344 342 337 335 332 331 331 329 329 332 333 334 343 346 343 346 347 345 347
339 343 345 348 352 353 353 352 352 352 351 349 349 349 350 349 349 349 348 348 348 347 345 343 341 337 334 330 328 326 324 324 326 330 328 333 343 348 344 343 344 344 345
338 341 345 347 352 352 353 352 351 351 351 351 350 350 350 348 347 346 346 346 345 344 341 340 337 334 330 326 323 321 319 321 327 321 324 335 341 345 346 342 342 343 344
334 340 344 348 352 352 352 351 351 351 351 351 351 348 349 347 344 341 340 345 343 341 338 336 334 330 326 322 319 318 319 322 320 314 327 335 336 343 346 344 343 343 343
325 337 343 347 350 351 351 351 351 351 351 351 352 350 349 347 344 336 335 338 341 339 335 333 331 326 323 319 316 316 317 318 310 317 323 323 330 340 338 341 342 341 341
325 338 343 341 344 347 349 350 350 350 350 350 351 351 350 348 342 337 334 336 336 336 333 332 327 324 321 317 314 314 314 318 309 316 317 318 333 334 334 335 336 336 336
325 335 339 342 341 340 342 344 346 348 348 348 349 348 346 344 341 339 335 336 334 334 332 330 325 322 319 315 311 311 314 317 304 312 315 316 329 329 329 330 331 332 332
324 327 333 335 338 339 340 337 339 342 344 344 344 341 338 336 336 334 332 334 334 333 330 327 323 321 318 313 308 307 311 310 300 307 310 314 324 325 325 325 326 327 328
321 327 327 333 334 337 336 335 333 336 338 338 337 333 329 329 328 328 327 331 333 331 329 325 322 320 316 310 306 306 308 296 298 302 306 316 317 320 321 322 323 324 325
314 320 327 328 332 334 339 336 334 338 337 335 335 330 330 326 325 325 322 326 329 329 328 324 322 318 309 298 296 304 296 295 295 300 304 314 315 316 319 319 321 323 325
312 317 324 327 328 331 334 332 335 338 335 335 334 330 329 327 323 320 318 319 318 319 317 318 313 306 302 299 295 295 295 295 294 298 306 312 315 316 317 320 323 324 323
304 314 320 326 327 327 331 328 332 335 331 329 333 330 329 328 323 317 314 314 313 311 309 306 304 301 297 296 296 294 294 294 294 298 304 312 315 316 318 321 320 322 323
303 304 314 322 326 327 326 326 325 330 330 329 326 331 330 327 322 316 312 313 310 309 307 304 301 297 296 295 295 294 294 294 294 298 299 312 316 317 318 319 321 322 323
301 301 304 317 323 324 326 324 324 324 324 325 325 325 327 328 321 316 312 312 310 309 306 303 298 296 294 294 294 294 294 294 295 296 300 305 315 318 316 318 320 322 322
299 300 301 304 317 320 322 323 322 323 323 323 323 323 322 322 319 316 311 311 311 308 304 299 296 295 293 294 292 293 293 294 294 295 299 302 305 313 316 317 317 319 322
297 298 300 303 306 318 318 320 322 321 321 321 322 324 321 320 318 313 310 308 308 305 301 297 295 293 292 291 290 291 292 293 293 294 295 299 299 301 308 313 316 319 320
295 296 298 300 303 310 316 317 317 319 319 318 319 322 321 318 315 312 310 307 306 301 297 296 292 292 290 290 290 289 291 291 292 294 293 293 293 298 298 306 307 308 312
294 295 296 298 301 306 310 311 312 314 317 318 318 320 319 318 314 310 308 305 302 298 294 293 292 291 290 290 292 291 290 290 290 290 291 292 291 293 296 295 295 298 308
293 294 294 295 297 300 304 305 307 308 309 313 316 316 316 316 315 308 305 304 299 298 295 293 291 290 289 288 288 287 287 289 289 289 289 289 290 291 291 292 293 295 299
292 292 293 293 294 296 299 301 302 300 301 306 307 311 312 312 312 309 304 301 298 294 293 292 291 289 290 289 287 285 283 286 287 289 288 288 288 289 289 291 291 294 296
290 290 292 293 293 293 294 296 297 298 298 298 302 303 303 307 308 307 304 301 298 296 294 292 291 290 289 288 289 288 283 283 283 286 287 287 287 286 287 288 290 292 295
289 289 291 292 293 293 293 292 291 291 290 292 294 294 295 298 303 304 304 301 298 296 294 292 292 290 289 287 287 291 288 287 283 282 285 286 286 286 286 286 288 290 293
289 288 288 291 291 292 292 291 291 289 289 289 290 290 291 293 295 298 299 301 299 297 295 293 293 290 289 288 288 286 286 286 286 283 281 282 284 285 286 286 287 287 291
288 287 287 288 289 290 290 289 289 289 289 289 289 289 289 290 291 291 292 293 295 296 294 293 293 292 292 289 288 287 287 286 285 285 282 281 281 283 284 286 286 288 289

GFSSE_sfc_thetae_018.txt.gz
Theta_e
330 339 351 353 352 353 353 352 353 352 351 349 349 348 348 349 349 349 351 351 351 350 350 349 346 343 342 341 339 339 339 340 342 348 352 350 350 351 349 349 349 347 352
332 340 349 352 353 354 355 355 353 351 350 348 348 347 346 345 346 346 347 350 351 350 347 345 344 343 339 337 336 336 335 335 335 336 342 348 348 346 346 347 348 346 351
336 342 347 351 353 354 354 354 352 351 348 348 347 347 347 346 346 345 348 350 350 347 345 343 343 340 337 334 332 331 331 330 330 333 335 337 341 344 344 345 347 346 348
338 341 345 348 352 353 353 352 352 352 351 349 348 347 348 348 348 347 347 349 349 348 346 342 340 336 333 330 328 326 324 325 328 331 329 333 343 345 344 344 344 344 344
337 341 343 347 352 353 353 352 352 352 351 349 348 349 350 349 348 348 348 348 346 345 341 340 336 334 329 326 323 321 321 324 325 325 333 336 339 345 345 343 343 343 344
336 340 343 348 352 353 352 352 351 351 350 349 350 350 349 347 345 345 346 345 343 342 339 337 334 329 325 322 319 319 322 323 322 326 328 334 336 345 345 343 342 342 343
333 336 342 347 350 351 352 352 351 351 350 351 351 350 349 347 344 339 337 342 343 339 335 333 330 326 322 319 316 318 319 320 315 321 321 324 332 339 340 342 343 342 341
329 334 340 341 344 347 349 350 350 350 350 350 351 350 350 348 344 337 336 337 340 338 333 332 328 324 320 316 314 316 319 317 317 316 316 319 334 335 334 333 337 337 338
325 335 337 340 342 340 343 344 346 348 348 348 349 349 347 346 341 338 336 336 335 335 333 331 325 321 318 314 312 314 317 316 310 312 316 316 330 330 330 330 331 332 333
321 332 335 336 338 341 342 337 339 342 343 344 344 342 339 339 337 336 333 335 335 334 332 329 324 321 317 312 309 311 312 311 305 307 311 315 327 326 325 325 327 328 329
319 324 330 333 336 337 336 336 333 336 338 338 338 335 332 331 331 328 328 332 335 334 331 328 324 321 316 309 307 309 304 297 302 302 307 317 318 321 321 322 323 324 326
312 319 324 330 333 334 339 336 335 339 338 338 337 334 330 328 325 325 323 328 331 330 331 327 323 320 309 296 295 302 294 294 298 298 304 315 316 317 320 320 321 323 324
308 313 322 326 330 332 334 335 333 338 337 332 330 329 327 328 325 323 320 321 320 321 319 320 316 306 298 296 294 294 293 293 296 297 305 313 316 317 318 319 322 324 325
299 300 309 322 325 329 331 331 332 335 335 335 331 327 328 326 324 322 320 318 315 313 311 309 306 303 298 296 295 293 293 293 294 296 302 313 316 317 319 322 323 322 323
297 298 299 309 323 326 327 326 329 333 333 332 327 326 327 327 324 321 318 316 313 309 308 305 303 300 295 294 294 293 292 292 293 297 298 311 316 318 320 321 323 324 324
297 297 299 300 313 323 325 323 326 327 327 326 325 326 325 328 324 318 316 315 310 309 306 304 302 296 294 293 293 293 292 292 293 297 298 304 316 318 319 321 322 324 325
295 296 298 301 304 318 321 321 321 322 322 322 323 323 323 324 323 318 315 314 314 308 305 302 299 294 292 292 291 292 292 292 293 295 298 301 305 313 317 317 320 324 324
293 294 297 301 305 313 317 319 320 320 319 320 321 324 323 323 320 316 315 314 313 310 304 300 296 293 291 290 289 290 290 292 292 293 295 300 301 303 309 314 317 320 322
292 293 295 298 300 308 313 314 316 317 317 317 322 323 323 321 318 316 313 313 311 309 304 299 293 293 291 289 289 288 289 290 291 293 292 295 294 298 299 307 307 309 314
292 293 293 296 297 302 307 309 310 310 314 317 317 319 320 318 315 315 313 310 308 306 300 295 294 291 290 290 291 289 288 289 289 289 290 292 291 293 296 297 296 298 308
291 292 292 293 293 297 300 301 302 301 302 308 311 311 314 316 315 313 311 308 305 303 301 298 292 291 289 288 287 287 287 288 288 288 289 289 289 290 291 293 293 295 299
290 290 291 292 292 293 295 297 299 298 298 301 302 301 301 308 310 310 307 304 303 300 297 295 294 289 289 288 287 284 284 286 287 288 288 288 288 288 289 290 290 292 296
288 289 291 291 292 292 292 293 293 293 292 293 293 293 294 299 303 305 305 302 300 299 298 296 294 293 290 288 288 287 282 282 283 285 286 287 287 286 287 288 290 290 293
286 288 289 290 290 291 291 290 289 288 288 288 289 290 291 292 292 293 296 300 299 297 296 295 295 293 291 290 287 289 287 285 283 282 284 285 286 286 286 286 287 289 291
286 285 286 288 289 289 289 290 289 288 288 289 289 288 289 290 290 290 290 291 292 296 296 294 294 292 292 291 289 286 285 285 285 283 282 282 284 285 286 286 286 287 289
285 284 285 285 286 286 286 286 286 286 285 285 285 285 286 287 287 287 288 288 289 289 290 293 293 292 292 291 291 289 288 285 284 284 282 282 281 283 284 285 285 287 287

GFSSE_sfc_thetae_021.txt.gz
Theta_e
330 335 351 353 352 352 352 353 352 352 350 349 349 349 350 349 350 351 350 350 349 349 349 347 342 342 341 340 339 340 342 342 344 348 350 350 351 349 349 348 349 348 351
331 337 348 352 353 353 353 353 352 352 349 348 348 347 347 347 346 347 348 350 350 349 345 344 342 341 338 337 336 336 336 336 335 337 344 346 347 345 345 347 349 347 350
333 339 347 350 352 353 354 354 352 351 349 348 347 346 345 344 344 346 348 350 348 346 344 343 341 338 336 334 333 333 331 331 332 336 336 338 338 344 344 345 346 346 346
335 340 345 347 352 353 353 353 352 350 349 348 347 347 346 347 346 345 348 349 348 347 346 342 339 336 332 330 329 327 327 328 331 333 330 334 341 344 344 344 344 344 344
335 340 344 347 351 353 353 352 352 351 351 349 348 347 348 348 348 347 347 348 347 344 343 339 336 332 329 326 324 323 325 326 329 334 334 336 339 344 344 344 342 343 343
333 338 341 347 352 353 352 352 351 350 350 349 348 348 349 348 347 347 347 345 343 343 340 337 333 329 324 321 320 322 325 327 330 326 327 334 336 344 341 342 342 342 342
331 336 339 346 350 351 352 352 351 351 350 350 350 350 349 347 344 342 342 343 343 340 336 334 330 326 321 318 318 320 322 326 320 319 321 325 331 340 341 342 342 342 340
331 333 338 339 344 347 349 350 350 350 350 350 351 350 350 348 344 338 336 340 339 336 333 332 328 323 319 315 316 320 319 323 318 316 316 320 335 336 334 334 336 336 337
327 331 335 339 340 339 342 344 346 348 348 348 349 349 347 346 344 338 338 337 337 336 333 332 326 321 317 313 314 317 319 319 311 312 316 317 332 331 331 330 332 330 332
320 330 332 335 342 341 340 336 338 341 343 343 343 341 339 339 337 336 333 337 337 335 332 331 325 320 317 310 311 313 314 313 305 308 311 315 327 326 325 326 328 329 329
316 321 328 331 335 338 341 337 333 336 338 337 337 334 334 333 333 329 328 332 336 335 333 331 324 321 316 309 308 310 304 300 300 302 307 317 320 321 321 322 323 325 326
307 313 320 326 330 333 338 337 338 340 339 340 339 338 335 331 330 328 324 327 331 331 332 330 324 321 307 295 294 300 294 295 297 298 302 315 317 317 320 321 321 322 324
297 300 303 320 326 329 336 337 336 337 337 335 335 335 332 328 326 325 324 325 321 321 320 321 315 307 298 293 293 293 292 292 295 296 302 311 317 318 318 320 321 323 324
295 296 298 299 320 326 328 333 334 335 336 334 333 329 328 326 325 323 322 322 321 318 314 310 307 304 299 296 294 293 292 292 294 295 299 311 315 318 319 320 323 324 323
294 295 296 298 305 322 325 325 326 332 335 333 332 329 325 323 324 322 321 319 319 316 313 307 305 303 297 294 293 292 292 292 292 296 296 308 314 319 320 322 323 323 324
294 294 296 299 302 313 323 322 323 331 332 330 328 327 323 323 321 322 319 317 316 315 311 307 304 301 295 292 292 292 291 291 292 295 296 301 314 318 320 321 322 324 325
292 294 296 300 305 311 319 320 321 322 324 324 323 323 323 326 325 321 318 316 315 313 310 307 301 297 293 292 291 291 291 291 292 292 297 298 304 310 317 319 321 323 326
292 292 295 299 303 311 315 318 319 319 320 320 324 324 324 324 323 319 317 315 315 312 309 306 302 296 294 291 289 289 289 290 291 291 293 297 299 302 306 314 316 319 323
291 292 293 296 298 305 311 313 314 314 319 319 321 321 322 321 320 318 316 316 313 310 308 305 299 298 293 291 290 289 288 289 290 291 291 293 296 298 299 305 309 308 313
290 291 292 294 294 299 305 305 305 306 311 310 309 311 315 317 315 315 314 312 310 308 305 302 299 294 293 291 291 289 287 288 289 288 289 291 292 292 295 297 297 299 307
290 291 291 291 292 293 297 299 300 297 301 299 299 299 305 308 312 311 309 308 306 306 304 301 296 295 293 291 289 287 287 288 288 288 288 288 289 290 290 293 294 295 297
288 289 290 290 291 291 292 293 295 294 294 293 293 293 294 295 298 303 304 303 303 302 300 298 296 294 293 291 290 287 285 286 286 287 287 288 287 288 288 289 290 292 293
285 286 288 289 290 290 291 291 291 291 290 290 290 290 291 291 291 293 294 297 297 298 298 297 295 294 293 291 290 291 286 283 282 285 285 286 286 286 286 287 288 290 290
284 285 286 287 287 289 290 289 288 287 286 287 287 288 288 288 288 290 290 291 291 294 295 295 295 294 292 291 291 290 289 288 285 284 285 285 285 286 286 286 287 287 289
284 283 283 285 285 285 286 286 285 284 285 284 284 284 285 285 286 286 287 288 288 289 289 290 292 293 292 291 290 290 288 288 287 286 285 283 284 285 286 286 286 286 287
282 282 282 283 283 283 283 283 283 282 282 282 282 282 283 283 284 284 285 285 285 285 286 287 288 288 289 291 291 290 289 288 287 286 285 284 284 284 284 285 285 287 287

GFSSE_sfc_thetae_024.txt.gz
Theta_e
330 334 351 353 353 353 353 353 352 352 351 350 350 351 351 351 351 350 350 349 349 349 347 344 344 342 340 340 341 343 344 343 345 348 349 350 348 348 348 349 349 347 351
331 335 348 352 353 353 353 353 352 352 350 349 349 349 348 348 348 349 350 349 349 347 345 343 342 341 338 337 337 338 337 336 338 342 344 344 347 345 346 347 349 346 350
331 336 347 351 353 353 353 353 352 351 349 348 347 346 345 345 345 346 348 350 348 345 343 341 341 338 335 334 333 332 332 332 337 338 342 337 338 344 345 345 346 345 345
332 339 345 347 352 353 353 353 351 350 349 348 346 346 345 346 345 347 349 349 347 346 346 342 339 335 332 330 328 327 329 331 335 335 331 337 340 345 345 344 343 343 343
332 338 343 346 352 353 352 353 351 351 350 348 347 346 347 347 347 345 347 347 346 345 344 339 336 332 329 326 324 326 326 330 336 334 333 335 336 344 345 343 342 342 342
330 336 341 347 351 353 352 352 351 349 349 349 348 347 348 348 347 347 347 347 344 343 341 338 334 329 325 322 322 324 326 334 330 325 328 333 336 344 342 341 342 342 342
329 333 337 346 349 351 352 352 351 350 350 350 348 348 349 347 346 346 345 343 342 341 337 335 331 327 323 319 320 322 327 329 320 320 322 326 332 340 340 341 342 341 340
327 332 336 338 343 347 349 350 350 350 350 350 350 350 349 347 344 341 341 341 340 341 334 331 329 325 320 316 319 321 324 323 317 316 317 320 335 337 335 334 335 335 336
325 329 331 335 338 338 343 344 346 348 348 348 347 347 346 345 345 340 339 339 336 337 333 330 328 323 319 314 317 319 322 319 311 313 316 317 330 331 332 332 333 333 330
318 324 327 331 340 342 340 335 338 341 343 344 343 341 338 339 339 336 334 337 337 335 332 330 326 322 318 313 313 314 315 312 306 308 311 315 328 327 326 326 328 329 330
308 315 322 327 336 338 340 337 331 335 337 337 336 334 334 334 336 331 328 333 337 335 333 331 325 321 316 309 311 309 304 299 299 301 306 318 321 322 322 323 323 324 326
296 299 302 315 327 335 337 338 338 340 336 335 336 337 337 336 332 330 325 328 332 331 333 331 325 318 305 293 292 299 292 294 296 296 299 315 319 318 320 321 321 322 323
294 296 297 298 305 329 335 336 337 338 337 336 337 337 335 332 328 327 326 326 326 323 322 320 312 307 299 293 292 292 291 292 293 294 299 311 316 320 320 320 321 322 324
293 295 296 297 299 313 332 334 335 335 335 334 333 332 331 328 326 324 324 323 323 321 319 316 311 305 300 296 294 292 291 291 292 294 296 307 313 318 321 321 322 324 324
292 293 295 297 300 303 321 330 330 331 333 334 333 331 329 327 325 324 323 322 321 318 317 314 309 305 301 295 293 292 291 290 290 293 294 303 313 318 322 322 323 323 324
293 293 295 298 302 306 316 324 326 330 331 331 330 329 328 326 321 321 320 316 319 318 315 312 309 304 300 294 293 292 291 290 291 292 295 296 308 316 320 323 323 324 325
291 293 294 299 304 311 317 321 322 326 327 326 326 325 325 325 322 322 320 318 318 316 313 310 306 303 299 294 292 291 290 290 290 291 292 296 299 307 313 320 321 324 325
290 291 293 297 300 311 316 318 319 321 321 322 323 324 324 324 324 321 319 317 316 313 311 309 305 302 300 297 293 290 289 289 290 290 291 293 296 299 304 312 316 318 322
289 290 292 294 295 304 307 310 312 309 306 305 307 310 315 316 318 318 315 314 314 311 309 307 302 301 300 298 295 293 289 288 289 291 289 290 292 297 297 303 309 309 313
289 290 291 292 293 296 303 304 302 299 297 297 296 298 300 303 308 311 311 309 310 309 306 304 302 298 296 295 294 292 289 289 288 288 289 290 290 292 292 294 295 298 306
288 288 289 290 290 293 295 296 296 292 294 293 293 293 294 295 298 300 303 302 304 303 302 301 298 297 296 293 293 294 292 290 288 288 288 288 288 289 289 290 292 293 295
285 286 287 289 289 291 291 291 291 291 291 291 291 289 290 291 292 292 294 296 297 298 296 296 295 294 294 292 292 289 288 289 287 287 286 287 287 287 288 288 288 289 290
283 283 286 287 288 289 290 291 290 289 288 287 286 285 285 287 288 289 290 290 291 292 292 293 294 293 293 292 291 291 289 287 285 287 286 286 286 286 287 287 287 288 289
282 283 283 284 286 287 287 287 285 284 282 283 283 284 284 285 285 285 286 286 287 288 288 289 292 291 290 289 292 291 289 288 286 284 286 287 285 286 286 286 286 287 288
282 281 281 282 283 283 284 284 283 282 282 282 281 282 282 283 283 284 284 284 284 284 285 285 287 288 289 288 288 289 289 288 288 286 284 284 287 287 286 286 286 286 287
281 281 281 281 281 282 282 281 281 280 280 280 280 280 280 281 281 282 282 282 282 282 282 283 283 284 284 285 286 287 287 288 287 287 286 287 287 287 285 286 285 285 286

GFSSE_sfc_thetae_027.txt.gz
Theta_e
335 339 351 354 353 354 352 352 352 352 352 351 351 352 351 350 350 350 350 349 352 348 346 344 343 341 341 342 343 344 343 345 347 347 348 348 347 348 349 350 349 350 351
335 338 348 353 354 354 354 352 352 352 352 350 350 349 350 350 350 351 350 350 349 346 343 343 342 339 338 337 337 338 337 339 342 345 344 345 347 345 346 347 347 346 349
335 339 349 351 353 353 353 353 352 352 350 348 348 347 346 346 346 347 349 350 347 346 343 341 340 337 335 333 332 333 334 337 338 342 343 343 344 346 345 345 345 344 345
335 340 348 348 352 353 353 352 351 351 351 348 347 346 346 345 346 349 349 349 347 347 345 341 338 334 331 329 329 330 331 335 338 337 343 344 343 345 345 344 343 343 343
336 341 347 347 352 353 353 353 351 351 350 348 347 347 347 347 346 347 348 347 346 344 344 340 336 332 328 325 326 328 330 337 336 340 343 343 346 344 343 342 342 342 343
335 341 344 347 352 353 352 352 351 349 349 348 347 346 348 348 347 347 347 347 345 343 341 339 334 330 326 323 324 325 332 335 332 337 339 339 345 343 343 342 341 342 342
334 338 343 346 350 352 352 352 352 350 350 350 348 347 349 347 347 347 345 343 343 341 335 334 332 328 323 320 324 325 331 329 330 332 333 336 339 339 339 341 340 341 340
333 336 339 338 343 347 350 350 350 350 350 350 349 349 348 347 345 344 343 341 341 340 336 332 329 326 321 319 322 324 326 323 324 326 327 330 335 337 336 335 336 334 334
330 334 337 340 341 336 342 343 345 347 347 347 347 347 346 345 345 342 339 340 337 337 334 332 328 324 320 316 318 321 321 319 321 321 322 325 332 331 331 332 333 334 332
310 318 329 335 339 342 346 334 338 341 343 343 342 340 337 338 339 336 334 337 336 335 333 331 327 323 319 314 315 312 312 311 312 315 318 322 326 327 326 326 328 329 330
302 303 304 311 332 338 341 339 332 334 337 337 337 334 335 343 342 334 330 334 337 336 333 331 326 322 314 307 309 307 304 306 306 307 310 318 322 323 323 324 324 325 326
298 300 301 303 305 321 337 340 339 342 341 343 343 342 339 339 337 333 327 329 332 331 333 330 325 317 308 301 301 302 301 301 304 304 305 313 318 321 320 321 321 322 323
296 299 300 302 304 306 328 337 339 340 340 342 342 340 338 335 332 331 329 329 330 324 327 323 317 315 308 303 302 301 300 300 302 303 302 310 314 318 321 321 321 323 324
296 298 299 301 303 307 315 333 337 337 337 336 335 335 335 332 330 329 327 327 326 325 323 320 316 314 309 303 301 300 299 300 300 302 303 305 313 317 321 322 322 324 324
295 296 298 300 304 308 313 330 333 334 335 335 336 333 331 330 328 327 327 327 326 323 321 318 314 311 311 305 301 299 299 299 299 300 302 302 309 316 320 323 324 324 324
294 295 297 300 307 312 315 327 329 331 331 330 329 329 329 329 327 326 324 323 323 325 324 318 314 311 308 306 302 299 299 299 298 299 300 302 305 311 316 323 325 324 325
293 294 296 301 307 318 323 325 327 325 324 323 323 322 324 325 325 324 323 322 320 320 318 315 312 310 306 302 302 300 298 298 298 298 299 300 303 305 309 316 321 323 326
292 293 296 299 306 313 316 315 310 308 307 308 309 312 314 316 319 319 318 317 316 315 313 311 308 307 306 304 304 301 299 297 297 297 298 298 299 301 304 308 313 317 319
291 292 295 297 300 306 305 303 301 300 300 300 300 302 304 307 311 312 311 311 312 310 309 308 304 304 303 302 300 300 299 299 298 296 297 297 298 300 301 302 305 306 310
290 291 293 295 297 303 302 300 298 297 296 295 295 296 297 299 303 305 304 305 307 306 305 306 304 302 299 297 296 296 298 298 299 298 297 296 296 296 297 298 300 302 303
289 290 291 293 294 297 298 298 295 292 292 291 291 292 293 295 296 297 299 300 302 300 300 300 302 301 300 298 298 301 300 297 296 296 296 295 296 295 296 296 297 298 299
286 287 289 290 292 294 294 294 293 291 289 289 289 288 289 291 292 292 293 293 294 296 296 296 297 298 298 296 295 295 295 298 295 296 295 294 295 295 295 295 295 295 296
285 284 286 287 289 291 293 292 291 290 289 287 286 286 286 287 288 289 289 290 290 291 291 293 294 294 294 296 295 293 294 292 291 296 296 294 294 294 295 294 294 295 295
283 284 284 285 286 287 288 288 287 285 283 284 284 285 285 285 286 286 286 286 287 287 287 289 290 291 293 291 294 294 294 292 289 290 294 296 295 295 295 296 295 295 295
283 282 283 284 284 284 285 286 284 283 284 284 284 283 283 284 284 284 285 285 285 285 285 285 285 285 287 287 289 290 291 292 291 289 288 291 294 295 296 295 295 294 294
282 282 283 283 282 283 283 283 283 283 282 282 282 282 282 282 282 282 283 283 283 283 283 283 284 283 284 284 284 286 286 286 286 286 286 286 287 291 293 294 294 295 295

GFSSE_sfc_thetae_030.txt.gz
Theta_e
339 346 351 355 354 353 353 352 351 351 353 352 352 351 350 350 350 350 350 350 348 346 345 343 341 341 341 342 343 342 343 346 346 347 347 347 347 348 348 347 349 349 351
340 346 349 354 354 353 352 352 352 352 352 351 351 351 351 351 351 350 349 350 346 345 344 342 340 338 337 336 337 337 339 342 344 343 344 346 347 345 346 346 347 347 348
339 345 351 351 354 354 353 352 352 352 350 350 349 347 347 347 347 349 348 348 347 345 343 341 338 336 334 333 333 334 336 339 340 342 343 343 344 346 345 344 344 344 345
339 345 350 349 353 353 353 352 352 351 349 347 346 346 345 346 349 350 348 348 347 345 343 341 337 333 330 329 330 331 335 339 339 340 342 341 343 345 344 343 343 342 342
340 344 349 348 352 353 353 352 351 351 350 348 347 347 347 346 347 349 347 347 345 344 342 339 336 332 327 326 326 329 335 338 337 341 340 341 342 343 342 341 342 341 341
340 343 346 348 352 353 352 351 350 349 349 348 347 347 348 347 346 347 347 346 344 339 339 336 334 329 325 324 326 329 334 334 336 338 338 339 343 343 343 342 341 341 341
339 343 347 346 350 352 352 351 351 350 349 349 347 347 349 347 347 347 345 343 341 338 335 334 331 328 322 323 325 328 330 329 332 335 337 337 339 339 339 338 339 338 337
339 342 344 340 343 348 350 350 350 350 351 350 349 347 347 346 346 345 343 340 339 337 335 333 329 326 320 321 323 326 324 324 326 330 333 335 334 335 335 335 335 334 333
332 340 343 345 344 336 343 344 345 347 348 348 348 347 347 345 345 342 339 339 338 336 334 332 328 324 318 318 319 320 318 318 323 326 326 329 330 330 329 329 331 333 333
313 317 320 335 341 342 348 335 336 341 343 344 343 342 340 339 340 336 334 338 338 335 333 331 327 323 317 315 314 312 311 315 316 318 322 323 325 326 325 325 326 327 328
309 310 312 315 324 331 340 339 334 333 336 337 338 334 334 344 344 338 332 335 337 336 333 330 326 321 312 306 308 307 309 310 310 311 312 316 321 323 322 323 323 324 325
306 308 309 311 314 322 334 340 342 343 346 346 345 345 344 342 342 338 329 329 332 332 333 330 325 317 315 310 307 306 307 307 308 308 309 313 317 321 323 322 322 322 324
305 308 309 311 312 314 329 340 342 343 343 345 344 343 343 338 337 335 332 332 333 326 331 328 323 326 320 314 309 307 306 307 307 308 307 309 315 319 322 324 323 323 325
305 308 310 311 314 316 317 336 339 339 341 342 344 341 343 341 336 333 332 331 330 330 327 325 321 321 320 314 310 308 307 306 306 306 308 305 310 317 321 324 325 324 324
305 308 310 313 317 319 318 334 338 337 337 336 338 336 335 337 336 338 334 330 330 329 329 323 319 315 317 316 311 308 306 306 305 306 307 305 307 312 317 323 326 326 325
304 307 311 313 315 318 321 333 333 332 329 328 325 328 328 331 330 330 329 330 328 326 324 321 316 314 311 309 313 309 307 307 306 305 305 307 304 307 311 317 323 327 329
304 307 305 307 318 324 326 321 317 317 317 316 317 319 320 324 325 324 322 320 320 320 317 316 313 312 311 312 309 308 309 308 307 305 305 305 306 307 307 311 315 319 321
302 303 302 307 310 309 308 308 307 307 306 307 309 311 314 317 318 317 316 314 315 314 313 311 310 309 308 311 313 310 306 309 308 307 306 306 305 304 308 307 309 312 315
301 302 301 304 305 304 303 302 301 301 302 303 304 305 305 308 309 309 311 311 311 310 310 310 309 307 307 306 303 304 304 304 309 307 307 305 304 303 303 304 303 304 307
300 302 300 300 304 303 302 300 300 300 301 301 300 301 302 303 306 307 306 307 309 309 308 310 309 308 306 304 303 303 309 308 308 307 304 302 303 302 302 302 304 304 303
299 302 300 300 300 303 302 301 300 299 298 297 297 299 300 301 302 304 303 305 305 305 304 305 307 306 304 304 307 307 308 305 303 304 304 303 302 302 302 302 302 302 302
296 298 300 299 299 302 303 301 299 296 294 294 294 294 294 295 296 297 298 298 300 300 300 301 302 303 303 301 300 303 302 304 303 304 302 300 302 302 302 303 303 302 302
294 295 296 297 298 299 298 297 295 295 294 292 291 290 291 292 292 293 293 293 293 294 293 295 297 299 298 300 300 299 298 296 297 302 300 302 300 300 301 301 301 302 302
292 293 294 295 296 296 297 298 297 294 290 289 289 289 289 290 290 290 290 290 290 290 290 290 291 291 293 290 296 295 297 296 293 292 298 297 296 293 295 298 297 299 300
291 291 292 292 292 293 293 293 292 290 289 289 289 288 288 288 288 288 289 289 288 289 289 288 289 289 289 288 288 289 290 291 292 287 286 288 290 292 294 292 295 296 299
289 290 290 290 289 291 291 291 290 289 288 288 288 287 287 287 287 287 287 287 287 286 286 287 287 287 287 287 287 287 286 285 285 285 284 285 286 288 290 291 293 294 296

GFSSE_sfc_thetae_033.txt.gz
Theta_e
339 349 353 354 352 353 352 351 351 352 352 351 351 350 350 349 350 350 350 348 346 345 344 342 340 340 341 342 342 342 345 345 345 346 347 347 347 347 347 348 348 347 350
341 349 350 354 354 353 352 351 352 352 352 351 351 351 351 351 350 350 348 347 345 344 342 340 339 337 336 336 337 338 342 343 344 344 345 347 347 345 345 345 347 346 348
340 348 351 352 354 354 353 352 351 352 350 349 348 348 348 347 348 349 348 347 345 344 342 339 337 334 332 333 333 335 340 340 341 342 344 341 343 346 345 344 344 343 344
339 346 350 349 353 353 352 352 351 351 349 348 346 346 345 348 350 349 348 347 345 344 342 340 336 332 330 329 330 333 338 340 340 342 338 338 342 344 344 343 343 342 342
339 345 349 349 352 353 352 351 351 350 349 347 346 346 345 346 349 348 347 346 343 341 340 338 335 330 327 327 329 333 336 338 339 338 336 338 343 343 343 343 341 341 341
339 344 347 349 352 352 352 350 349 350 349 348 347 347 347 346 346 347 346 344 340 338 337 335 333 327 325 326 328 332 333 335 335 334 335 340 340 342 343 342 341 340 340
339 342 348 348 350 350 350 350 350 349 349 348 347 347 348 346 347 347 344 342 339 337 336 333 331 326 323 325 327 328 329 329 330 331 333 335 335 339 339 339 337 336 335
340 343 345 342 343 347 349 349 349 349 348 346 347 347 346 346 345 344 342 340 338 337 336 332 329 324 321 322 324 324 324 325 324 326 330 332 333 334 334 334 336 335 334
336 341 343 344 344 337 340 344 346 347 347 347 347 346 345 344 344 340 341 340 338 336 334 331 328 323 319 319 317 316 317 320 321 323 323 326 329 330 329 328 329 332 333
320 324 328 339 342 344 347 335 336 339 343 344 343 342 340 340 340 337 335 339 337 335 333 330 327 323 317 314 313 311 314 317 314 316 318 318 325 326 326 327 326 327 328
313 314 316 319 328 338 340 339 333 331 335 337 338 335 334 343 343 336 332 336 338 335 332 330 327 321 312 309 309 310 313 309 310 311 312 316 320 324 325 324 325 324 326
310 312 313 315 317 322 334 340 343 343 345 345 344 344 343 343 341 339 331 330 332 332 333 330 324 319 318 315 310 312 308 309 309 310 309 313 318 322 324 326 324 324 326
310 312 313 315 316 318 327 337 341 344 344 343 344 343 342 342 340 338 333 332 333 327 332 328 324 326 324 319 313 310 309 310 309 309 307 309 314 320 324 325 326 325 326
309 312 314 316 318 320 319 335 339 340 342 342 341 341 341 341 340 336 333 334 336 332 330 326 324 321 321 318 314 312 309 309 308 308 307 307 311 315 320 325 327 326 325
309 312 315 318 319 321 320 332 338 337 337 336 335 334 337 337 337 337 335 335 331 331 330 328 324 320 317 316 315 313 310 309 308 308 309 306 307 311 315 319 326 329 329
309 312 313 314 322 319 323 326 325 325 323 321 321 325 329 330 328 328 327 326 325 326 324 320 318 317 314 312 314 313 312 312 311 310 309 310 307 307 309 313 317 323 326
309 311 308 313 316 317 316 313 313 313 313 313 314 317 320 323 325 321 319 317 317 318 317 316 314 314 315 314 314 313 313 314 312 311 310 310 310 310 308 310 311 313 317
309 305 307 310 310 308 307 306 307 308 309 309 311 313 314 317 317 318 316 313 314 313 312 310 310 309 309 308 309 310 308 308 312 312 310 309 309 306 310 307 307 309 310
308 305 305 307 305 304 303 303 303 304 305 307 307 309 310 310 309 310 310 310 310 309 310 312 311 311 310 309 308 309 309 307 311 311 309 306 305 305 304 307 306 306 306
308 305 304 305 304 303 302 302 302 302 302 305 305 306 307 308 310 311 311 310 311 310 309 312 311 310 307 306 306 309 313 312 311 307 305 304 304 305 304 304 305 304 306
307 303 304 304 304 304 303 303 302 301 301 299 300 301 301 303 304 305 305 305 306 304 304 305 308 306 304 304 306 306 310 306 306 307 305 304 304 304 305 305 304 304 304
304 303 302 302 304 305 306 304 302 299 298 297 296 296 296 297 297 298 298 299 299 298 298 299 301 303 302 302 299 303 302 303 304 303 304 303 301 296 299 298 300 300 302
302 303 302 303 304 304 302 300 298 297 297 294 293 292 292 293 293 295 294 294 294 294 292 293 294 295 294 298 297 297 295 294 295 302 301 297 295 293 295 297 294 296 298
298 300 301 301 301 301 301 300 299 297 292 292 291 291 291 291 291 292 292 292 292 292 291 291 291 292 292 289 293 292 293 294 289 287 292 294 291 291 291 292 291 296 296
296 297 298 297 297 298 299 299 296 293 292 291 290 289 289 289 290 290 290 290 290 290 290 290 290 290 290 289 289 289 289 289 290 285 283 285 288 289 291 289 291 292 295
294 294 295 295 294 295 295 295 293 292 291 290 289 288 288 288 288 288 288 289 288 288 288 288 289 288 288 287 287 287 286 284 283 283 282 283 283 286 288 289 291 291 294

GFSSE_sfc_thetae_036.txt.gz
Theta_e
340 348 353 354 353 352 352 352 353 353 353 351 351 350 350 351 351 351 349 346 344 344 343 341 340 339 340 341 342 344 345 344 344 346 348 347 346 346 346 348 348 346 350
345 349 351 354 355 354 353 353 353 353 353 352 351 352 351 351 350 349 347 346 344 343 341 339 337 336 336 336 338 341 343 343 344 343 346 347 347 346 345 346 346 345 348
344 348 351 352 353 354 353 352 352 353 352 350 350 350 348 348 350 348 347 347 345 344 342 339 336 334 332 333 335 338 341 342 342 343 343 341 340 345 344 344 345 344 344
343 347 348 349 352 353 352 352 352 352 351 348 347 346 348 350 349 348 348 346 344 342 340 339 335 331 330 330 333 336 338 340 342 341 335 340 339 344 345 343 342 342 342
338 346 347 348 352 351 350 351 352 351 350 348 346 346 347 349 349 348 346 343 341 339 337 337 332 329 329 330 332 334 335 337 338 335 337 338 339 342 344 343 341 340 340
336 346 345 349 350 351 351 351 351 350 349 348 347 347 346 346 347 347 344 341 339 338 336 334 329 327 327 328 329 330 331 332 334 328 333 334 335 341 341 340 338 338 339
335 345 347 348 349 349 349 350 350 349 347 347 348 348 346 346 347 345 344 340 339 337 334 332 328 325 324 326 326 327 327 327 321 324 328 326 329 336 336 338 338 336 336
337 341 345 342 343 346 348 348 349 349 348 347 347 347 346 346 346 344 342 340 339 336 334 331 327 323 322 321 321 321 322 324 320 319 323 322 331 331 331 330 332 334 334
326 335 340 343 341 335 337 341 345 346 345 345 346 345 345 344 344 342 342 340 338 336 334 331 327 321 318 317 315 315 319 320 311 315 316 317 329 328 328 328 328 329 330
314 316 319 328 339 340 342 333 334 338 341 343 342 340 339 339 337 337 335 338 338 335 333 331 327 320 315 314 312 315 316 316 305 307 309 315 324 327 327 326 326 326 328
309 309 311 314 319 334 338 336 331 331 334 337 337 334 332 339 335 332 332 335 337 335 333 330 326 319 315 314 313 313 313 302 303 304 306 318 322 324 326 327 326 326 328
304 306 309 310 312 315 331 336 339 339 340 341 339 337 338 337 339 334 327 330 333 332 332 328 324 322 319 308 304 309 301 301 302 302 305 314 319 324 326 327 327 327 328
303 308 310 310 311 312 316 332 335 337 337 338 339 337 336 336 333 331 327 328 328 326 326 325 322 321 316 311 307 303 302 301 300 302 308 311 315 318 322 327 328 327 327
305 308 311 313 314 314 313 325 335 334 334 333 333 334 335 334 331 331 330 330 330 327 325 323 317 316 316 314 309 306 303 301 300 300 303 310 311 314 317 322 328 329 330
305 309 310 313 315 316 314 328 331 327 325 324 326 328 331 331 329 330 330 329 328 326 323 323 318 315 311 313 310 308 306 304 303 302 301 308 311 312 315 318 321 325 327
307 307 309 314 317 318 319 319 319 319 319 317 320 322 325 326 324 322 320 320 320 320 319 316 314 313 311 311 311 311 309 308 307 304 303 303 310 310 312 315 316 318 320
306 306 308 311 313 312 311 311 313 313 313 313 315 316 317 320 320 317 315 314 314 315 314 313 312 312 310 310 311 311 310 308 308 306 305 304 304 309 312 311 311 312 314
305 304 308 309 307 307 307 307 307 308 308 309 309 309 310 313 313 312 311 310 312 312 311 310 309 309 309 308 307 306 306 306 308 307 304 302 300 301 304 309 309 309 311
303 305 306 306 304 304 304 304 305 306 306 306 307 308 308 307 308 308 307 307 309 309 309 310 307 305 301 300 301 302 303 302 305 302 300 299 300 300 299 305 307 307 309
302 304 305 304 303 303 303 303 302 302 302 302 301 301 303 304 305 305 303 303 303 302 301 302 302 301 298 297 301 303 303 301 300 299 298 300 298 296 298 299 299 300 307
301 303 304 302 303 303 303 301 300 298 297 295 296 296 296 298 300 299 299 299 297 296 295 297 300 298 295 295 297 298 298 299 297 297 297 296 292 292 293 293 291 293 297
300 301 302 303 304 304 305 301 299 296 293 292 291 292 292 293 293 293 292 291 291 290 289 290 290 293 293 291 291 294 293 296 294 297 293 293 288 289 290 291 289 291 293
300 300 300 301 303 302 299 296 294 293 291 289 288 287 289 290 290 290 289 289 288 288 287 287 287 287 286 288 287 289 287 285 287 292 288 288 286 287 287 290 288 290 291
296 300 301 301 300 299 296 294 292 290 287 287 286 286 287 288 288 288 288 288 287 287 286 286 287 285 285 283 286 288 284 286 282 279 284 284 286 286 285 286 286 288 289
294 294 296 294 295 296 296 294 290 287 287 286 286 285 285 285 286 286 286 285 285 286 285 284 284 284 284 282 282 283 282 281 281 279 276 279 281 283 284 284 285 287 288
291 292 292 291 291 292 292 290 288 286 286 285 284 284 283 283 284 284 285 284 284 283 283 283 283 282 282 282 282 281 281 279 278 278 276 277 277 280 283 284 284 286 287

GFSSE_sfc_thetae_039.txt.gz
Theta_e
339 348 351 354 352 352 351 352 353 353 353 353 351 351 352 350 349 349 347 344 343 342 341 339 339 339 340 341 344 345 345 344 345 347 347 347 346 345 346 347 348 345 350
345 349 348 351 354 353 353 353 353 353 353 352 352 351 352 350 349 347 345 345 344 343 341 338 336 335 336 337 340 342 343 343 344 343 345 345 347 345 345 346 345 344 348
346 349 349 350 354 353 353 353 353 353 352 351 350 349 349 350 348 347 346 346 341 339 340 337 335 333 333 335 337 339 341 342 341 342 343 338 340 345 344 343 343 343 343
346 348 350 347 352 352 352 352 352 351 350 347 347 349 350 349 348 347 345 342 340 338 339 336 334 332 332 333 334 336 338 338 339 340 338 338 339 344 344 342 341 341 341
344 347 348 347 351 351 351 351 351 350 350 347 346 348 349 348 348 345 342 341 338 336 336 333 331 330 330 330 331 333 334 334 336 335 333 335 335 339 341 340 338 338 338
342 346 345 348 351 351 350 351 351 350 348 347 347 347 347 347 347 343 341 340 337 334 332 330 328 327 327 328 328 330 329 331 330 327 326 329 331 337 338 339 338 337 337
341 344 345 346 349 350 350 349 350 349 349 348 348 347 346 347 345 343 341 340 336 336 332 328 325 324 323 324 325 325 326 328 321 322 321 322 326 332 332 333 335 335 334
338 344 345 339 343 345 347 348 348 349 348 348 348 347 346 346 344 342 341 339 337 336 333 330 324 321 320 319 320 321 323 322 318 315 316 318 331 330 330 329 329 330 332
320 324 341 342 338 336 337 341 344 345 346 346 346 345 344 343 344 343 341 340 337 336 334 330 323 319 317 316 317 319 321 318 308 309 315 316 329 329 328 328 327 328 330
309 311 313 319 338 341 339 331 334 340 341 342 341 339 337 337 338 337 335 338 337 335 333 329 322 319 316 315 318 320 316 312 303 305 309 316 326 327 328 327 327 328 329
306 307 308 310 313 321 337 334 330 331 334 335 335 333 331 335 333 332 332 336 337 335 332 328 324 319 315 315 318 316 310 300 301 301 306 321 324 327 328 328 327 329 328
302 305 307 308 310 313 327 337 339 339 337 338 338 335 337 335 336 333 328 329 332 332 331 328 328 322 315 305 303 307 300 299 300 301 305 317 320 323 327 329 329 328 328
303 306 309 309 310 310 313 330 334 338 334 335 335 336 337 333 332 329 325 325 326 324 325 322 319 316 310 308 305 302 301 299 298 300 307 314 316 319 322 327 330 330 330
304 307 309 311 312 312 312 323 334 330 329 328 329 333 335 333 331 328 329 330 327 326 320 320 317 315 312 313 307 305 303 301 299 300 302 312 314 316 319 322 323 326 328
305 306 308 311 313 316 314 328 326 321 321 323 324 328 330 328 330 330 328 326 324 320 323 317 315 312 311 311 310 307 306 305 303 302 300 310 314 315 318 318 318 319 320
306 304 307 310 312 315 319 319 317 318 318 320 320 321 325 324 323 321 319 318 318 318 317 315 311 311 311 310 310 310 309 308 306 303 303 303 312 312 314 316 316 317 317
304 305 307 308 312 308 312 312 312 313 314 312 314 316 317 319 317 316 314 314 314 314 314 313 311 311 310 310 307 308 307 308 308 304 302 300 301 308 311 313 313 315 317
303 304 307 307 307 307 307 307 308 308 309 309 309 311 313 313 311 309 309 308 311 311 308 307 307 303 302 300 301 302 303 304 301 299 300 299 299 299 303 302 306 309 312
302 303 303 304 304 304 305 306 305 306 306 306 307 307 308 307 307 306 305 304 304 303 305 304 299 298 295 296 299 300 301 299 298 299 296 293 294 293 294 297 299 302 306
301 302 303 303 303 303 303 303 301 300 300 300 299 299 300 301 302 301 299 298 298 297 297 300 296 294 293 293 300 300 297 298 297 295 292 291 290 291 289 291 288 292 301
299 301 302 302 302 303 302 300 298 295 295 294 293 293 294 295 296 296 295 293 292 291 291 295 296 290 288 289 296 296 296 295 294 293 289 288 288 289 288 289 287 289 291
298 300 301 302 303 303 303 300 297 293 291 290 289 289 290 291 291 291 290 288 288 288 287 287 289 289 287 286 290 292 291 293 291 289 287 286 284 286 286 288 286 288 289
296 297 302 303 303 300 297 295 293 291 290 287 286 286 287 288 289 289 288 287 287 286 285 284 285 285 284 285 285 288 284 283 285 289 284 283 283 284 283 285 285 287 289
296 298 301 302 299 297 296 293 290 288 286 285 285 285 286 287 287 287 287 286 286 285 284 284 284 283 283 281 283 285 282 284 279 278 281 281 282 282 281 282 283 285 287
295 296 299 299 297 296 295 292 289 286 286 285 284 284 284 285 285 285 285 285 284 284 283 283 282 282 282 281 280 280 280 279 279 277 275 276 279 281 281 282 282 283 285
292 292 293 295 295 295 292 289 288 286 285 284 283 283 283 283 283 283 284 283 283 283 282 282 281 281 280 280 280 280 279 277 277 276 275 275 276 278 280 281 281 282 284

GFSSE_sfc_thetae_045.txt.gz
Theta_e
335 341 348 351 352 352 351 351 351 351 350 350 350 348 347 346 346 343 341 342 341 340 339 338 339 341 342 344 344 343 343 343 344 345 345 345 343 342 343 343 344 343 348
340 344 345 350 351 350 351 351 352 351 351 351 350 348 347 347 344 341 339 340 341 340 338 337 336 336 338 341 340 343 345 344 343 343 343 343 343 340 340 339 341 340 344
342 345 346 350 352 352 352 352 352 352 350 349 350 348 348 346 343 340 338 339 339 337 336 335 333 333 336 338 341 345 344 342 340 338 339 335 335 339 339 338 338 338 340
344 345 346 347 350 351 351 351 351 350 349 350 349 348 347 344 342 339 336 334 334 333 332 332 331 332 335 336 340 340 339 336 334 332 329 330 333 337 337 337 337 337 337
343 345 344 346 350 350 350 350 350 349 349 349 348 347 346 343 342 338 337 334 331 329 328 328 329 331 332 335 338 336 334 331 328 324 323 327 327 333 336 335 335 335 334
342 343 343 347 350 350 350 349 349 348 346 347 347 346 346 343 341 338 338 336 333 328 326 325 326 329 329 330 334 332 330 328 323 317 319 324 323 332 332 332 333 333 334
340 341 342 346 348 350 350 349 349 348 347 346 346 346 345 343 341 339 338 336 334 329 325 323 324 325 326 327 329 326 323 322 313 314 315 319 324 331 331 331 331 332 332
339 341 342 339 342 345 347 348 348 348 349 348 347 346 345 343 341 339 338 336 334 330 326 321 321 323 323 323 323 320 317 316 312 312 314 317 332 332 332 332 331 331 332
330 338 338 340 340 337 341 342 344 345 346 346 346 346 344 343 342 340 339 337 334 331 328 324 322 321 320 320 320 317 314 313 305 309 314 318 331 331 331 332 331 330 330
314 319 327 336 337 336 336 330 335 339 341 341 341 339 336 337 338 337 334 337 333 330 328 325 322 320 319 319 317 313 310 308 302 306 310 319 329 331 331 330 330 330 329
307 308 310 319 325 335 337 333 329 334 335 335 334 331 330 333 333 332 331 334 334 330 327 324 320 317 314 315 313 310 306 299 300 304 308 323 326 328 330 331 332 333 333
303 305 306 308 311 315 326 337 337 337 335 335 334 332 332 331 331 332 327 329 329 328 329 324 319 314 307 301 300 303 298 299 301 304 311 323 324 325 325 324 325 326 327
301 305 309 309 311 310 314 331 336 339 337 335 336 335 333 332 331 330 328 326 323 318 316 314 311 308 305 303 302 300 299 299 300 305 314 322 324 325 325 324 322 322 322
302 304 306 308 310 311 310 324 332 332 331 329 332 332 333 331 328 327 327 326 325 321 313 311 309 308 307 306 305 303 300 300 301 305 310 315 319 322 324 324 324 324 323
303 304 305 307 309 311 311 327 326 325 325 325 329 332 332 330 328 328 327 325 323 321 317 311 309 309 308 308 306 303 301 299 299 301 303 307 311 315 318 320 321 322 322
303 303 305 308 311 314 317 321 320 321 322 322 323 326 327 328 326 324 321 319 318 317 316 313 309 310 310 309 307 305 301 299 298 297 297 298 303 307 310 314 316 318 320
303 304 305 307 312 314 316 315 317 317 317 317 318 320 321 322 321 319 317 315 315 314 313 311 308 307 306 306 303 299 298 296 294 292 292 292 291 300 304 308 311 313 316
302 303 305 308 310 311 312 312 312 312 312 313 314 315 316 316 316 315 314 312 312 310 308 304 302 299 299 299 296 295 294 291 290 289 289 290 289 288 294 301 304 307 308
301 302 302 303 307 307 307 307 308 307 308 310 311 311 311 311 311 311 309 308 306 303 300 296 294 296 298 296 295 293 291 289 288 288 286 287 287 286 286 294 297 299 303
300 301 301 302 304 304 302 302 302 300 299 301 302 305 306 305 305 305 303 302 300 294 291 291 292 292 294 295 294 291 289 287 285 284 284 285 285 285 284 285 286 289 300
299 299 299 300 300 300 299 299 299 298 297 296 297 300 300 299 297 297 296 296 295 291 289 289 289 293 288 290 290 289 288 286 283 282 282 282 283 284 284 284 285 286 288
299 299 299 300 299 300 300 297 296 295 290 292 293 294 295 293 292 292 292 291 289 288 287 287 287 285 284 284 291 289 285 287 285 283 281 282 280 281 282 283 284 285 284
298 299 300 300 300 300 297 292 290 290 291 291 290 290 289 289 288 289 288 287 285 285 284 284 285 284 282 282 283 290 285 286 282 285 280 279 279 279 279 281 282 283 283
299 299 300 300 300 296 294 292 293 290 287 289 288 288 286 286 286 286 286 285 285 284 283 283 284 283 282 281 281 281 279 281 277 276 277 278 279 279 278 279 280 281 281
298 298 299 299 297 295 294 295 294 291 285 285 286 286 284 284 285 285 284 283 283 283 282 282 282 281 281 280 279 279 278 277 276 276 274 275 278 278 278 278 279 279 279
297 297 297 298 295 294 295 294 292 289 285 284 284 285 283 282 282 282 282 282 281 282 281 281 280 280 280 279 279 278 278 276 275 275 274 274 275 277 278 278 278 278 278

GFSSE_sfc_thetae_048.txt.gz
Theta_e
333 339 347 349 350 350 350 351 350 351 350 350 347 347 346 342 340 340 341 341 340 339 339 339 341 343 342 344 346 345 345 344 344 343 343 342 340 341 341 341 343 341 346
338 341 347 350 352 351 351 351 351 350 350 350 347 348 344 342 339 340 341 340 339 338 337 336 339 341 342 346 345 344 343 342 341 340 339 340 340 338 339 338 340 337 342
339 343 346 350 351 352 352 350 351 351 351 349 348 347 344 341 338 338 338 336 335 335 334 334 338 339 343 343 341 341 340 337 336 335 334 332 333 338 337 336 336 337 339
341 343 344 346 350 351 351 351 350 349 351 349 347 346 343 340 338 335 334 333 332 332 332 333 336 340 341 340 339 337 336 334 332 331 326 327 328 335 336 335 335 335 335
341 343 343 346 350 350 350 350 349 350 350 348 347 345 343 340 339 337 334 331 329 329 330 332 335 337 339 338 336 334 332 330 328 323 322 323 323 331 334 334 333 333 333
340 341 342 347 350 350 349 348 348 348 348 347 346 345 343 340 340 338 336 332 327 326 327 330 331 333 335 333 332 330 329 327 322 316 318 323 323 333 334 333 333 332 333
338 340 341 346 348 349 349 348 348 348 348 347 347 344 342 340 340 338 336 333 328 325 325 327 328 329 329 327 325 324 324 323 313 315 317 321 325 333 334 333 333 332 331
338 339 340 339 342 345 347 348 348 348 348 347 346 345 343 340 340 338 336 334 330 327 324 324 324 324 324 322 320 320 320 317 312 312 315 320 331 332 333 332 331 331 330
334 337 338 339 338 337 340 342 344 346 346 346 346 345 343 341 340 339 338 335 332 330 326 324 322 322 321 319 316 316 317 316 306 309 315 319 332 333 333 333 332 331 331
322 329 333 337 339 339 338 332 336 339 341 341 341 338 336 337 337 335 333 334 331 328 326 323 322 320 319 317 315 312 312 311 305 308 312 322 330 331 332 332 332 333 334
311 312 315 329 332 335 334 332 328 334 335 335 334 331 330 332 331 330 330 332 331 329 325 321 317 316 315 314 312 310 307 302 307 310 313 325 326 326 326 326 327 328 329
308 307 308 312 316 319 330 338 336 336 335 334 334 332 332 330 331 331 326 327 328 327 324 320 316 311 305 299 301 304 301 303 307 311 317 326 327 328 328 327 325 324 324
305 306 308 308 311 314 319 332 337 338 334 333 335 335 333 332 331 330 326 324 320 316 312 310 307 305 303 302 300 299 301 303 306 305 312 321 324 326 326 327 327 327 325
302 304 307 308 309 310 311 319 331 334 334 334 334 334 332 330 329 328 326 324 321 317 311 308 306 306 305 303 301 300 300 301 302 300 306 313 318 321 323 323 324 324 325
301 303 306 306 308 310 309 327 326 328 329 329 332 333 332 329 328 327 326 325 321 318 314 309 308 308 305 303 301 300 298 297 297 297 297 308 311 315 318 320 322 322 321
301 303 304 306 308 310 312 322 324 325 325 326 328 331 331 330 328 326 322 321 318 317 314 312 311 310 308 305 301 299 295 293 292 291 291 295 305 309 313 315 316 318 318
301 302 304 306 308 313 313 319 319 321 321 321 321 324 326 327 325 322 319 317 315 315 313 310 308 308 304 300 296 293 291 290 289 289 289 288 289 301 305 308 309 312 315
300 302 303 309 313 315 310 315 313 316 315 316 317 318 320 321 321 319 316 314 313 311 309 305 304 301 296 294 291 289 288 288 287 287 287 287 286 286 295 302 306 309 311
300 301 302 304 310 311 307 309 307 310 311 312 313 314 314 315 316 315 313 311 308 305 303 301 298 298 294 291 289 287 285 285 285 286 285 285 285 284 285 296 300 300 302
299 301 301 302 304 307 305 303 302 303 303 306 308 309 309 308 309 309 307 304 301 298 297 297 295 293 293 289 287 285 284 283 283 282 282 284 284 283 284 285 285 288 296
298 299 300 300 304 304 303 302 300 301 300 300 301 304 304 304 304 304 302 299 295 294 293 296 294 293 289 288 287 285 284 282 281 281 281 281 282 282 283 283 283 283 284
298 299 299 300 304 304 303 298 296 295 292 295 296 296 298 298 299 299 298 292 290 290 291 292 291 285 284 284 288 286 282 284 283 282 280 281 279 280 281 282 282 281 280
297 299 300 300 301 304 301 293 291 292 293 293 292 293 293 294 294 293 291 289 287 289 291 287 287 287 282 281 283 289 285 285 282 283 279 277 278 278 278 280 280 280 280
297 300 301 300 300 300 296 295 295 291 290 290 291 290 289 290 289 289 288 286 285 285 285 285 284 283 283 280 280 280 279 282 278 276 277 277 277 278 277 279 278 279 279
297 299 300 299 299 298 295 296 296 293 287 286 289 288 287 287 286 286 285 284 283 283 282 282 281 282 281 280 280 279 277 276 276 275 274 275 277 277 277 278 277 277 278
295 297 298 298 298 295 294 294 296 291 287 287 287 287 286 285 283 283 283 282 282 282 281 281 280 281 280 279 279 279 278 276 275 275 273 274 274 276 277 277 277 277 277

GFSSE_sfc_thetae_051.txt.gz
Theta_e
338 342 347 349 348 350 351 351 350 351 350 349 347 343 341 341 342 342 341 340 339 340 342 344 344 347 347 346 345 344 343 342 341 341 341 340 340 340 340 340 342 342 345
341 344 346 349 351 351 351 351 351 351 350 349 346 343 340 341 342 341 340 339 338 337 341 342 345 346 345 343 342 342 340 339 338 338 338 340 340 338 338 337 339 338 342
341 345 346 348 351 351 351 351 351 351 350 349 345 343 339 338 338 337 336 336 335 336 339 341 345 344 341 340 340 339 338 336 335 334 335 332 333 336 337 336 335 337 338
343 346 347 346 350 352 350 350 351 351 350 348 345 342 340 338 336 334 333 332 333 335 338 340 343 341 339 338 337 335 334 333 332 332 329 330 330 335 336 335 335 335 334
344 346 346 346 350 349 349 350 350 349 350 347 344 342 341 339 338 334 331 330 331 333 335 339 340 338 336 335 333 332 331 330 328 329 330 330 331 333 336 335 334 333 334
343 344 344 348 350 350 349 349 350 350 349 347 343 341 341 340 338 335 331 328 329 331 333 336 336 333 330 329 330 330 330 329 327 328 329 331 330 335 336 334 333 333 334
342 343 346 345 348 349 349 349 349 349 348 348 344 341 342 340 338 335 332 328 327 328 330 331 329 326 325 325 327 327 327 325 325 327 329 330 331 333 333 333 332 331 331
342 343 345 340 342 345 347 348 348 348 347 347 346 342 341 340 338 336 333 330 327 326 326 327 326 323 321 323 325 324 322 320 322 325 328 330 333 335 335 334 334 333 334
341 342 343 345 342 338 341 342 344 345 345 345 344 344 342 341 339 337 336 332 330 327 325 324 323 321 320 319 321 321 320 319 321 323 324 328 332 333 335 334 333 334 334
337 338 340 342 343 343 343 335 337 339 341 341 341 338 336 336 335 333 331 332 329 327 325 323 321 320 318 317 318 318 317 319 320 322 323 324 328 329 330 330 329 329 330
322 328 335 336 337 338 338 334 331 334 335 335 335 331 331 336 335 332 329 330 328 324 321 320 319 318 316 316 316 315 315 317 319 323 326 328 329 330 329 327 327 326 326
319 316 320 325 328 332 337 339 340 341 341 340 340 339 337 335 335 332 326 326 326 324 320 317 314 310 307 308 310 312 312 312 312 317 321 327 328 330 330 329 328 328 328
318 314 313 316 318 323 327 337 339 341 340 340 339 338 335 333 332 331 326 322 317 315 313 311 309 307 307 307 308 309 308 307 308 311 316 323 325 327 328 328 329 328 327
311 313 312 313 315 317 319 323 335 338 338 338 338 337 336 333 332 329 326 321 318 314 311 311 309 308 306 306 306 304 303 304 304 306 310 316 321 323 325 323 323 325 322
309 309 311 312 313 315 316 321 331 334 336 337 335 336 336 332 331 329 326 324 318 316 312 311 309 306 305 304 303 299 297 298 299 301 305 310 315 317 319 321 321 320 320
305 307 309 310 312 313 315 321 329 331 331 331 332 334 333 332 331 327 326 321 318 316 314 311 308 306 303 300 297 295 294 294 294 295 297 301 308 310 313 316 318 319 318
303 305 307 308 311 313 315 320 325 327 328 326 327 329 332 331 330 326 322 318 317 315 313 311 308 303 298 295 294 293 292 292 292 291 292 294 297 305 309 312 312 312 312
303 304 306 309 312 313 315 318 321 322 324 323 323 325 326 326 325 323 320 317 315 314 311 308 303 299 294 292 292 291 290 290 290 290 290 290 292 295 302 303 304 307 308
302 304 305 308 311 313 315 315 316 317 320 318 320 319 320 321 321 320 317 313 312 308 306 304 300 296 292 290 289 289 289 289 289 288 288 288 290 290 292 296 298 300 303
301 303 305 306 310 312 311 309 308 309 312 313 314 314 315 316 317 316 312 310 308 304 302 301 297 294 293 290 286 286 287 287 287 287 287 288 288 288 288 287 288 292 298
300 302 303 304 307 309 307 307 305 306 306 307 308 309 310 311 312 312 310 304 304 302 301 299 295 292 289 289 288 286 286 286 285 286 287 287 287 287 287 286 286 286 288
299 301 302 304 306 307 309 305 304 302 301 303 302 303 305 306 306 307 304 301 299 298 298 297 295 292 290 291 291 289 285 287 287 284 285 285 285 287 286 285 284 284 286
297 300 302 303 305 307 307 299 295 295 296 297 297 298 299 301 302 301 300 297 297 300 299 298 295 293 290 288 292 295 289 289 287 288 283 284 284 285 285 284 283 283 284
297 300 303 303 305 306 302 301 300 302 297 298 298 298 295 296 297 298 294 294 296 299 298 296 295 294 292 289 285 284 287 292 287 284 283 283 283 283 284 284 283 283 283
297 299 302 303 303 305 302 304 302 299 296 295 294 294 293 292 294 292 290 291 293 295 296 295 291 290 291 288 286 284 283 283 283 284 280 281 282 283 283 284 283 283 282
295 298 301 301 301 302 302 302 302 301 293 293 291 292 291 289 289 289 287 289 290 291 291 291 289 289 287 286 285 285 284 284 282 282 281 280 281 282 283 283 283 283 282

GFSSE_sfc_thetae_054.txt.gz
Theta_e
340 343 346 346 348 350 349 350 349 350 349 344 342 341 342 342 342 341 340 340 342 343 344 347 348 346 345 344 342 341 340 340 340 340 340 339 339 339 340 342 342 341 344
343 344 345 348 350 351 350 349 350 350 349 344 341 341 342 342 341 340 338 338 340 342 345 347 346 343 343 341 340 339 338 336 336 338 339 338 339 337 337 337 338 337 339
343 345 346 347 351 352 351 351 350 351 348 344 341 339 338 337 337 337 336 337 339 340 344 344 343 342 339 337 337 335 335 334 336 336 336 332 333 336 336 335 336 336 337
343 344 345 347 351 351 349 349 349 350 348 344 341 340 338 336 334 334 334 336 338 339 343 343 341 339 336 335 334 333 334 333 335 335 331 331 332 335 336 335 335 335 334
344 345 345 346 350 349 351 350 349 349 348 344 342 341 340 337 333 332 332 335 336 338 341 340 338 335 334 333 333 333 333 332 334 331 332 333 334 334 335 334 333 333 334
344 345 344 347 349 348 350 350 349 348 348 345 342 342 340 337 334 330 331 332 334 336 336 335 332 331 331 331 332 332 331 333 332 331 330 332 330 334 334 333 332 333 334
343 344 346 346 347 349 349 349 348 348 348 345 342 341 340 337 334 330 329 331 331 332 332 329 328 328 328 329 330 329 328 331 329 329 330 331 332 335 336 336 335 334 334
342 344 345 340 342 346 347 347 346 347 347 346 343 341 339 337 335 332 329 328 328 328 327 325 324 325 327 327 327 326 326 329 329 331 331 329 336 337 338 336 335 335 334
343 344 345 345 342 338 340 343 344 344 344 344 343 342 340 339 337 334 333 329 328 327 325 323 322 322 325 325 326 324 325 326 325 325 324 326 330 332 332 332 332 332 330
343 343 343 345 345 345 345 335 337 340 341 341 340 337 335 335 333 332 330 330 328 326 324 322 320 320 323 324 322 322 324 325 326 326 325 325 329 329 329 328 327 327 327
338 341 343 343 344 344 344 339 334 335 336 336 335 330 330 335 333 331 327 328 326 324 323 321 320 320 320 319 319 321 322 325 324 325 327 329 331 332 331 330 330 330 327
330 335 340 339 341 343 341 344 344 343 343 342 342 339 339 337 335 331 325 324 323 321 320 318 315 314 318 319 319 319 320 322 322 321 324 328 329 330 331 331 328 326 325
333 327 328 338 342 341 338 342 343 343 343 343 343 341 340 337 334 332 326 323 320 317 315 314 314 314 316 316 316 316 315 317 319 317 318 325 328 327 327 328 325 324 321
334 328 325 331 334 330 334 335 341 343 345 344 343 341 339 336 333 329 325 320 317 316 316 315 314 314 313 312 311 311 311 313 315 316 314 317 323 323 325 323 323 321 320
330 332 323 322 330 331 332 329 331 338 342 343 344 341 341 336 332 330 326 322 317 314 314 313 313 312 311 308 306 306 306 307 310 311 311 312 316 318 320 322 321 318 316
329 329 329 326 328 328 329 332 334 336 337 341 341 341 339 339 333 329 326 325 319 317 313 311 311 308 305 303 301 301 301 302 304 306 307 309 314 315 316 317 316 315 315
326 327 324 323 323 324 326 328 333 336 336 337 338 339 338 336 333 328 325 322 319 315 313 311 306 301 299 299 298 297 297 297 297 298 300 304 308 309 309 311 312 312 312
323 320 320 316 318 320 322 324 328 334 334 335 335 332 334 337 332 327 323 320 318 313 311 306 301 297 296 297 296 295 295 295 295 295 295 298 302 301 303 305 307 308 309
316 315 315 315 316 317 319 320 323 328 331 333 333 332 330 333 330 325 322 319 315 311 311 304 300 298 294 295 295 294 294 294 293 293 293 294 295 296 297 299 301 302 304
313 312 312 313 315 317 318 319 320 323 324 328 329 329 326 327 326 322 319 316 312 311 306 303 297 295 294 294 292 291 292 293 293 292 292 292 292 292 292 292 295 297 299
311 310 310 311 313 316 316 314 314 316 314 317 322 323 321 320 320 319 316 314 310 309 308 301 296 293 292 294 291 290 290 290 290 291 292 292 291 290 290 290 291 291 293
307 309 310 310 312 315 315 315 316 317 313 315 315 314 314 314 316 316 313 311 307 305 304 298 296 292 293 294 294 292 287 288 289 289 290 290 290 290 289 288 288 289 291
306 307 308 310 311 313 315 315 311 309 303 304 306 307 307 310 308 310 312 310 308 306 300 298 296 297 294 295 297 299 292 292 289 287 287 288 289 289 289 288 287 287 289
307 308 308 309 310 312 314 312 309 310 307 306 308 306 304 305 307 306 302 304 303 304 302 300 297 299 299 295 296 296 295 297 292 285 286 287 288 288 288 288 287 286 287
307 307 308 308 309 311 313 312 312 311 314 306 308 307 305 303 303 303 301 300 300 303 302 302 299 300 300 299 297 292 291 291 292 291 285 284 286 287 288 288 287 287 286
305 305 307 307 308 310 311 311 311 311 310 305 309 307 304 303 302 300 297 298 300 302 305 304 303 301 300 299 297 293 291 290 289 289 287 285 285 285 287 288 287 287 287

GFSSE_sfc_thetae_057.txt.gz
Theta_e
337 339 345 345 344 346 345 347 348 348 344 342 342 343 342 340 341 340 342 344 345 348 348 346 345 344 343 341 339 339 339 339 339 339 339 339 338 339 340 341 340 337 341
339 340 345 346 347 348 347 347 349 347 343 341 342 342 341 341 340 339 340 342 344 347 346 343 342 343 340 338 338 336 335 336 339 340 338 338 339 337 337 339 337 334 337
342 343 342 347 349 348 347 348 348 347 342 340 339 338 338 337 337 337 339 342 345 344 344 342 340 338 337 335 335 334 334 335 337 338 336 331 333 336 337 336 337 336 336
343 344 343 345 350 348 348 349 349 347 342 341 339 337 336 335 335 337 339 342 344 343 342 340 338 336 335 334 334 334 334 335 337 336 332 331 330 336 336 335 335 335 335
342 343 345 347 350 349 349 349 349 347 344 342 341 339 335 334 334 336 337 339 341 341 339 337 336 334 333 334 334 333 334 336 335 331 329 328 328 333 335 334 334 334 336
341 342 344 348 349 349 349 348 347 347 343 343 341 339 336 333 333 334 335 337 337 336 335 334 333 332 333 333 333 333 333 336 333 330 330 332 332 336 337 336 335 336 336
342 344 344 346 347 349 350 348 348 347 345 343 341 339 336 333 331 333 333 335 334 332 331 330 330 331 331 331 331 331 333 335 333 334 334 335 335 338 339 338 336 334 334
340 343 343 340 342 346 348 347 346 345 345 344 341 339 336 333 331 331 331 331 330 328 327 328 328 329 330 330 329 330 331 331 328 327 328 330 333 334 335 335 332 331 331
342 341 343 344 342 338 341 342 343 344 344 343 342 341 339 336 334 333 332 329 328 325 325 325 327 328 329 328 327 328 327 326 322 324 323 325 329 331 332 332 330 329 328
340 340 340 342 342 342 343 336 338 340 341 341 340 336 334 334 333 331 329 330 327 325 323 323 325 327 326 325 325 326 327 327 328 327 326 327 331 331 330 332 328 326 324
338 339 341 340 341 341 341 338 334 335 336 335 334 330 328 331 329 329 326 328 326 324 322 323 324 323 322 322 323 323 325 325 325 327 328 329 331 333 332 329 325 324 322
335 338 340 341 340 340 340 342 341 342 342 341 338 335 335 333 333 327 323 324 325 323 322 321 321 321 321 320 320 322 323 322 322 323 326 330 331 331 329 326 324 322 320
334 336 339 340 341 340 340 341 342 342 342 341 340 338 337 335 331 328 323 320 319 317 316 315 317 318 319 319 318 318 320 320 318 319 319 326 328 328 326 323 322 320 319
334 335 338 338 340 340 342 340 340 340 342 341 341 340 339 336 332 331 325 321 320 319 317 319 318 317 316 315 315 315 316 318 318 315 314 319 325 323 325 323 320 318 317
331 334 332 334 339 339 338 336 339 341 341 340 342 341 340 336 335 330 325 319 317 317 317 317 316 314 312 311 311 311 312 314 314 313 313 314 320 322 322 320 318 317 316
331 333 334 330 335 336 335 336 334 337 339 342 342 342 340 337 333 329 323 319 315 315 316 316 315 313 309 307 306 306 307 309 310 310 312 311 315 316 316 316 316 316 315
332 332 333 332 330 333 333 335 336 337 335 336 339 340 340 338 334 330 324 321 318 317 312 312 310 308 305 303 301 300 301 302 303 304 308 309 307 311 312 313 313 313 313
330 331 332 331 332 332 332 333 333 335 336 336 336 338 340 339 334 327 324 319 316 313 312 305 302 302 300 301 299 298 297 297 298 298 302 303 302 303 306 308 309 310 310
327 329 330 329 326 328 329 330 331 333 333 334 334 335 337 338 333 328 324 319 315 315 308 303 300 300 298 298 297 297 296 296 295 295 296 298 299 299 300 302 303 305 306
324 326 327 326 324 325 325 325 326 327 331 332 332 332 334 335 333 328 324 317 314 312 307 302 300 300 298 296 294 294 294 295 295 294 293 293 293 294 295 296 298 299 302
319 319 321 321 320 321 319 318 318 318 322 326 329 331 332 332 331 326 321 316 314 311 307 302 299 297 296 295 292 292 292 292 292 293 293 292 291 291 292 292 293 294 295
315 317 316 315 316 316 318 319 318 318 320 320 321 322 327 325 325 322 319 315 313 311 306 300 298 294 295 294 294 292 287 288 290 291 292 292 290 290 289 290 290 291 293
311 314 314 314 315 315 317 318 317 317 317 315 315 316 317 318 318 317 317 314 311 309 304 300 296 296 293 294 296 297 291 290 288 289 289 290 290 290 289 289 288 289 291
312 313 314 314 314 315 317 316 315 313 310 312 314 314 310 312 312 313 313 311 310 308 303 300 299 300 296 293 297 298 298 296 289 283 287 288 289 289 288 288 287 287 289
313 314 313 313 313 314 315 315 315 312 312 316 315 311 310 308 308 307 308 309 308 308 305 302 299 299 299 297 297 295 295 296 295 292 284 284 287 288 289 288 288 287 287
313 313 313 311 311 312 313 314 314 312 312 314 312 311 307 305 303 305 304 305 306 304 303 301 299 299 298 299 298 296 294 292 289 291 288 285 283 285 288 288 287 287 287

GFSSE_sfc_thetae_060.txt.gz
Theta_e
332 337 345 344 346 345 345 347 345 345 342 342 343 341 340 341 342 343 345 347 347 346 345 344 344 341 339 339 338 339 339 339 340 340 339 340 339 340 339 340 339 334 339
336 339 344 347 345 346 345 347 347 345 343 343 341 340 341 340 340 342 343 346 347 344 342 340 339 339 339 336 336 338 338 339 340 338 337 339 339 337 338 337 336 333 338
335 339 342 347 348 347 347 347 347 344 341 340 340 339 339 339 340 340 343 347 345 342 341 338 338 337 335 335 336 337 337 339 339 338 336 329 330 337 337 337 338 337 337
338 340 340 345 349 347 347 347 347 344 341 339 337 336 336 338 339 340 344 345 343 340 338 338 337 335 335 335 335 336 340 338 335 333 327 327 330 336 336 336 336 336 335
339 341 342 346 348 347 346 346 347 345 343 341 338 336 335 337 338 339 342 342 340 338 337 336 335 334 334 335 335 335 339 337 334 328 324 326 328 334 338 337 337 336 338
340 343 343 347 349 348 346 347 347 345 342 340 339 336 335 336 337 338 339 338 336 335 334 334 334 334 334 334 334 336 339 338 332 327 329 333 331 339 339 337 337 336 335
339 343 344 346 347 348 348 348 347 345 344 341 339 336 334 334 335 337 336 335 333 332 332 332 332 332 332 333 333 336 337 335 328 329 330 331 332 336 336 334 333 332 331
340 341 343 340 343 345 347 347 346 345 345 342 339 336 333 333 333 334 333 331 330 330 330 331 331 331 331 330 330 332 332 329 324 325 326 328 334 334 333 331 330 329 328
339 339 339 341 341 338 341 342 343 344 344 342 341 339 336 335 334 334 332 328 328 328 329 329 330 330 329 330 331 331 329 327 318 319 321 321 333 333 332 329 327 325 325
336 339 338 339 340 341 339 335 337 340 340 340 338 334 332 332 332 331 329 328 326 326 327 329 328 327 328 327 329 328 327 326 324 322 322 327 332 332 329 326 324 324 323
333 337 338 339 337 337 338 335 333 335 335 334 332 328 326 325 324 325 326 327 326 325 326 327 326 325 323 324 325 326 324 323 324 324 324 330 332 330 328 324 323 323 321
328 333 337 337 337 337 338 337 338 338 337 336 333 328 328 325 325 323 321 324 325 324 325 325 324 324 319 315 315 321 319 318 317 319 324 330 330 329 326 323 322 321 320
327 331 334 336 336 337 336 338 338 338 337 336 334 330 332 326 321 320 317 316 315 316 314 316 316 314 314 313 312 314 314 313 313 314 320 327 327 326 324 322 321 319 319
329 331 333 335 335 336 337 338 336 337 336 336 335 333 334 327 323 318 316 313 312 314 310 311 312 311 310 310 310 311 312 313 312 312 313 319 325 325 322 321 320 319 318
329 331 333 335 334 336 335 335 334 336 335 335 335 334 335 328 325 321 318 314 315 315 315 312 310 308 307 307 307 308 308 310 310 310 308 315 323 322 320 320 319 318 317
327 331 332 333 336 337 336 333 331 333 335 335 335 336 334 332 328 325 319 316 314 313 315 313 311 306 303 304 303 304 304 305 306 306 304 304 316 317 317 318 317 316 316
326 327 330 330 330 331 332 332 331 330 331 332 334 335 334 333 329 325 319 316 313 313 313 312 308 305 302 300 297 298 298 299 300 303 303 301 302 312 314 314 314 314 314
323 325 329 330 329 329 327 328 330 330 330 329 329 333 334 334 330 324 320 316 314 312 309 306 304 300 299 295 293 292 292 293 293 295 298 297 298 299 306 310 310 311 311
322 325 325 328 327 328 328 327 327 327 327 328 328 331 332 333 331 325 321 317 313 310 306 302 300 299 298 295 293 291 290 290 290 293 292 294 295 295 296 304 305 307 308
319 323 325 326 326 326 327 324 323 323 325 327 327 328 331 331 331 327 322 315 312 309 305 302 299 298 297 295 293 291 289 289 289 288 288 290 290 292 292 293 293 297 304
315 318 323 323 322 322 321 319 317 318 319 322 328 327 329 331 330 327 322 315 312 308 304 301 299 295 295 294 291 290 288 288 287 287 287 286 287 287 288 288 290 292 294
311 314 317 321 320 320 320 318 315 313 313 316 318 319 323 327 328 326 320 315 312 308 305 301 298 295 293 293 290 289 284 284 285 287 287 287 286 287 287 287 288 289 289
307 309 312 316 318 318 316 313 311 310 310 310 311 316 317 319 321 323 320 316 313 311 305 301 298 297 292 292 292 293 286 284 283 285 285 286 285 285 284 285 286 287 288
305 307 310 310 309 311 311 311 310 309 307 307 308 310 314 315 316 317 318 316 314 311 307 301 299 298 294 292 293 295 295 288 283 278 282 284 285 285 283 284 284 285 287
305 304 306 308 308 308 310 310 310 307 307 306 306 306 311 311 313 314 315 314 312 311 307 302 299 298 296 294 294 294 292 292 289 283 278 280 282 283 284 284 283 283 285
304 305 305 305 306 307 308 310 308 308 305 304 305 307 309 308 309 308 309 311 310 309 306 302 300 299 298 297 296 295 294 292 287 286 280 278 279 281 283 283 283 284 284

GFSSE_sfc_thetae_063.txt.gz
Theta_e
332 336 346 344 346 346 348 345 344 345 345 342 341 342 342 344 344 347 347 346 347 344 343 340 340 339 340 340 339 339 338 338 339 340 341 339 340 340 338 337 337 332 338
334 339 344 347 346 346 347 346 345 345 345 341 341 339 341 342 343 346 346 347 343 341 339 339 339 337 338 338 339 339 338 338 338 338 338 339 339 337 337 336 336 333 338
336 339 343 346 349 347 347 347 345 344 341 341 340 340 340 341 343 345 344 345 341 339 339 338 336 336 337 338 341 341 338 338 337 336 335 328 329 336 336 338 338 336 336
337 339 342 345 348 348 346 346 344 343 339 338 338 338 339 340 343 345 343 344 339 338 337 336 335 336 337 338 340 340 338 336 335 333 327 327 332 339 338 336 338 340 340
337 338 341 345 348 348 347 346 345 343 341 338 337 338 339 340 343 343 341 340 337 336 336 336 336 337 336 336 337 339 337 335 333 328 325 326 332 337 339 338 336 335 336
337 339 342 346 348 347 347 347 345 344 341 338 337 336 338 339 341 340 338 336 335 335 335 335 335 335 335 337 340 339 337 336 333 330 332 334 331 338 338 335 333 332 331
339 340 343 345 347 347 347 347 346 345 342 339 336 336 336 337 339 338 336 334 333 333 333 333 334 334 333 335 339 336 334 333 328 328 330 329 330 334 334 332 330 329 328
338 341 342 340 343 345 345 345 345 344 343 340 336 335 335 336 336 335 333 332 332 332 332 332 333 332 333 333 333 331 330 328 324 325 327 326 331 331 332 331 329 328 327
340 341 340 341 340 338 341 341 343 343 342 340 338 337 336 336 336 333 332 330 331 331 331 331 331 331 332 332 332 330 328 325 317 319 324 326 331 329 328 327 326 325 325
336 338 337 338 339 340 339 335 337 339 339 339 336 333 331 331 332 330 328 330 329 330 330 330 329 329 330 330 329 328 326 326 321 321 322 328 329 327 327 326 324 323 323
335 335 336 336 336 337 337 334 333 334 334 333 330 327 324 323 323 322 325 328 329 329 329 328 327 326 324 326 326 324 322 319 319 320 323 328 328 326 325 324 323 322 321
331 334 337 336 335 335 339 334 335 336 335 331 328 325 323 322 322 322 320 324 327 327 327 326 325 322 317 313 315 319 317 314 313 318 326 328 326 325 323 322 322 320 319
326 331 336 336 336 334 335 336 336 335 334 331 327 325 324 322 320 319 317 315 315 316 317 318 314 312 312 311 312 312 313 310 309 314 322 327 326 324 322 321 321 319 318
327 327 332 336 335 336 337 336 337 335 334 332 330 327 326 320 318 315 315 313 311 310 308 310 309 309 309 309 310 311 310 309 311 312 315 323 325 322 321 321 320 318 317
325 327 328 331 331 335 336 336 336 335 335 334 333 330 328 323 319 315 313 312 310 310 310 309 307 307 306 306 307 308 307 309 309 308 310 317 322 320 320 319 319 317 316
327 328 328 330 332 332 336 336 334 334 336 334 333 331 333 326 321 316 315 312 311 313 314 312 308 305 306 304 303 304 304 307 306 304 303 306 318 319 318 319 317 317 316
325 330 329 331 332 332 331 334 334 331 333 333 333 332 333 328 327 319 316 314 314 314 312 311 307 304 301 301 298 299 299 301 305 303 300 300 302 312 317 316 315 315 314
324 327 330 332 331 332 329 333 333 330 328 333 334 334 333 332 328 321 316 314 313 312 310 309 304 301 298 295 295 294 293 294 295 298 297 297 297 298 307 312 312 312 312
323 324 328 329 329 330 328 328 328 328 328 328 328 332 332 332 329 324 318 313 313 311 309 306 302 300 296 294 293 292 290 289 290 293 293 295 296 295 295 304 307 310 309
318 323 327 328 327 328 329 323 322 323 324 325 327 327 331 332 329 326 320 313 312 310 305 304 301 299 296 294 292 289 290 289 288 288 288 291 293 293 291 292 293 298 307
314 319 322 325 325 326 326 325 320 322 319 320 322 323 328 330 328 326 321 314 312 308 304 303 300 297 294 293 290 287 289 289 286 286 286 286 287 288 288 291 290 291 294
313 317 321 323 323 325 326 326 325 317 314 318 319 320 322 327 328 326 321 315 312 309 305 301 300 296 294 293 290 288 285 286 285 286 285 285 284 285 286 287 287 288 289
307 313 318 321 322 324 322 315 310 311 309 311 312 318 317 319 326 326 322 317 313 310 305 301 299 298 293 293 292 292 286 285 282 286 286 284 283 283 283 284 286 288 288
306 310 314 317 318 320 316 316 314 316 313 315 314 312 313 314 316 323 321 317 314 311 307 303 300 300 297 292 292 293 295 289 285 281 284 283 283 283 282 282 283 285 286
301 304 306 308 310 316 315 314 313 312 307 304 305 307 307 308 311 314 318 317 314 313 310 305 301 301 299 296 294 293 293 290 289 284 280 282 283 282 283 283 282 282 285
300 301 303 305 305 306 309 307 309 309 304 303 302 304 304 305 306 308 312 315 315 313 311 307 303 301 300 299 297 299 295 291 290 284 282 281 282 282 282 282 282 282 282

GFSSE_sfc_thetae_069.txt.gz
Theta_e
327 335 345 346 347 344 343 344 342 344 343 342 344 346 347 347 346 344 344 340 340 339 340 342 339 339 339 341 341 341 341 341 340 340 340 339 339 338 337 339 337 331 337
330 337 344 346 346 344 345 344 345 344 343 342 344 345 347 346 345 342 340 339 338 338 338 339 339 340 337 336 337 337 337 336 338 338 338 339 335 337 338 337 335 332 336
332 339 342 346 347 346 347 346 345 344 341 341 343 345 346 345 343 340 339 338 337 337 338 338 339 339 339 337 335 336 335 335 336 335 334 330 331 340 341 341 341 342 342
335 340 341 344 348 346 346 345 343 341 340 341 342 345 346 344 341 340 338 337 336 337 338 339 339 339 337 336 335 335 334 334 333 334 332 334 336 341 341 340 339 338 337
335 340 341 345 347 345 344 343 343 342 339 340 341 344 345 343 340 338 336 336 335 336 338 338 338 338 336 335 335 334 335 335 335 333 331 332 331 335 337 335 334 334 333
335 339 341 346 348 345 344 341 339 339 339 339 340 343 344 341 339 337 335 335 335 336 335 336 336 336 336 335 335 336 336 336 331 327 329 331 328 335 334 332 331 332 332
333 337 341 345 346 346 345 342 341 340 338 339 339 341 342 340 337 335 335 334 334 335 334 336 337 338 337 336 336 336 334 332 326 324 323 325 327 333 332 332 330 329 328
334 337 340 338 342 343 344 344 343 341 340 339 339 340 340 337 336 334 334 333 333 334 333 336 337 337 337 336 334 332 331 329 325 324 322 327 331 332 331 327 326 326 326
336 338 337 339 339 337 339 340 341 340 339 339 339 339 338 337 335 334 333 332 332 333 332 335 334 334 334 332 330 329 327 326 323 322 322 325 329 329 328 326 325 324 324
335 336 335 336 338 338 337 333 335 336 336 336 336 334 332 332 332 332 330 332 331 332 332 333 332 332 331 330 328 326 325 324 319 319 318 324 328 328 325 324 324 323 322
333 333 334 335 335 336 335 332 331 332 332 331 329 327 324 323 322 322 325 331 331 332 331 332 331 329 327 325 324 322 320 318 319 318 320 327 326 326 323 322 322 321 321
329 329 333 333 334 334 337 332 332 331 329 326 324 322 321 319 318 320 322 326 329 329 330 328 327 323 317 313 314 317 314 316 319 320 322 326 325 324 322 321 320 320 319
327 330 331 332 333 334 334 334 333 330 326 324 322 320 319 318 317 316 318 319 319 320 317 316 314 312 312 311 310 311 313 314 317 319 323 325 324 322 321 320 319 318 318
324 328 330 332 332 333 332 334 335 333 327 323 321 320 318 316 314 314 314 315 315 313 311 309 309 309 310 310 310 309 311 315 314 317 320 322 323 322 321 319 318 317 317
323 326 329 331 331 333 331 333 333 332 331 325 321 321 319 316 314 313 312 313 312 311 309 307 307 307 308 309 308 308 308 312 312 313 316 318 322 322 320 319 318 317 316
324 325 328 330 331 332 332 332 332 332 332 328 323 322 320 318 315 313 311 311 312 311 308 307 306 305 306 307 305 306 306 307 310 310 312 316 321 322 321 319 317 317 315
324 326 326 329 330 330 331 331 332 332 332 330 327 324 321 319 316 314 313 313 313 311 311 309 308 305 303 306 305 304 304 303 303 306 307 309 315 318 320 319 317 316 315
322 324 326 329 328 330 330 331 331 332 333 332 331 327 325 323 321 317 315 314 312 311 311 308 306 304 303 301 301 302 302 302 302 302 303 304 305 306 311 320 317 316 315
322 323 325 326 327 328 329 330 330 328 330 331 333 331 326 326 323 319 316 315 312 311 311 307 304 303 301 298 298 297 296 298 299 299 300 300 303 302 301 309 315 316 315
319 322 326 326 328 328 329 328 326 326 327 329 330 331 330 328 325 320 318 315 313 311 310 307 304 300 299 297 295 293 292 292 293 293 297 299 298 300 299 297 298 303 314
313 317 320 324 326 328 328 326 325 326 325 325 327 328 331 330 326 322 321 317 314 311 310 307 302 299 294 293 291 290 288 289 289 290 292 295 296 294 296 295 295 296 302
309 316 319 322 324 326 328 329 329 328 326 324 321 323 328 330 330 326 323 317 314 312 310 306 301 296 294 294 293 290 288 287 287 289 288 289 293 293 293 294 293 294 295
298 308 316 320 323 326 327 322 313 312 310 312 313 318 320 327 329 328 325 319 315 314 310 306 303 302 295 293 293 294 286 289 283 285 286 287 289 288 291 292 290 292 294
295 301 310 316 321 323 325 321 320 322 321 321 322 315 316 319 324 327 326 322 318 315 313 307 306 305 303 294 294 293 293 291 288 286 283 286 286 287 288 289 291 291 292
295 297 306 312 317 318 321 322 320 319 318 313 310 311 312 312 320 325 326 322 319 317 315 310 306 304 304 302 296 293 294 291 290 287 289 282 285 285 287 289 290 290 291
296 298 303 309 311 313 315 315 317 317 312 306 305 306 307 308 310 316 321 322 320 317 314 311 307 305 304 304 300 301 297 294 292 287 286 284 282 286 286 288 288 289 290

GFSSE_sfc_thetae_072.txt.gz
Theta_e
327 336 346 347 346 345 344 342 343 345 345 345 347 348 347 346 343 342 343 339 340 342 339 339 340 342 343 343 342 342 341 340 340 340 339 338 338 338 337 337 336 331 337
331 338 345 347 344 344 345 344 344 344 344 345 347 348 347 344 342 341 339 340 340 340 339 341 338 338 338 339 339 337 337 337 337 338 337 339 340 337 337 340 339 337 341
333 339 342 346 347 346 346 346 344 344 343 344 347 347 345 343 341 340 338 338 339 339 338 339 340 338 336 336 335 335 335 335 337 336 336 335 336 342 343 341 342 340 340
336 340 341 344 347 347 346 346 344 343 342 344 347 346 344 342 340 338 337 337 339 338 338 340 340 338 336 335 334 335 334 335 337 337 333 333 335 340 340 338 337 337 337
336 339 341 344 347 346 345 344 343 342 341 344 346 345 343 341 339 337 336 336 338 338 336 339 339 336 335 335 335 335 335 336 335 332 330 330 331 335 337 335 334 335 335
335 339 341 346 345 343 343 341 340 340 340 342 344 344 342 339 337 336 335 335 338 335 335 336 337 336 335 335 335 337 336 333 329 326 325 330 329 335 334 332 333 331 331
334 337 340 345 344 344 343 340 340 340 340 340 343 343 341 337 335 335 335 335 335 335 334 337 337 336 336 336 337 336 333 330 324 322 323 325 328 333 333 330 329 329 328
334 337 339 338 341 342 343 342 341 341 342 341 342 341 339 336 335 335 334 334 334 333 335 338 338 337 337 336 335 333 330 328 323 322 323 328 332 331 329 329 328 327 326
334 336 337 339 338 336 339 339 339 340 340 340 341 340 338 337 335 334 334 333 333 332 334 336 336 336 334 333 332 330 328 327 321 320 322 324 330 330 329 327 325 324 323
333 335 335 335 337 336 336 333 334 336 337 337 337 334 332 332 333 332 330 333 333 332 333 333 334 333 332 330 329 327 326 323 316 317 320 325 329 327 326 324 323 323 322
331 332 333 334 334 334 334 330 330 331 332 331 330 327 324 323 323 323 326 331 334 331 331 332 332 330 327 326 326 325 322 317 317 317 320 327 326 325 324 322 322 321 321
329 330 332 333 333 333 335 331 330 329 327 326 324 323 321 319 319 321 322 327 330 330 331 331 328 323 317 313 315 319 316 316 316 317 322 327 324 323 321 321 320 320 319
330 330 330 333 334 335 335 333 329 327 324 322 321 320 318 316 316 318 319 319 319 318 317 319 314 313 312 311 311 313 314 315 315 319 323 326 323 323 322 319 318 318 317
324 328 328 330 333 334 334 333 334 330 323 321 320 319 316 314 314 314 315 315 315 313 310 309 309 310 310 310 311 311 313 316 316 316 320 322 324 322 321 320 318 317 316
323 325 326 329 332 333 332 333 333 332 327 322 319 319 317 314 313 313 313 313 313 311 309 307 307 308 308 308 309 310 311 314 316 316 318 318 323 323 321 320 318 317 316
324 324 326 328 330 332 332 332 331 332 331 324 320 319 317 316 313 312 311 312 311 310 309 308 307 307 307 307 306 308 308 310 312 312 313 315 322 323 322 320 319 318 317
322 324 325 327 328 330 331 331 331 331 331 329 323 319 318 317 314 312 311 313 312 313 311 310 308 307 306 307 306 307 306 306 308 310 311 311 316 320 322 321 320 319 318
320 322 325 328 328 328 329 330 331 331 330 330 328 322 321 321 319 316 314 314 314 312 311 309 307 305 305 305 305 304 304 304 305 305 306 306 308 311 319 322 320 319 318
320 320 323 326 326 327 328 328 329 329 330 330 329 326 324 322 321 318 316 315 313 311 310 308 305 305 303 301 301 300 300 301 302 301 302 302 302 304 306 315 319 318 318
317 320 323 325 326 327 328 326 326 324 329 329 330 329 325 324 323 320 318 315 313 311 310 308 305 301 302 300 297 295 294 294 296 297 299 300 301 301 303 304 304 307 316
313 316 320 322 324 326 327 327 327 326 327 326 326 328 329 325 325 321 320 316 313 311 310 309 304 300 296 295 294 294 292 291 291 293 296 295 296 298 297 298 302 301 304
307 314 317 322 323 326 327 327 325 327 327 326 325 326 329 329 328 323 321 317 315 313 310 308 304 299 297 296 296 291 294 294 291 291 290 293 296 294 294 295 296 299 300
296 305 314 318 322 325 327 320 315 316 315 317 317 322 325 329 329 326 324 321 316 315 312 309 307 305 299 294 295 298 289 291 287 289 290 292 292 294 295 294 293 296 297
293 295 306 312 316 321 322 321 321 324 323 323 322 317 317 321 327 328 326 323 319 317 316 311 309 307 306 297 295 295 295 294 292 292 286 286 290 290 293 294 293 295 295
295 293 298 306 312 316 321 322 320 318 318 314 312 312 312 313 319 324 326 324 320 318 317 314 309 306 307 304 298 294 296 294 291 289 296 292 285 286 291 291 293 293 294
296 298 301 305 308 313 316 316 316 317 314 309 307 308 309 308 310 313 321 324 322 319 318 316 311 308 307 307 304 303 299 294 293 292 290 294 292 288 287 289 290 293 294

GFSSE_sfc_thetae_075.txt.gz
Theta_e
334 342 346 348 347 345 344 344 345 347 348 347 348 347 345 343 342 343 344 345 343 341 340 342 342 344 344 344 343 342 341 340 341 340 339 340 339 338 338 338 338 335 339
338 343 345 348 346 345 345 345 346 347 347 348 348 347 344 343 341 339 342 342 341 342 339 339 340 340 340 339 338 338 337 339 339 340 340 340 341 340 341 343 343 341 341
339 343 345 346 347 347 346 345 345 346 346 348 348 346 343 341 340 339 340 342 340 338 340 339 337 337 336 336 336 335 336 336 338 340 340 340 340 342 341 341 341 340 340
340 342 343 344 347 347 347 345 345 345 346 348 347 345 343 340 339 338 339 342 340 340 342 339 337 335 335 334 334 334 335 338 337 336 335 334 336 339 339 337 338 338 337
340 342 343 345 348 347 346 345 344 344 345 348 346 344 341 339 338 337 338 341 338 339 340 338 336 334 335 336 335 335 338 336 334 334 334 335 335 335 337 336 336 335 334
339 342 343 346 346 345 344 342 343 342 344 346 345 342 340 337 337 336 338 337 336 337 338 336 335 335 336 335 336 336 335 333 331 331 331 333 333 335 334 332 332 331 330
339 341 345 343 344 344 343 342 342 342 343 345 343 341 339 336 336 335 336 336 334 336 336 337 336 336 337 337 336 335 332 330 328 329 330 330 332 333 332 330 330 329 329
338 341 344 338 340 341 342 342 342 342 343 344 343 340 337 336 335 335 335 334 333 334 338 337 337 337 337 336 334 332 330 328 328 329 330 329 332 331 331 329 328 327 325
338 340 343 343 339 336 338 338 340 341 341 343 342 340 338 337 336 335 336 335 333 335 338 338 337 336 336 335 332 330 328 326 327 327 327 327 331 330 329 327 326 324 324
337 338 340 342 341 341 340 332 334 336 338 338 337 334 332 333 333 332 331 334 333 334 333 336 334 334 333 332 330 327 325 324 326 326 328 327 328 327 326 325 323 323 322
334 336 338 339 340 339 339 333 330 331 332 332 331 327 327 331 330 329 327 332 333 332 333 334 332 330 329 328 327 324 322 324 326 326 326 327 327 326 325 323 321 321 320
329 333 336 337 338 338 337 335 335 333 334 333 331 329 328 327 327 327 325 327 330 329 332 331 328 323 321 324 326 322 323 324 324 325 324 327 325 324 323 321 320 319 319
329 331 333 335 336 337 336 335 334 332 331 330 329 327 324 323 325 327 328 328 329 322 328 325 321 321 320 321 323 323 323 323 324 325 324 325 324 323 321 319 318 317 317
328 329 331 333 333 335 336 334 334 331 329 327 327 325 323 321 323 324 325 325 325 323 321 320 320 319 318 318 321 322 322 323 324 324 323 322 325 322 322 320 318 317 316
327 328 329 332 333 334 334 333 334 332 329 327 325 324 322 320 320 322 323 323 323 320 318 317 317 318 317 317 318 320 321 322 323 323 324 318 324 325 323 322 320 318 317
328 328 330 331 332 333 333 333 333 333 332 327 325 324 322 321 319 320 320 321 320 320 316 316 316 316 316 316 316 317 319 320 321 322 322 322 322 325 323 323 322 320 318
326 328 328 331 331 332 331 332 332 333 332 330 326 324 322 321 319 319 318 319 318 318 316 314 312 312 312 311 312 312 314 315 317 317 318 319 322 321 324 322 323 322 321
324 325 328 330 330 331 331 331 331 331 332 332 328 325 323 322 319 317 316 317 317 316 315 313 311 309 309 308 309 308 308 309 312 313 312 314 318 320 321 324 323 322 321
323 325 326 329 329 330 331 331 331 331 330 331 330 326 324 323 321 318 317 317 316 314 313 312 311 309 308 310 309 306 308 305 306 305 307 308 310 314 317 319 321 320 321
321 323 326 327 329 330 330 330 329 329 329 330 330 329 326 325 322 322 319 317 315 313 313 311 309 308 308 309 305 301 304 304 301 305 305 303 305 306 311 310 315 319 318
317 320 323 324 327 328 328 327 326 325 327 328 328 329 327 326 323 321 320 319 315 313 313 313 311 304 304 302 298 302 302 302 301 302 304 304 304 303 303 304 306 309 313
309 317 320 323 325 327 329 329 329 329 329 329 327 327 329 328 325 322 321 319 317 317 312 310 307 303 305 300 302 298 301 304 300 301 302 300 304 304 304 304 302 304 306
297 307 316 321 324 326 328 327 320 322 321 322 323 326 327 329 329 326 323 323 319 317 316 312 310 309 305 298 301 303 294 295 297 298 298 299 299 301 303 303 303 301 302
297 296 307 315 319 324 326 325 325 325 324 326 326 326 326 326 329 328 326 323 320 318 317 315 312 311 309 302 298 301 301 299 298 296 295 292 296 295 298 300 301 299 300
299 299 298 307 314 319 324 326 324 325 325 321 320 320 320 319 324 327 327 325 322 320 319 318 312 310 310 310 303 298 299 300 295 293 298 301 291 291 293 296 300 300 298
299 302 305 307 311 316 320 320 321 321 319 316 315 316 316 316 316 318 322 324 324 321 319 318 315 311 311 309 310 306 302 297 297 296 294 297 299 302 294 292 293 297 300

GFSSE_sfc_thetae_078.txt.gz
Theta_e
337 342 347 348 345 345 345 345 346 348 348 348 347 345 343 341 341 344 344 344 341 343 344 344 345 345 344 343 342 341 340 340 342 340 341 340 339 339 340 342 341 339 342
340 343 346 348 346 345 344 345 347 348 348 348 346 344 343 341 340 341 343 343 340 340 341 342 341 341 340 339 339 339 337 338 340 341 341 342 344 344 343 343 343 340 341
340 343 347 346 347 345 345 345 347 347 348 347 346 344 341 340 340 340 340 342 342 339 338 338 338 338 336 336 337 336 340 341 340 339 341 339 338 340 340 340 341 340 339
341 344 343 344 347 347 346 345 345 345 347 346 345 343 340 339 339 339 340 341 342 341 339 336 337 334 334 335 335 337 340 338 338 337 335 336 336 339 338 338 338 337 336
341 344 343 345 347 347 346 345 345 346 348 346 344 341 339 338 338 339 340 338 341 340 338 338 334 337 335 334 338 338 337 335 336 334 332 334 334 335 337 335 334 334 333
342 344 344 346 347 346 345 343 343 346 347 345 343 340 338 338 337 338 340 338 338 339 336 335 336 336 336 336 337 336 334 335 333 331 331 334 333 334 333 333 331 330 330
342 344 344 344 344 344 344 342 343 345 346 344 342 339 338 337 336 337 337 336 336 337 337 335 336 337 337 336 335 334 332 332 330 330 330 332 331 332 332 330 330 329 328
341 344 343 337 340 342 342 343 343 344 346 344 341 338 337 336 336 336 335 334 335 338 337 336 336 337 336 335 333 332 330 329 328 329 330 330 331 331 330 328 327 326 325
341 343 343 340 337 335 338 339 341 342 344 343 342 340 338 338 337 336 336 334 337 339 338 338 337 337 335 334 332 330 328 328 328 328 326 328 331 329 327 326 324 325 323
341 342 342 342 338 339 339 332 335 337 339 339 337 334 332 333 333 332 332 334 333 336 337 335 335 335 334 332 330 327 325 327 327 327 327 327 328 327 325 324 323 322 322
338 340 342 341 340 339 339 334 331 332 333 332 331 327 328 333 332 330 329 332 333 331 334 334 332 331 330 328 326 323 324 328 327 326 325 327 326 326 323 321 321 320 320
334 337 339 341 341 340 337 338 337 337 337 337 336 334 332 331 331 329 327 328 329 330 333 331 327 324 326 330 328 323 329 328 327 326 325 327 325 324 321 320 320 318 318
334 336 337 339 340 340 338 338 337 336 337 336 336 333 331 330 330 330 331 331 330 325 330 329 326 328 326 329 329 328 327 327 326 326 323 326 325 324 322 320 318 317 317
333 334 335 337 337 338 338 338 337 335 335 334 334 332 330 328 329 329 329 330 330 329 329 327 326 326 325 325 326 326 326 326 326 326 324 322 326 325 324 322 320 319 318
332 334 333 335 335 336 336 335 336 337 334 334 333 332 330 327 327 328 328 328 328 327 326 325 325 325 324 324 325 326 325 326 325 325 326 318 323 325 325 324 323 321 319
333 333 333 333 335 336 335 335 334 336 336 334 332 331 330 327 327 327 327 326 326 325 324 324 323 323 323 324 324 325 326 326 326 325 325 325 321 326 325 325 324 323 322
334 335 334 334 336 335 334 334 335 335 335 334 333 331 330 328 326 325 326 326 325 325 324 322 321 321 321 321 321 322 323 325 325 324 325 325 324 320 325 325 325 324 324
334 335 336 336 334 334 334 334 334 334 334 333 333 333 330 328 327 324 322 323 324 321 323 321 319 317 319 317 318 319 318 317 320 321 322 322 323 323 322 325 326 325 324
333 334 334 336 335 332 333 333 334 333 333 333 333 332 332 330 328 324 323 321 321 321 318 318 316 316 315 316 315 317 318 317 319 318 319 319 321 320 321 321 321 321 324
331 333 334 334 336 336 333 332 332 332 332 333 332 332 330 330 330 327 326 325 320 319 317 315 315 313 316 313 311 312 315 315 318 317 318 318 320 319 318 319 319 318 318
326 329 331 332 334 335 331 328 328 327 329 330 331 332 331 329 331 328 325 323 321 320 320 318 315 314 312 313 310 310 313 315 314 314 315 316 317 317 317 315 318 317 320
313 323 327 330 332 334 334 331 330 329 329 330 330 331 331 330 330 328 323 322 321 319 319 319 317 315 311 310 309 306 305 313 310 313 313 313 314 313 311 316 315 312 316
305 312 320 326 329 332 333 332 329 327 326 329 329 328 329 329 328 329 327 324 322 320 319 319 316 313 316 313 306 306 298 299 310 314 310 311 310 309 310 310 310 313 309
306 304 312 319 325 329 331 329 326 325 324 327 328 329 329 328 328 328 327 326 326 323 321 320 316 316 314 312 307 304 310 306 303 304 310 305 305 305 308 306 306 308 308
309 307 305 313 319 324 328 329 326 324 326 329 331 330 330 331 330 329 328 326 324 323 321 320 317 315 315 314 307 306 304 304 303 299 301 307 305 303 302 304 302 307 307
313 315 312 312 316 321 325 327 327 324 324 324 326 327 328 328 327 326 325 325 325 323 321 320 320 316 314 313 313 310 304 301 299 297 296 301 302 308 305 302 304 303 305

GFSSE_sfc_thetae_081.txt.gz
Theta_e
338 342 347 346 345 346 347 346 347 348 348 347 345 343 342 343 343 345 344 341 343 344 345 346 345 344 342 341 340 341 341 340 342 341 343 344 344 344 342 344 342 339 342
339 342 346 348 345 345 345 346 347 348 348 346 345 342 341 341 341 340 342 342 340 342 342 343 341 340 339 338 340 340 341 342 343 342 343 343 343 343 343 343 342 338 339
340 342 344 346 346 345 345 347 347 348 347 346 345 342 340 341 340 340 340 343 341 339 339 340 338 337 337 337 340 341 341 340 340 341 340 337 337 341 341 340 339 338 337
339 340 339 344 346 344 344 346 347 347 347 345 343 340 339 340 340 339 342 344 340 338 338 336 336 335 336 337 340 340 339 337 338 338 335 334 333 338 338 338 337 336 335
338 339 342 345 346 345 345 346 346 346 347 344 342 340 339 340 340 340 341 342 341 338 336 337 336 335 336 339 338 337 336 338 337 333 333 333 333 335 335 334 333 332 332
340 340 343 346 346 344 345 345 347 346 345 343 341 339 338 339 339 339 339 340 340 336 335 337 335 336 337 337 336 335 337 336 334 330 331 332 331 334 332 331 330 330 330
340 339 343 345 345 345 344 344 347 347 345 342 339 338 337 338 338 338 337 337 339 336 336 336 338 338 337 336 335 333 333 332 329 330 329 328 330 332 332 330 328 327 325
341 341 341 338 340 342 343 344 346 347 345 343 339 338 337 337 338 335 334 335 339 336 336 336 338 337 336 334 333 331 331 330 327 328 328 327 331 331 330 328 326 324 325
342 340 339 338 337 336 338 340 341 344 343 342 340 339 339 338 338 337 336 337 338 339 338 338 337 337 335 333 331 329 328 327 326 326 327 328 331 329 327 324 324 324 324
339 340 338 337 336 337 338 334 336 339 340 339 336 334 332 333 333 333 332 335 337 338 336 336 336 335 334 331 329 327 327 326 326 326 326 327 329 327 325 323 322 321 322
336 339 340 338 336 337 337 334 332 333 333 331 330 328 328 330 330 331 329 332 333 335 335 333 333 332 330 328 326 325 324 326 325 325 325 327 327 325 323 321 320 320 319
334 335 338 339 337 337 335 336 337 337 337 336 335 332 332 331 330 330 327 327 329 329 333 330 327 327 326 329 327 323 326 326 325 324 324 328 325 324 322 320 320 318 318
335 336 337 338 339 336 336 336 336 336 337 336 336 333 331 330 329 329 331 329 329 324 329 328 325 327 328 327 327 326 326 326 325 325 323 327 326 325 323 322 320 319 318
334 335 337 338 339 338 337 337 336 335 336 335 335 333 331 329 330 330 330 330 331 329 329 328 327 326 326 325 325 326 326 326 325 325 323 323 327 325 325 324 322 321 320
332 335 337 338 337 337 337 338 337 336 335 335 334 333 331 329 329 329 329 329 329 328 327 326 325 325 324 324 325 326 325 326 325 325 326 318 324 327 326 326 325 324 322
332 334 336 337 338 338 335 336 337 338 336 335 334 333 332 330 329 328 329 328 328 327 325 325 324 324 324 325 324 325 325 326 326 326 326 324 322 325 326 327 327 326 325
332 334 335 335 335 336 335 334 335 335 336 335 334 334 332 330 328 327 328 327 327 327 326 324 323 323 322 323 323 324 324 325 325 325 326 326 325 320 324 326 327 327 327
333 334 336 334 333 336 334 334 334 335 335 334 335 335 333 331 329 328 327 327 328 326 325 323 322 320 320 320 320 321 321 321 322 323 324 324 325 324 322 324 326 326 327
332 333 335 337 336 334 335 334 334 334 334 334 334 333 334 332 330 329 326 325 326 325 324 324 321 320 318 319 318 319 320 320 320 320 321 322 323 322 323 323 321 322 326
331 333 334 336 337 335 333 333 333 333 334 334 333 333 332 332 332 330 328 328 326 322 320 319 318 317 315 315 315 314 316 318 320 319 320 320 320 321 322 321 322 320 319
329 330 332 333 335 337 331 330 329 329 331 332 332 333 332 331 330 330 331 328 325 320 319 320 317 315 316 318 312 313 316 316 317 317 319 318 318 319 320 320 320 319 319
317 326 329 331 333 335 336 331 330 330 330 331 332 332 332 332 330 329 329 326 323 321 320 319 317 316 318 319 311 305 304 310 319 319 318 316 316 316 317 318 317 316 318
308 314 323 328 331 333 335 333 330 328 329 328 328 329 330 331 330 329 328 326 325 323 321 320 319 317 314 317 310 309 300 302 311 318 316 315 315 314 315 315 313 314 315
309 309 314 322 327 330 333 332 328 326 325 327 328 329 329 330 330 330 330 328 325 323 320 320 321 318 316 312 309 310 310 312 306 308 317 315 312 311 312 310 310 310 310
312 308 309 316 322 327 330 331 327 325 325 327 327 327 328 328 328 329 329 328 326 326 323 321 320 317 316 314 313 310 306 306 306 302 302 308 311 306 307 308 308 308 309
316 311 310 314 317 322 325 327 327 324 324 324 323 323 324 326 326 325 326 326 324 323 322 321 320 319 317 315 315 314 306 305 302 301 298 303 304 308 311 308 306 306 306

GFSSE_sfc_thetae_084.txt.gz
Theta_e
335 342 348 346 347 348 348 347 349 350 348 345 343 343 343 343 343 343 344 345 345 346 346 345 344 342 341 342 342 342 341 341 343 344 344 345 344 344 343 342 341 335 340
338 343 346 347 346 346 347 347 349 349 348 345 342 342 342 341 342 340 341 343 342 343 342 340 340 340 342 341 341 342 343 342 343 342 341 342 343 343 342 341 340 335 338
338 343 344 346 347 346 347 348 348 349 347 344 341 341 341 341 340 342 341 342 340 339 338 338 338 339 340 342 342 341 340 341 341 340 339 333 335 340 340 338 338 337 338
338 339 341 344 346 346 348 348 347 349 347 343 340 340 341 340 342 344 341 342 338 337 337 336 338 338 340 341 340 339 338 339 339 337 332 332 332 336 337 336 336 335 335
334 338 341 343 345 345 347 347 346 348 346 342 340 340 340 338 339 343 341 339 338 337 338 337 336 339 339 338 337 337 338 339 337 332 330 328 328 333 334 333 332 333 331
334 339 343 345 346 345 347 348 346 347 345 342 340 339 340 339 337 339 341 340 337 337 337 336 337 339 338 337 335 335 337 336 332 327 328 330 329 332 331 329 328 329 329
333 340 342 344 344 345 346 348 346 347 343 340 339 338 339 338 336 336 339 338 336 337 337 339 338 337 336 335 333 333 333 332 326 324 326 327 326 332 332 329 326 326 327
335 339 341 337 340 342 344 345 345 345 343 341 339 337 338 338 336 336 336 339 337 337 337 338 337 336 335 333 332 331 330 329 325 324 323 325 331 330 327 326 324 325 324
338 336 336 336 336 336 338 340 343 343 342 341 340 339 338 338 338 336 338 339 338 338 338 337 336 336 334 332 330 329 327 327 320 324 326 324 331 328 325 324 323 324 323
337 335 332 332 334 334 335 333 335 338 338 338 335 333 331 332 332 332 331 337 338 337 336 336 336 335 333 330 328 326 325 326 319 322 322 324 329 326 324 323 322 322 322
336 337 334 330 331 333 335 330 331 332 332 331 330 328 326 327 327 328 328 331 335 335 334 333 333 332 330 328 327 325 324 321 319 320 320 327 327 325 323 321 320 320 319
333 334 337 336 331 331 334 333 333 333 331 331 329 326 328 325 325 327 323 326 327 330 332 330 327 328 326 323 320 322 319 321 320 319 320 327 326 325 322 321 321 319 319
331 335 336 336 334 332 331 331 331 331 331 331 329 327 326 325 323 325 323 322 321 321 323 325 321 321 322 321 321 320 320 320 319 319 321 327 327 326 324 323 322 321 320
330 331 334 336 335 334 332 330 331 330 331 330 330 327 324 323 322 323 324 323 322 322 322 322 320 320 320 320 320 320 320 319 319 319 318 322 328 325 326 325 324 323 321
328 330 331 334 335 334 334 332 331 330 330 330 329 328 326 323 323 323 323 323 322 322 321 319 319 319 319 319 319 320 320 320 320 319 318 317 323 326 326 328 327 326 325
328 329 332 333 334 335 333 332 331 332 331 329 328 328 327 324 323 323 322 322 321 320 319 319 318 317 317 318 319 319 320 320 320 320 320 317 321 325 326 327 329 328 328
326 329 331 332 334 334 332 333 333 331 333 331 329 329 327 326 323 321 322 321 321 321 319 317 317 317 316 317 317 318 318 319 319 320 320 320 319 320 324 327 327 329 330
325 327 331 332 331 333 332 332 333 333 331 332 331 331 328 327 325 322 320 321 321 320 319 317 316 314 314 313 313 314 314 315 316 317 318 318 318 319 320 325 327 327 328
325 327 329 330 330 332 332 332 332 332 332 332 332 331 331 328 327 323 321 319 319 319 317 317 316 314 312 312 315 313 313 313 314 316 315 316 317 319 318 320 321 322 326
325 327 329 332 331 332 332 331 331 331 331 332 332 331 331 330 329 325 323 321 320 317 316 315 316 315 314 313 313 312 310 312 311 313 313 315 315 316 317 318 317 316 319
323 325 327 329 332 331 330 329 328 328 329 329 330 331 330 330 329 328 326 324 323 318 318 317 316 313 312 313 311 307 310 311 312 312 313 314 314 314 314 315 316 317 318
316 322 324 327 329 331 329 329 329 328 329 330 330 330 330 329 329 327 327 326 322 319 318 317 315 313 313 313 310 305 304 306 312 314 313 312 312 311 313 313 314 316 314
301 306 321 324 326 330 331 328 327 327 326 326 326 327 328 330 329 327 326 326 323 320 319 319 316 315 314 313 312 309 303 301 306 313 311 311 312 311 312 312 312 313 314
303 302 304 318 323 326 329 327 326 324 323 325 326 327 327 328 328 327 326 326 324 322 320 320 319 318 316 313 310 309 311 309 305 306 312 312 309 308 307 307 308 309 308
306 301 301 308 317 323 325 327 325 323 323 323 324 325 325 326 326 327 326 326 325 324 322 321 318 317 317 315 313 308 306 306 306 303 304 308 308 306 305 305 306 308 308
305 302 304 309 313 319 321 323 324 323 322 321 321 321 321 322 323 324 323 323 322 322 321 320 319 318 317 315 315 314 308 307 305 302 303 306 306 309 309 310 308 306 306

GFSSE_sfc_thetae_087.txt.gz
Theta_e
335 343 347 349 348 348 348 349 348 348 346 343 344 344 343 342 343 345 346 345 345 344 345 343 342 341 343 343 343 344 343 343 343 343 343 344 343 342 341 339 339 334 340
340 343 345 348 348 348 347 349 349 348 346 343 342 342 342 341 340 342 342 343 343 341 341 340 341 342 343 344 344 342 341 343 342 341 340 341 342 340 340 339 340 336 336
341 343 344 347 348 347 348 348 349 348 345 342 342 342 341 342 341 340 339 341 341 339 339 340 342 342 343 342 342 342 341 341 340 339 337 331 333 338 338 337 336 336 334
341 342 343 344 347 347 348 348 348 347 345 341 342 341 341 344 342 340 339 341 338 338 339 340 341 342 341 341 340 340 340 339 337 335 329 330 331 337 336 334 335 333 333
338 340 341 344 346 347 348 346 347 346 344 341 341 340 340 343 342 340 338 338 339 338 337 340 340 340 338 338 338 339 337 338 334 330 327 326 326 331 332 332 329 328 330
337 340 342 345 346 347 348 346 346 345 342 340 341 340 339 339 340 339 338 338 339 337 337 339 339 339 336 335 335 335 334 333 330 324 324 329 326 330 330 329 327 328 327
336 339 341 343 345 347 347 346 345 344 341 339 340 340 338 337 338 339 337 337 338 339 338 337 337 336 335 334 333 332 333 332 322 322 323 324 326 331 329 327 327 326 325
337 339 340 336 339 343 345 345 344 343 342 340 339 339 337 336 337 338 338 337 338 338 337 336 336 335 334 332 331 331 331 328 324 322 322 324 330 327 326 325 325 324 324
337 336 335 336 335 335 338 340 341 341 341 340 339 339 338 338 337 339 340 339 339 338 337 336 336 334 332 331 329 329 328 327 321 323 324 322 330 326 325 323 323 323 323
333 333 331 333 334 333 334 333 334 336 338 337 335 333 331 331 332 332 332 338 337 337 337 336 335 333 331 329 328 326 325 324 320 321 321 322 329 325 324 322 321 321 321
331 329 328 329 331 332 332 329 330 331 331 331 329 327 325 325 326 326 328 334 336 334 334 334 333 331 329 327 326 325 323 319 318 319 319 327 326 324 323 321 320 320 319
330 328 328 327 329 332 334 331 331 329 328 327 326 325 325 323 325 325 322 325 330 330 331 330 328 328 325 321 318 321 319 319 318 318 318 327 325 325 323 322 321 320 320
330 333 333 329 329 328 330 329 330 329 327 327 324 324 323 323 323 322 320 320 319 320 322 323 319 320 320 319 319 318 318 318 317 316 319 326 327 326 325 324 323 322 322
329 331 333 333 331 328 328 328 329 328 328 326 325 324 322 319 319 321 320 320 319 319 320 320 318 319 318 318 318 318 318 318 318 317 316 322 327 326 327 328 327 326 325
328 330 330 332 332 332 328 327 328 327 328 328 326 325 323 321 320 321 321 321 320 319 319 318 317 317 317 317 317 317 318 318 318 318 316 316 323 327 327 328 330 328 328
328 329 331 330 334 332 331 330 331 330 328 327 326 325 324 322 321 321 320 320 319 319 318 317 316 316 316 316 316 317 317 318 319 319 319 317 320 325 327 329 330 331 331
327 330 330 331 331 333 332 331 329 330 331 329 326 326 325 323 321 320 320 319 319 319 317 315 315 315 314 314 314 316 316 317 317 318 318 318 318 319 324 327 329 330 331
325 329 331 332 331 333 331 332 330 329 328 328 330 329 325 325 323 319 319 319 319 318 317 315 314 313 312 312 311 312 313 313 314 315 316 317 317 319 320 324 327 328 330
323 326 329 329 329 329 332 332 332 332 329 329 330 330 329 327 325 321 318 318 318 317 316 315 314 312 311 312 312 315 314 311 312 314 314 315 316 317 317 320 321 322 326
322 325 329 329 329 329 331 331 331 331 331 332 331 330 329 330 328 325 321 319 318 316 318 313 314 315 314 313 313 313 313 313 312 311 312 315 316 314 315 316 316 318 319
321 324 328 327 328 328 329 328 328 328 329 329 330 330 330 329 329 327 326 323 322 319 318 317 316 314 313 313 311 307 310 310 310 311 311 311 311 313 313 314 315 317 318
319 321 325 328 328 328 328 329 329 328 328 329 329 329 330 329 329 327 326 325 324 320 317 317 315 313 313 313 312 306 305 309 309 312 311 311 309 312 311 312 313 315 315
301 310 320 325 329 329 328 325 327 327 326 325 325 327 328 329 328 327 326 325 324 321 320 319 317 315 313 313 313 311 305 303 308 314 310 310 310 308 309 309 310 311 311
301 301 302 316 325 329 328 326 326 324 322 324 325 326 327 328 328 327 326 325 324 322 320 319 319 317 315 313 312 311 312 310 306 306 310 309 309 312 309 305 306 308 309
305 300 299 306 317 325 328 328 326 324 322 323 324 325 325 325 325 326 325 325 324 323 321 320 319 317 317 315 312 310 307 307 306 303 303 305 308 308 307 306 310 310 308
301 299 299 309 314 319 326 327 325 322 322 321 320 320 320 321 321 320 321 321 321 320 319 318 317 317 316 315 314 313 311 307 307 305 303 304 304 307 309 309 306 308 308

GFSSE_sfc_thetae_090.txt.gz
Theta_e
335 341 348 348 348 349 348 347 346 346 345 344 344 341 342 344 345 345 347 346 344 343 342 341 343 344 343 344 344 343 343 343 342 342 342 342 341 340 339 339 338 332 337
340 342 346 349 348 348 348 347 347 346 345 343 342 341 340 341 343 341 344 343 341 340 340 342 343 345 344 343 342 341 341 340 340 340 338 339 340 338 338 337 335 330 332
340 343 345 347 348 348 348 347 347 345 344 342 341 343 342 341 340 340 339 341 339 340 340 342 343 344 342 342 342 341 339 338 337 336 335 328 332 337 336 336 333 332 336
340 342 343 345 348 348 347 347 346 345 344 341 341 344 343 341 339 339 338 338 339 339 341 343 341 341 340 339 337 337 337 336 335 332 326 327 330 335 334 332 330 331 330
338 340 341 344 347 348 347 346 345 344 344 343 340 343 344 341 339 338 338 337 337 339 339 340 339 338 337 337 335 337 335 334 333 328 325 323 323 329 331 329 327 328 328
336 339 341 345 347 346 346 346 345 343 343 342 339 340 341 339 337 337 339 336 338 339 338 338 337 336 335 335 333 333 334 332 328 321 323 327 324 329 329 327 328 326 328
334 337 340 344 346 346 346 346 345 343 342 341 339 338 339 339 337 336 338 339 340 337 337 337 335 334 333 332 332 332 332 329 321 321 322 322 323 328 328 327 326 325 325
335 336 338 336 341 343 345 344 343 342 342 342 340 337 337 337 339 337 338 338 339 337 336 335 335 333 332 331 331 330 329 327 322 321 321 321 329 326 326 325 325 324 324
336 334 334 336 337 337 339 339 340 340 340 341 341 339 338 338 339 340 339 339 339 337 336 335 334 332 331 330 329 329 327 326 320 321 322 321 330 325 324 323 323 323 322
333 332 330 331 334 334 336 332 334 336 337 337 335 333 331 332 333 335 334 337 337 337 336 335 333 331 330 328 328 327 324 324 319 320 320 321 327 324 323 322 321 321 321
330 328 329 329 330 331 332 328 329 331 331 330 329 326 324 324 324 326 330 334 335 335 334 333 332 329 327 325 326 325 322 317 317 318 318 326 325 324 323 321 320 320 320
324 325 327 327 328 330 334 329 328 328 327 326 324 323 323 323 323 323 323 328 330 330 331 330 329 327 323 320 318 320 318 317 316 316 317 326 325 325 324 323 322 322 321
325 325 326 326 328 328 329 328 327 325 324 324 323 323 322 322 321 319 318 318 318 319 320 320 318 318 319 317 316 316 317 316 316 315 318 325 326 326 327 326 325 325 324
326 326 326 326 327 327 328 328 327 326 325 323 321 323 320 319 319 318 318 318 317 318 318 318 317 317 316 317 316 316 317 317 316 316 316 319 326 327 329 329 329 328 327
327 328 328 327 327 327 326 327 326 326 326 325 324 322 321 318 318 320 319 318 318 317 318 316 316 316 315 316 316 316 316 317 317 317 316 316 321 326 329 330 331 331 331
328 328 328 328 330 329 326 325 326 326 327 326 324 323 322 320 319 319 318 319 318 318 317 316 315 314 314 314 315 316 316 316 317 317 318 317 320 323 327 330 331 332 333
328 329 328 328 329 330 329 328 330 329 329 325 325 324 323 321 320 319 318 318 318 318 316 314 314 314 313 313 312 314 314 315 315 316 316 317 318 319 323 328 330 331 332
327 328 329 330 329 329 330 330 330 329 327 328 328 325 323 323 321 318 318 318 318 317 316 314 313 312 311 311 310 311 313 313 314 314 314 314 315 318 320 323 326 328 329
327 328 329 329 328 328 328 331 330 329 328 326 326 328 327 326 323 319 317 317 316 316 315 314 313 311 311 313 313 314 315 312 312 313 312 313 313 315 317 319 320 321 324
324 329 329 329 329 327 327 330 330 330 330 330 329 329 328 328 327 323 320 318 317 315 318 314 315 314 314 313 314 314 313 312 311 311 310 311 311 312 313 313 314 315 318
321 326 328 328 327 327 325 327 327 327 328 329 330 330 330 329 329 327 325 323 321 319 316 316 316 314 313 313 311 309 310 311 310 309 309 309 309 310 310 311 312 313 315
320 324 327 327 327 328 327 325 329 328 328 329 329 329 329 329 328 327 326 325 324 321 319 317 316 314 311 313 312 308 306 309 307 311 310 309 309 309 309 310 310 311 311
316 319 325 327 327 328 327 324 326 326 326 325 325 326 328 328 328 327 326 325 324 323 321 320 318 315 314 314 314 312 306 303 310 311 310 309 308 307 307 307 308 309 309
299 301 312 323 326 327 327 325 322 322 322 324 325 326 327 327 327 327 326 325 324 322 321 319 319 317 315 312 313 311 312 310 305 303 306 309 306 306 307 307 305 307 307
303 301 300 312 326 326 326 326 326 324 322 324 324 324 325 324 325 325 325 325 323 321 321 320 319 317 316 314 312 310 308 307 306 303 301 303 306 305 304 304 305 307 307
300 299 298 306 318 326 326 327 326 324 321 321 321 320 320 319 314 314 313 314 312 310 309 309 312 309 309 311 309 309 308 306 305 304 301 301 300 302 302 304 305 305 306

GFSSE_sfc_thetae_093.txt.gz
Theta_e
332 338 346 348 348 348 347 345 344 346 345 342 341 343 345 345 345 344 344 343 343 341 343 343 344 342 343 343 342 342 341 341 341 341 340 340 339 339 337 334 334 327 334
337 342 346 348 349 348 347 344 345 345 344 341 340 341 341 341 342 341 341 342 340 342 342 344 344 343 343 342 341 340 339 338 337 338 337 338 338 336 336 334 335 331 336
338 342 345 348 348 347 346 346 345 344 342 342 342 341 340 341 339 338 338 340 341 340 343 343 342 341 340 340 340 338 337 336 335 334 333 327 330 335 332 331 334 334 333
340 342 342 345 348 347 347 346 345 344 343 344 345 342 340 339 338 337 337 338 341 343 341 341 341 339 338 338 337 337 336 334 333 330 323 324 326 331 330 330 330 329 328
338 340 341 345 348 347 347 345 344 344 344 343 346 343 340 338 338 336 338 338 339 340 339 338 338 338 335 336 336 335 334 332 331 327 323 321 321 328 329 329 327 328 328
336 339 342 345 348 347 346 344 344 343 343 342 342 340 338 337 338 339 336 338 339 338 338 337 336 335 334 334 335 334 332 330 326 321 322 325 326 329 329 328 326 326 326
334 337 340 344 345 346 346 344 344 343 342 340 340 340 337 336 337 338 340 338 337 337 336 335 334 333 332 332 333 332 330 328 320 320 320 320 320 328 327 327 326 325 325
334 336 338 337 341 343 344 343 342 343 342 339 338 338 338 337 338 338 338 338 336 335 335 334 333 332 331 331 331 330 328 326 321 319 319 320 328 327 325 326 325 324 324
334 333 334 337 337 336 338 338 339 341 340 340 338 338 338 339 340 339 339 339 336 335 334 334 332 331 330 330 329 327 327 325 319 319 321 319 328 325 325 323 323 323 322
329 330 330 333 335 335 333 332 333 336 337 337 335 332 331 333 335 335 333 337 337 336 334 333 332 330 330 329 328 326 325 324 318 318 318 319 326 324 324 323 321 322 321
328 326 327 330 331 332 331 327 328 330 331 330 328 325 323 323 325 328 330 334 335 335 333 332 330 328 326 324 325 324 321 316 316 316 316 323 325 324 324 323 322 322 322
323 324 326 326 328 330 332 327 327 326 325 324 323 322 322 321 321 323 324 327 329 330 331 330 329 325 321 318 318 319 316 316 315 315 316 323 326 326 326 325 325 324 324
323 324 324 325 326 328 328 326 324 323 322 322 321 321 321 320 319 318 317 317 317 318 318 318 317 317 317 316 315 315 316 315 314 315 317 322 326 328 329 329 329 328 327
322 322 324 325 325 325 327 326 324 323 321 320 321 321 319 318 317 316 316 315 316 317 316 316 315 316 315 315 315 314 315 315 316 316 316 318 322 327 330 331 332 331 331
322 323 324 324 325 325 325 324 324 323 323 322 321 321 319 318 317 317 316 316 316 316 316 315 314 314 314 314 315 314 314 315 316 316 316 316 320 325 329 331 332 333 333
325 324 325 325 326 325 324 323 324 324 325 324 322 321 320 317 317 318 317 317 317 316 316 315 314 313 313 313 313 314 314 314 315 315 316 316 320 323 327 330 331 332 333
326 327 325 325 326 325 324 325 324 324 326 324 323 322 320 320 318 318 317 316 317 316 315 314 313 312 312 312 311 312 312 312 313 313 314 314 315 318 321 325 328 329 330
327 326 327 327 326 326 326 326 327 326 326 324 324 323 322 321 320 317 316 316 316 316 315 313 312 312 311 310 310 311 313 313 313 313 313 313 313 314 317 320 323 324 326
327 327 326 326 326 326 326 329 330 329 327 326 326 326 325 324 321 317 316 315 315 315 314 315 311 311 311 312 313 312 312 311 311 313 311 311 311 312 313 316 318 318 320
326 327 328 327 328 326 326 327 329 329 329 329 327 328 327 326 325 322 320 317 316 315 317 316 312 315 315 312 313 314 312 312 310 308 309 310 310 310 310 310 310 312 316
323 325 327 327 327 327 323 326 327 327 328 328 329 328 328 328 328 326 324 323 321 319 319 317 316 314 313 312 309 313 310 312 308 308 309 309 309 310 309 309 309 310 311
320 325 326 327 327 328 327 324 325 327 328 329 329 329 329 329 328 327 326 325 323 321 320 318 316 315 313 313 313 309 305 307 307 310 309 309 307 308 308 308 308 308 308
316 322 325 327 327 328 327 323 324 326 326 326 325 326 328 328 328 326 326 325 324 323 321 320 318 316 314 315 314 311 306 304 306 307 307 305 305 304 304 305 305 306 306
314 317 324 326 327 327 326 325 320 320 321 324 325 326 327 327 327 327 326 325 324 322 321 320 319 318 315 312 311 309 311 310 304 299 303 305 303 304 304 304 304 304 304
301 304 314 321 324 326 326 326 323 321 322 324 324 324 325 324 324 324 324 322 320 318 317 317 315 313 313 311 310 309 305 305 301 302 296 297 301 300 301 301 302 303 304
300 299 299 312 323 325 325 325 325 324 321 321 321 321 320 314 311 310 310 309 308 307 305 303 303 302 302 306 303 304 302 301 299 298 296 295 294 294 297 299 299 301 301

GFSSE_sfc_thetae_096.txt.gz
Theta_e
330 338 347 347 347 346 345 344 344 345 342 344 346 346 346 344 343 344 344 344 344 343 343 341 342 343 342 342 341 341 340 340 340 340 338 336 337 336 334 334 333 329 338
335 341 345 349 348 346 344 343 345 344 343 342 342 342 342 341 341 340 342 340 343 343 344 344 343 343 342 340 339 338 337 337 337 336 335 335 336 333 334 336 338 331 334
337 342 344 348 348 345 345 345 345 344 343 342 341 341 340 339 338 339 339 338 344 344 343 342 341 341 340 339 337 336 335 335 333 332 331 324 327 332 332 331 332 331 331
339 341 343 345 347 346 346 345 345 344 344 343 341 339 338 338 337 337 338 345 343 341 342 341 339 339 339 337 336 335 334 333 332 329 321 321 324 331 330 330 330 329 329
337 339 341 345 347 346 345 345 344 344 345 344 341 339 338 337 337 337 337 340 341 339 339 338 337 337 337 336 335 333 332 332 330 325 322 320 319 328 330 328 327 328 328
335 338 341 346 347 346 345 344 343 344 344 342 340 338 339 336 336 338 339 339 339 338 337 337 335 335 335 335 334 332 330 329 325 320 319 322 320 330 329 328 327 327 326
333 336 340 344 345 346 344 344 343 343 342 341 339 336 338 336 337 340 338 337 337 336 335 334 334 333 333 334 333 331 329 328 320 318 319 318 320 328 328 328 326 326 326
333 335 338 337 341 343 343 343 343 342 340 340 339 338 336 338 338 340 337 336 335 335 334 332 332 332 331 331 331 330 328 325 320 318 318 318 328 327 326 325 325 325 324
333 333 335 337 337 335 337 338 340 340 339 339 339 338 339 340 339 339 339 337 335 334 333 332 332 331 330 330 329 328 327 325 317 318 320 318 328 326 325 324 323 323 323
329 332 333 333 335 333 332 331 333 336 337 336 335 332 332 334 334 334 332 337 336 334 333 332 331 330 329 328 327 325 324 322 316 316 316 317 327 326 325 324 323 323 323
328 330 332 333 331 330 329 326 329 331 331 329 327 325 323 324 326 327 330 334 335 334 333 331 329 328 325 324 325 323 320 315 315 315 315 321 326 327 327 326 325 325 325
323 328 331 332 329 328 331 326 325 325 324 323 321 320 321 320 321 324 323 325 328 329 330 330 328 324 320 316 315 318 315 315 315 314 315 322 326 329 330 330 330 329 328
322 324 327 330 330 326 325 323 322 321 320 320 319 320 320 319 317 317 317 316 316 317 316 317 316 316 315 314 314 313 314 315 314 314 316 321 326 329 330 331 332 332 332
321 322 323 326 329 325 324 322 321 320 319 318 319 320 318 317 315 314 314 314 315 316 315 315 314 314 314 314 314 314 314 314 314 315 315 318 322 327 330 331 332 333 333
320 320 321 323 324 324 323 322 321 320 319 319 319 320 318 317 315 315 315 315 315 315 315 314 313 313 313 313 314 313 313 313 314 314 315 316 320 325 328 330 331 332 333
321 320 321 322 324 324 323 322 322 321 321 320 319 319 318 317 316 316 316 316 315 315 315 314 313 312 312 312 312 312 312 312 312 313 313 314 319 321 324 327 329 331 332
322 322 321 322 324 323 324 323 323 323 324 322 321 320 319 317 316 316 315 315 315 315 314 313 312 312 311 311 310 311 312 312 312 312 312 312 313 316 319 323 325 327 328
324 324 323 325 324 323 323 323 323 323 323 323 323 321 320 319 318 316 315 315 315 314 314 313 311 311 310 310 310 312 312 312 312 312 312 311 311 312 314 318 320 322 324
325 325 324 324 324 324 323 324 325 325 325 326 326 323 322 323 321 319 316 315 315 314 314 316 314 310 313 314 312 312 312 311 311 311 310 310 310 310 310 313 315 315 318
326 325 325 325 324 324 323 324 326 325 328 328 327 327 326 325 324 322 320 318 316 316 317 317 315 316 315 315 313 312 311 311 309 307 309 309 309 309 309 308 308 309 314
323 324 325 324 325 324 321 324 326 326 327 327 327 327 327 326 325 324 323 323 321 319 319 318 316 315 311 314 309 312 310 308 307 308 307 307 307 308 307 307 307 306 307
321 324 325 325 325 326 326 325 327 327 327 329 328 328 328 327 327 327 326 324 323 322 321 319 317 316 314 314 313 310 304 304 306 308 306 306 305 304 305 305 304 304 305
317 321 324 326 326 327 327 323 324 326 326 325 325 326 327 328 327 326 326 325 324 323 322 321 319 316 314 314 314 308 301 299 305 304 303 303 301 300 300 301 301 302 302
315 318 323 325 326 327 327 325 324 324 322 322 325 326 326 327 327 327 326 325 324 322 321 319 318 317 315 310 310 308 308 308 300 296 299 300 299 299 299 300 300 301 301
311 316 321 324 325 326 325 326 324 320 319 322 324 324 324 322 323 323 323 321 318 316 314 314 311 308 306 309 307 302 300 299 297 297 292 291 292 293 295 296 297 297 299
301 305 313 320 323 324 324 325 324 322 321 321 321 321 318 314 311 312 310 309 308 307 306 303 301 300 300 298 297 297 296 295 295 291 289 287 287 288 290 291 293 295 295

GFSSE_sfc_thetae_099.txt.gz
Theta_e
336 344 347 348 346 346 345 345 343 346 346 347 348 346 344 343 345 346 345 344 347 344 342 343 343 342 341 341 340 339 339 338 338 338 337 335 335 337 338 337 336 331 334
339 345 345 348 347 346 344 345 344 344 345 344 344 343 341 342 342 344 342 345 346 345 343 343 343 341 340 338 337 336 336 335 334 334 334 335 335 334 334 333 334 330 332
341 345 347 347 346 345 345 345 345 344 343 342 340 340 340 341 342 342 344 346 346 342 341 341 341 340 338 337 336 335 334 333 332 331 330 329 329 332 332 331 331 331 331
342 345 346 345 346 346 345 345 345 346 344 340 339 339 338 340 341 343 343 345 343 342 341 340 340 339 337 336 334 333 333 332 331 329 327 327 328 331 330 330 331 331 331
342 344 345 345 347 346 346 345 346 346 344 341 339 338 338 339 337 338 342 341 340 340 339 338 338 337 336 335 333 332 332 331 329 328 328 328 329 329 330 329 328 328 327
341 343 344 346 347 346 345 345 345 346 344 341 340 339 337 336 338 341 341 340 338 337 337 336 336 337 336 334 333 331 331 329 326 326 326 327 328 329 330 329 328 328 327
339 342 345 344 345 345 344 344 345 344 342 338 338 338 336 338 339 339 339 338 336 336 335 335 334 334 334 333 332 330 329 327 325 325 325 327 327 329 329 328 327 326 326
338 340 343 338 340 342 343 343 343 343 342 340 338 338 338 340 340 337 337 336 336 334 333 333 333 332 332 331 331 330 327 325 323 325 325 326 330 328 328 326 326 325 325
337 339 341 342 339 335 338 338 339 340 340 340 340 339 339 339 340 339 338 336 335 334 333 332 332 331 331 330 329 328 327 324 324 324 323 325 329 329 328 326 325 325 325
335 337 338 340 339 338 338 331 334 336 337 337 335 334 332 333 334 334 333 336 335 333 332 331 331 330 329 329 327 325 323 322 323 323 323 323 327 329 329 328 327 327 327
330 334 336 336 336 335 335 330 330 331 331 329 328 326 327 333 333 333 330 333 334 333 332 331 330 327 324 324 324 323 321 323 323 323 323 323 327 330 331 331 330 330 329
325 331 334 334 333 333 332 332 332 329 329 328 327 328 328 328 330 329 323 323 326 327 329 329 326 323 322 323 322 321 322 323 323 323 323 323 328 330 331 332 332 333 333
325 329 332 333 332 331 329 329 329 328 327 325 325 326 325 324 324 325 325 323 324 319 323 322 322 323 322 321 321 321 321 322 323 323 322 322 326 329 331 332 333 333 334
322 327 330 332 331 329 329 328 327 325 325 324 324 325 325 323 322 322 321 322 324 324 324 324 323 321 321 320 320 321 321 321 321 322 321 318 322 327 330 331 332 333 333
323 326 328 330 331 329 328 327 325 324 324 324 324 325 325 324 322 322 322 323 323 323 323 323 322 321 320 320 320 319 319 320 320 321 322 316 319 324 327 330 331 332 332
322 324 326 328 330 329 328 327 326 324 324 325 325 325 324 324 323 323 323 324 324 324 323 322 321 320 319 319 319 319 320 320 321 321 321 321 317 319 322 326 328 329 330
322 323 323 326 328 328 328 327 326 326 325 325 325 325 324 323 322 323 324 323 324 323 322 321 320 320 320 319 320 320 321 322 321 320 320 320 319 317 318 323 324 324 324
323 322 323 325 326 327 328 327 327 326 327 327 327 326 324 323 322 322 322 323 323 322 322 320 318 320 320 319 320 321 322 321 320 319 319 318 318 318 317 318 318 318 320
325 323 322 325 325 326 326 327 327 327 327 328 328 327 325 323 322 322 321 322 322 322 320 319 319 317 319 321 320 321 322 320 319 317 316 317 317 316 315 315 313 313 315
326 326 324 324 325 326 326 325 327 327 328 329 329 329 326 325 324 323 322 321 320 319 319 320 318 318 320 320 318 317 320 319 317 316 315 314 315 312 314 310 311 309 311
326 326 325 324 325 326 325 324 325 326 328 329 328 328 327 326 325 324 324 323 322 321 321 320 319 317 318 320 318 318 317 315 315 314 315 314 311 311 308 307 308 308 308
325 326 326 325 326 326 327 327 328 329 330 329 329 328 328 327 326 325 325 325 324 323 322 321 320 318 317 317 316 313 309 310 314 312 311 312 307 306 302 305 305 304 306
322 325 325 326 326 327 327 326 326 328 327 326 327 327 328 328 328 327 327 327 326 325 325 323 321 319 316 315 315 313 306 303 306 310 308 308 303 298 301 302 301 302 304
319 323 326 327 327 327 328 326 326 326 323 325 326 328 329 328 328 327 327 327 326 324 322 320 320 319 317 312 313 311 313 310 301 299 304 303 298 296 298 298 298 301 299
317 318 322 325 327 327 328 328 326 326 326 325 325 325 326 325 327 326 326 324 321 319 318 316 313 312 313 312 309 307 306 304 303 297 293 294 293 294 296 295 298 297 295
310 315 319 322 324 327 327 328 327 326 324 323 322 322 321 318 316 317 315 314 312 311 309 307 306 306 305 303 301 299 299 297 295 294 292 290 288 292 293 296 295 294 292

GFSSE_sfc_thetae_102.txt.gz
Theta_e
341 344 347 347 346 345 344 343 346 347 348 347 346 345 344 344 346 346 347 346 346 345 344 342 341 340 339 338 338 338 337 336 337 335 335 335 335 336 335 333 335 331 333
343 345 346 347 346 345 343 342 345 347 347 345 343 343 343 343 345 346 348 346 345 344 344 342 340 339 338 336 336 335 334 334 333 333 336 336 334 333 333 332 334 331 331
343 345 347 347 346 344 345 345 345 344 345 342 342 342 341 343 345 345 346 345 344 341 342 340 339 338 335 334 334 333 333 332 331 333 334 330 330 332 333 332 332 333 332
342 345 346 344 346 344 345 346 345 344 344 341 340 340 341 344 345 344 343 343 341 340 340 339 339 336 334 333 333 332 332 332 330 333 329 329 328 332 331 330 330 330 329
343 344 345 344 346 344 345 345 345 344 342 341 339 340 338 342 342 343 342 341 340 338 338 338 337 336 334 333 332 331 331 330 330 329 329 329 329 330 331 330 329 328 328
341 342 344 345 346 345 345 346 346 344 341 342 339 339 339 339 340 343 340 339 338 337 337 337 337 335 334 332 332 331 329 327 330 326 327 328 328 330 330 329 328 327 327
340 342 345 344 345 345 346 346 345 343 342 341 340 338 338 339 340 340 338 337 336 335 335 334 334 333 333 332 331 330 328 327 326 326 327 328 329 329 329 328 328 327 327
340 341 344 338 341 342 344 344 343 341 341 341 339 340 340 339 338 337 337 336 335 334 333 333 332 332 331 331 330 329 327 326 325 326 326 328 330 330 330 328 327 327 327
339 340 344 343 339 336 338 339 341 341 340 340 340 339 340 340 339 338 337 335 334 333 333 332 331 331 331 329 329 327 325 324 327 326 325 326 329 331 331 330 328 328 328
339 340 342 342 339 338 340 331 333 337 337 337 336 333 332 334 334 334 333 335 334 332 332 332 330 330 329 328 326 324 323 324 327 327 327 326 328 331 332 332 331 330 330
333 339 342 341 338 337 338 333 330 330 330 330 330 327 330 336 336 334 329 333 333 332 331 330 328 326 325 324 323 322 323 327 326 327 327 325 328 331 332 333 333 334 334
329 336 340 336 337 336 335 337 335 333 333 335 336 335 334 334 334 331 324 324 325 327 328 327 325 324 325 326 326 325 327 327 327 327 327 324 327 330 332 333 333 334 335
329 334 338 335 338 334 333 334 334 331 331 332 334 334 334 332 331 332 329 328 328 322 327 327 328 327 326 326 327 327 326 327 327 327 325 322 325 328 331 332 332 333 334
327 333 336 337 336 334 332 331 332 330 329 329 331 331 330 328 327 327 327 329 331 331 330 330 329 327 327 326 326 326 326 326 327 327 326 319 321 327 330 331 331 331 331
324 330 334 336 336 334 331 330 329 329 328 328 330 331 331 329 327 328 329 330 331 331 330 330 329 328 327 326 326 326 326 327 328 328 328 317 320 324 328 330 329 328 327
327 327 331 335 335 334 332 330 328 328 328 329 330 331 330 330 330 330 330 331 331 331 331 330 328 327 327 327 326 326 327 329 328 327 326 325 319 320 324 324 320 322 323
325 329 329 331 332 332 332 331 330 328 328 329 330 331 330 330 328 330 331 331 331 331 330 330 329 328 327 327 326 327 328 328 326 325 323 323 323 318 319 316 316 316 317
324 326 331 331 329 329 333 332 331 330 328 329 330 331 330 329 328 329 330 330 331 330 330 329 327 326 327 327 327 327 326 326 325 322 321 322 320 317 316 313 312 313 314
325 325 326 330 331 333 333 333 333 332 331 332 333 333 332 330 327 327 327 329 329 328 328 326 326 324 325 325 325 324 325 325 323 318 319 319 314 314 307 310 311 310 312
329 326 326 327 328 330 331 332 332 331 331 332 334 332 330 327 326 326 326 326 326 323 323 323 323 326 324 325 322 321 323 323 322 319 317 315 313 307 305 307 306 306 309
332 329 327 325 327 327 327 327 328 328 330 331 334 334 332 330 327 326 326 326 324 323 324 323 323 323 324 325 321 320 321 320 320 316 315 309 310 302 304 304 304 306 307
331 330 330 328 326 328 328 330 331 331 332 333 334 333 331 330 328 326 326 326 326 326 324 323 322 322 321 322 318 318 312 314 317 315 314 307 304 301 302 301 303 305 304
330 330 331 331 329 329 329 331 332 333 333 331 332 330 331 329 329 328 327 328 328 328 328 327 324 321 319 321 319 316 308 306 306 312 308 305 299 299 300 300 303 301 298
329 332 331 332 332 331 331 330 330 329 327 329 331 331 331 331 330 329 329 329 330 329 327 325 324 323 321 318 317 314 315 312 301 299 302 302 298 296 299 299 302 298 296
328 330 332 332 332 333 332 331 331 330 331 332 331 329 329 331 333 332 330 329 328 325 324 321 319 318 319 317 314 313 310 308 308 299 294 295 296 296 297 299 299 296 294
325 327 328 330 331 332 332 332 331 330 331 331 329 326 326 328 326 329 325 324 322 319 318 315 314 316 315 313 310 305 302 300 298 295 293 293 292 294 297 299 296 294 293

GFSSE_sfc_thetae_105.txt.gz
Theta_e
340 344 347 347 346 345 345 347 348 347 347 346 345 345 344 345 347 347 348 347 346 343 341 339 340 339 338 338 337 336 336 336 335 335 335 335 334 334 334 334 335 329 333
342 345 346 347 345 343 343 345 347 347 347 345 344 344 343 345 345 345 347 346 344 342 341 339 338 337 336 336 335 334 333 333 332 335 337 336 334 334 334 334 335 330 334
341 344 344 346 345 342 342 344 346 346 344 343 342 341 344 345 345 344 343 344 343 341 340 338 337 336 335 334 333 333 332 331 331 333 335 328 329 332 332 331 331 331 331
342 343 343 344 345 343 343 345 345 344 343 341 341 340 343 345 345 344 342 343 340 340 339 337 337 335 334 333 332 332 331 330 332 334 328 327 326 332 332 331 330 330 329
341 343 343 344 344 344 344 345 344 343 342 341 341 342 344 343 342 342 341 339 338 337 337 337 336 335 333 332 331 330 329 328 331 328 326 328 328 330 332 331 329 329 329
340 342 342 345 344 344 344 345 344 342 341 340 339 338 339 341 341 340 339 338 337 337 337 336 335 334 333 332 330 328 328 329 331 327 327 329 328 331 331 330 329 329 328
339 342 343 344 345 344 345 345 344 342 341 341 340 340 340 341 340 338 338 337 336 335 335 334 333 333 332 331 330 328 328 329 326 326 327 328 329 332 332 330 329 329 329
337 340 342 338 341 343 344 343 342 342 341 340 340 340 339 339 338 337 336 335 334 334 333 333 333 332 331 330 329 327 327 328 326 326 327 328 332 333 333 332 331 330 330
338 338 341 340 337 337 338 339 340 340 339 339 340 341 340 339 338 337 337 334 334 333 332 331 331 331 330 328 327 326 325 326 327 326 325 325 330 333 334 334 333 333 333
336 338 340 339 337 338 339 332 334 336 336 336 335 334 333 334 334 334 332 334 333 332 332 331 330 330 328 327 326 325 324 326 327 327 326 325 330 333 334 334 335 335 335
334 336 339 338 337 336 336 333 330 330 331 330 330 329 330 334 333 333 329 333 333 332 331 329 327 325 325 325 324 324 324 327 326 326 326 326 329 332 333 333 334 335 335
329 335 338 338 337 334 333 334 333 333 335 333 333 333 333 333 332 330 324 325 327 329 329 327 325 325 325 326 326 325 327 327 326 326 324 325 328 332 332 333 334 334 334
330 334 336 338 337 333 332 332 331 330 332 333 334 334 333 332 331 331 328 328 327 323 327 327 327 327 327 327 327 327 327 327 326 327 323 324 327 330 332 332 331 331 330
328 334 338 338 336 332 332 331 330 328 329 330 332 332 330 328 328 328 327 329 331 331 329 329 328 328 327 327 327 326 327 327 328 328 321 319 324 329 330 328 326 325 325
327 331 335 337 335 332 329 329 329 328 327 329 330 330 329 328 327 328 328 329 330 330 329 329 328 328 327 327 327 327 327 328 328 328 325 317 323 326 322 320 320 321 321
327 329 332 334 335 333 328 328 328 328 328 328 330 331 331 330 329 329 330 330 330 330 330 329 328 328 327 327 326 327 328 328 327 326 325 320 320 320 315 316 317 319 320
326 328 330 332 334 334 330 329 328 327 327 328 329 331 330 330 330 330 330 330 330 331 330 329 328 327 327 327 326 327 327 326 325 324 323 322 320 317 314 313 314 316 318
324 327 330 330 331 331 331 330 329 328 328 329 330 331 331 330 329 329 329 329 330 330 329 328 326 324 325 324 324 326 326 326 324 320 319 318 315 308 312 311 311 314 316
322 325 328 331 331 330 332 331 331 330 328 329 330 331 331 331 330 330 329 329 329 329 329 327 325 326 324 322 323 323 324 324 321 318 317 312 310 306 306 310 310 311 311
324 323 326 330 331 332 334 332 332 331 330 330 331 332 333 332 330 329 328 328 328 328 326 326 324 327 326 325 321 321 323 322 320 318 315 309 304 305 305 305 307 307 306
327 323 324 326 328 330 331 329 329 328 329 330 333 334 333 331 330 329 328 328 328 326 326 325 326 325 326 325 321 320 319 320 317 315 313 308 302 303 303 303 305 305 301
329 327 325 325 325 327 328 329 329 329 330 330 333 334 334 332 331 328 329 327 327 324 325 324 323 324 323 323 317 317 312 314 316 312 310 304 301 302 301 302 302 299 298
330 331 329 328 327 327 327 328 328 331 332 330 331 334 334 332 331 330 327 328 327 326 327 326 325 323 321 321 320 316 310 307 306 311 306 303 299 300 300 302 299 297 296
330 334 334 333 330 329 328 327 328 328 327 330 332 334 333 333 331 330 328 327 327 329 327 328 325 324 321 319 318 315 315 311 302 300 303 301 298 297 298 300 298 296 294
331 332 334 334 334 332 330 328 329 329 331 332 332 332 332 333 333 332 331 330 329 328 327 323 323 321 321 320 317 314 310 306 306 300 295 296 297 296 298 298 297 295 293
329 332 333 333 333 334 332 331 330 330 331 331 331 330 331 331 330 331 331 330 328 325 322 320 318 318 318 318 315 311 305 302 300 296 295 295 293 295 297 297 295 293 293

GFSSE_sfc_thetae_108.txt.gz
Theta_e
337 340 348 348 347 347 349 349 348 348 348 346 346 345 347 347 347 348 347 346 342 340 339 339 338 338 337 337 336 335 335 335 335 335 335 335 335 335 336 334 335 329 333
340 343 346 347 345 344 347 348 347 347 347 346 345 345 345 345 345 344 345 346 343 339 338 337 337 336 335 335 334 333 333 333 334 337 335 333 333 333 333 332 332 329 332
341 342 343 346 344 343 346 347 346 347 346 344 342 344 346 345 343 343 344 344 341 338 338 337 336 335 334 333 333 332 333 333 335 336 334 325 325 333 333 331 331 332 332
340 341 342 343 345 345 346 345 345 345 345 341 342 344 347 345 343 341 341 341 340 338 337 337 336 335 333 332 332 331 332 332 335 332 324 325 327 333 333 332 332 332 331
340 342 341 343 345 345 345 344 344 343 344 343 342 344 344 344 343 341 339 338 338 336 336 336 335 334 333 331 330 330 331 332 334 327 324 324 324 331 333 332 331 330 330
340 340 342 344 345 345 345 344 339 340 341 338 342 343 344 342 341 340 338 337 336 336 335 335 334 333 332 331 330 330 331 333 330 322 323 328 326 333 333 332 332 331 331
338 338 340 343 344 345 345 344 343 342 342 341 341 342 341 341 339 338 337 336 335 335 334 334 334 333 332 331 330 330 330 331 322 322 324 325 327 334 334 334 333 333 333
337 338 339 337 340 343 343 343 342 341 341 341 341 341 340 339 337 337 336 335 334 333 333 333 332 332 331 330 329 328 329 328 323 321 322 323 333 334 336 335 335 335 335
337 338 336 337 336 336 337 338 339 338 339 339 341 340 338 339 338 336 336 334 333 332 332 332 332 331 330 329 327 327 326 327 321 321 323 323 333 335 336 336 336 336 336
335 337 336 334 336 337 335 332 333 335 336 336 336 334 332 333 333 333 331 334 332 332 331 330 330 329 328 327 326 326 325 325 320 321 321 324 331 334 336 335 336 336 335
330 337 336 333 332 334 334 328 329 330 331 331 330 328 328 329 330 329 329 332 332 332 330 328 326 326 327 326 326 324 324 321 321 321 321 328 331 334 334 335 334 333 331
325 334 336 334 332 332 334 332 331 331 330 330 329 328 331 328 326 326 322 326 329 329 329 326 326 326 323 321 320 323 321 321 321 320 321 328 331 332 334 331 329 328 327
326 333 336 335 332 329 328 328 328 328 328 328 328 328 328 326 323 323 320 320 319 320 321 323 323 322 322 321 321 321 321 321 321 320 322 326 330 331 328 325 325 325 324
326 331 335 335 331 327 327 326 324 324 326 326 327 328 325 324 323 322 321 322 322 323 322 322 321 322 321 322 321 321 321 322 322 319 319 322 327 321 322 321 322 323 323
324 329 333 333 331 327 325 325 323 322 323 325 325 326 324 321 320 320 322 323 323 323 323 321 321 322 321 322 322 322 322 322 321 320 316 318 319 317 319 320 321 323 323
326 326 332 334 333 327 323 323 322 322 322 323 324 325 325 323 322 323 323 324 323 323 323 322 322 321 321 321 321 322 322 321 321 319 316 316 317 316 315 317 320 321 320
326 326 328 332 333 329 323 322 322 322 323 322 324 325 325 325 324 324 324 324 324 324 324 323 322 321 321 322 321 323 323 320 319 317 316 314 310 313 313 314 318 316 314
324 324 328 330 331 331 324 323 322 322 322 323 324 326 326 326 325 324 324 324 324 324 323 321 320 319 319 319 319 317 319 319 315 313 309 305 300 303 310 312 312 310 310
321 324 326 328 330 330 328 325 324 323 322 323 325 325 326 326 325 324 324 325 325 323 322 321 318 319 317 317 317 316 319 315 312 311 306 300 300 300 301 310 309 306 305
319 322 325 328 328 328 327 327 325 324 323 323 324 325 326 326 326 324 323 322 323 322 321 319 317 319 321 320 318 318 316 314 311 308 302 298 299 298 300 302 301 299 302
320 318 324 326 327 328 327 325 322 323 324 323 324 326 328 328 326 324 323 322 322 321 320 320 319 319 321 321 313 315 312 314 309 306 301 295 297 297 299 299 296 294 294
322 317 319 326 327 328 328 328 325 325 325 325 325 327 329 327 326 324 323 322 322 319 319 319 319 319 319 319 311 310 306 310 308 304 299 294 294 296 298 296 294 292 292
324 320 319 321 324 326 327 327 324 323 322 323 324 326 329 328 326 324 323 323 322 323 322 321 322 320 317 317 315 310 303 301 302 302 296 292 292 293 295 294 293 292 291
325 326 322 321 322 323 324 323 322 321 320 323 325 327 328 329 327 326 324 323 325 324 323 321 323 322 319 315 314 311 308 304 295 294 295 290 291 293 293 293 291 291 290
325 327 327 324 323 323 323 323 322 321 324 325 327 326 329 328 328 327 326 324 323 324 324 323 321 321 320 317 314 308 305 299 299 293 289 289 290 291 293 292 290 289 290
324 326 327 327 326 325 323 323 322 322 323 325 325 326 327 327 327 327 326 324 324 324 322 322 320 319 318 316 312 308 302 297 296 290 289 288 287 289 292 291 289 289 288

GFSSE_sfc_thetae_111.txt.gz
Theta_e
333 340 348 348 348 349 349 348 347 349 349 348 348 346 347 346 346 347 345 342 339 338 338 338 337 337 336 336 336 336 336 335 334 334 334 334 334 333 334 332 332 327 332
339 344 345 347 346 348 348 347 347 348 348 347 346 345 346 346 345 343 345 340 338 338 337 337 336 336 335 334 334 334 334 334 335 335 333 333 333 333 333 332 332 329 332
341 343 344 345 345 347 347 347 347 347 346 345 346 346 345 344 344 343 341 341 337 337 337 336 335 334 334 333 334 334 334 337 336 334 332 324 327 334 334 333 332 333 333
340 341 340 342 345 346 347 346 346 346 344 345 345 346 344 343 342 341 339 337 336 337 337 336 335 332 332 333 333 334 334 334 334 331 324 325 328 334 334 333 333 333 332
339 340 340 343 345 345 345 345 345 344 344 344 345 346 345 343 340 339 337 337 336 336 336 336 334 332 332 332 333 334 336 333 332 327 324 324 324 332 335 334 332 332 332
338 339 341 344 345 345 344 343 341 343 344 343 346 345 343 342 340 338 337 335 335 335 335 335 334 332 332 332 332 332 334 332 328 322 323 327 328 334 335 335 334 334 334
337 338 340 343 344 345 344 342 340 337 341 342 344 342 341 340 338 337 336 335 335 335 334 334 333 332 331 331 331 332 332 331 321 321 322 324 330 336 337 336 336 336 336
335 338 340 336 339 342 343 342 342 341 342 341 343 342 340 338 337 336 335 334 334 334 334 333 332 331 330 329 330 330 330 328 321 319 321 323 333 336 337 336 337 337 337
336 336 336 337 337 335 337 337 338 339 339 340 341 340 339 338 337 336 335 334 333 332 333 332 331 330 329 328 328 328 327 327 318 319 323 324 334 335 336 336 336 334 332
334 334 333 334 335 333 333 331 332 335 337 337 336 333 332 333 333 333 331 333 333 332 331 330 329 329 327 327 327 326 325 324 318 319 321 325 334 334 336 334 332 330 329
333 332 333 332 333 332 330 327 328 330 331 331 329 327 326 327 328 328 328 332 332 331 329 328 327 327 326 324 324 324 324 319 318 319 322 330 333 334 332 329 328 327 327
330 330 331 330 332 332 332 329 328 328 326 328 327 329 329 327 325 326 324 327 329 329 329 327 327 326 323 319 319 322 319 319 318 319 323 330 332 329 327 326 325 325 325
328 331 331 330 332 330 330 327 326 326 325 326 326 328 327 323 321 320 318 318 317 320 319 322 321 320 320 319 319 319 320 320 317 318 323 327 325 324 323 324 324 324 325
324 330 334 333 330 326 328 325 324 325 324 324 325 325 323 321 320 320 318 318 318 318 319 319 319 320 319 320 320 320 320 320 316 316 318 318 321 321 322 324 324 324 320
324 328 334 334 328 326 324 323 322 321 323 324 324 325 323 320 318 319 319 320 321 321 320 319 319 320 319 320 320 320 320 319 316 315 314 315 318 318 321 323 324 319 318
325 324 333 333 330 327 323 322 320 320 322 322 322 322 322 320 319 319 320 321 321 321 320 320 320 319 319 320 320 322 322 319 316 314 313 311 316 317 319 321 317 317 317
325 325 328 333 330 326 322 321 320 320 321 321 322 323 323 321 320 321 321 321 322 322 322 321 320 318 319 322 321 321 321 318 315 314 311 306 308 314 316 314 313 313 314
325 325 326 331 330 328 321 320 320 320 319 320 322 322 323 323 322 321 321 321 322 322 321 320 318 317 317 317 319 316 319 314 310 305 302 301 302 305 310 310 308 309 311
325 325 326 329 329 331 328 321 320 319 320 320 322 323 323 324 323 321 321 321 322 321 319 319 316 316 315 315 317 314 317 310 307 302 298 299 301 302 303 305 303 304 306
323 325 327 328 328 329 329 324 321 320 320 321 322 324 324 324 323 321 321 321 321 320 319 318 316 316 316 316 316 318 314 309 304 298 296 298 298 299 298 296 293 297 301
319 322 324 325 326 327 325 323 320 319 319 320 323 324 325 324 323 322 321 320 320 319 319 318 316 314 315 319 312 314 313 308 305 297 295 295 296 297 294 293 292 291 292
319 320 322 325 326 327 327 325 323 322 321 322 322 323 325 325 324 323 322 320 320 318 317 317 316 315 316 317 310 311 308 310 302 297 293 295 294 296 293 292 290 291 290
322 316 321 323 325 327 327 326 323 321 320 320 320 323 325 326 325 324 322 321 320 319 318 317 316 316 316 317 315 309 302 301 302 298 291 292 292 294 291 290 290 290 289
323 318 318 323 325 326 327 325 324 322 320 322 323 324 325 326 325 324 323 323 321 321 319 319 319 317 318 314 313 312 308 302 297 293 292 289 291 293 291 289 288 289 289
324 321 317 318 324 325 326 325 324 322 322 322 322 321 324 326 326 325 324 323 322 321 321 320 319 319 320 316 313 309 305 300 298 293 289 287 289 291 290 288 287 287 288
323 324 321 317 318 322 323 323 323 322 320 320 321 322 324 326 326 325 325 323 323 322 321 320 320 321 320 317 314 310 304 299 296 290 288 286 285 288 289 288 287 287 287

GFSSE_sfc_thetae_114.txt.gz
Theta_e
333 340 348 349 349 349 348 348 348 348 348 347 346 346 345 343 342 343 342 338 338 338 338 337 336 336 337 337 336 337 334 333 334 334 333 333 334 334 333 333 332 327 333
335 343 345 348 349 349 348 347 347 347 348 346 346 347 345 343 341 339 337 338 337 337 336 336 335 335 336 335 335 335 334 333 333 333 333 334 334 334 334 333 333 330 333
340 342 342 346 348 347 347 346 346 347 347 346 345 345 344 343 341 339 337 336 337 336 336 335 335 335 335 334 334 335 334 332 332 332 331 324 327 333 334 332 333 333 333
340 340 340 344 347 346 347 346 346 344 346 345 346 344 343 342 340 338 337 336 336 336 336 334 334 334 333 334 335 334 333 333 332 330 323 325 328 335 334 334 334 334 333
338 338 339 343 346 345 346 346 345 345 346 344 345 343 342 340 339 338 335 335 335 336 335 334 334 333 333 334 334 334 333 332 331 326 324 325 327 333 334 335 333 333 333
336 337 340 344 345 344 344 344 345 344 343 344 345 344 341 339 337 336 335 336 335 335 335 334 333 333 333 333 334 334 333 331 327 322 323 327 329 336 337 336 336 335 336
335 337 340 343 344 343 342 342 345 343 345 346 346 343 341 339 337 336 335 335 334 334 334 333 332 332 332 332 333 332 331 328 320 320 322 323 328 337 337 337 337 336 335
335 337 339 337 339 341 341 342 341 341 344 343 344 341 339 337 336 335 334 334 334 334 333 332 331 330 331 331 331 330 329 325 320 319 321 323 333 336 337 336 334 333 332
336 335 334 336 337 335 337 337 339 341 341 342 341 340 339 337 336 335 334 333 333 333 332 331 330 329 329 329 329 329 327 323 317 320 324 324 334 337 336 332 331 330 329
333 333 332 333 334 333 332 330 332 335 337 337 336 334 333 333 333 333 331 333 332 331 331 330 329 328 327 327 328 327 325 322 318 320 322 325 335 333 331 330 329 327 326
330 331 332 331 331 330 329 326 328 331 332 330 329 327 326 326 327 326 327 332 332 331 329 328 327 326 326 324 325 325 322 317 318 320 322 330 331 329 328 327 326 326 326
327 328 331 330 329 329 331 327 326 328 327 326 324 324 326 325 325 326 324 327 329 328 329 327 326 326 322 318 318 321 317 317 317 320 322 329 327 326 325 325 325 325 322
329 328 328 330 330 328 327 325 325 323 323 324 323 326 325 323 320 319 318 320 318 320 318 320 320 319 318 317 318 317 318 316 316 319 318 324 323 323 324 325 323 320 319
329 329 329 328 330 328 327 324 323 323 322 322 323 324 321 319 317 316 315 315 315 317 317 317 317 318 318 318 318 318 318 315 316 314 313 318 323 322 324 325 321 319 318
329 329 332 329 328 327 326 323 322 322 322 322 322 323 321 318 317 317 316 317 317 318 318 318 318 319 318 319 319 319 318 314 314 311 309 315 320 322 324 320 319 318 318
327 330 331 329 328 327 325 322 321 321 322 322 322 323 322 319 318 317 317 319 319 319 319 318 318 318 318 319 320 322 319 316 313 310 308 310 317 321 318 317 317 317 317
327 327 328 332 327 327 324 324 321 320 321 321 321 322 321 319 317 317 318 319 319 320 319 319 318 317 317 321 320 321 320 316 312 307 305 306 309 315 313 312 313 314 315
328 324 327 331 329 325 324 323 322 320 320 321 321 321 321 321 319 319 319 319 320 320 319 318 316 315 314 313 316 319 316 314 311 306 304 302 303 305 307 307 309 310 312
326 324 324 328 329 323 321 322 321 320 319 320 321 321 321 322 321 320 320 320 320 320 319 318 315 314 313 313 314 317 313 307 300 299 299 301 303 301 298 303 304 304 307
325 325 325 327 329 327 324 319 318 318 318 318 321 322 321 322 321 320 320 320 320 318 317 316 315 315 314 312 315 316 311 306 299 296 296 299 300 298 294 292 293 296 303
322 323 323 325 328 328 325 320 317 317 317 318 319 322 322 322 321 319 319 319 319 318 318 317 315 313 313 315 314 312 311 307 298 294 295 296 296 294 291 291 290 289 291
320 323 323 325 327 327 328 325 320 319 317 319 320 320 323 322 322 320 319 319 318 317 316 316 314 313 312 315 311 311 307 305 299 294 294 296 293 292 290 290 290 288 288
322 320 322 324 326 327 327 324 320 319 318 317 316 319 322 323 322 322 321 320 319 318 317 315 315 314 312 314 315 309 304 304 300 295 291 292 292 290 288 289 289 288 288
324 321 321 322 324 326 326 325 323 321 319 321 320 321 321 323 323 323 322 321 321 319 318 317 317 315 314 313 313 312 309 304 300 292 290 289 291 289 287 288 288 288 287
324 322 320 321 322 324 325 325 324 322 323 322 322 320 321 323 324 324 323 322 321 319 319 318 315 316 317 314 313 309 306 302 299 295 287 285 288 290 288 287 287 287 287
322 323 318 318 320 323 324 324 324 323 322 320 319 319 321 322 324 324 323 323 322 321 319 318 318 317 317 317 316 310 306 303 299 294 290 284 285 288 288 287 286 286 286

GFSSE_sfc_thetae_117.txt.gz
Theta_e
334 340 348 350 349 349 348 347 347 348 348 346 345 344 342 340 339 339 338 337 337 337 337 336 338 338 337 337 335 334 334 334 334 334 333 334 334 334 334 333 332 327 333
335 342 346 350 349 348 347 348 347 348 348 347 346 344 342 339 338 337 337 336 337 336 336 336 337 336 335 335 335 334 333 333 334 334 333 333 333 334 333 332 333 332 334
339 342 343 347 348 347 346 347 348 348 347 346 346 344 342 339 338 336 336 335 336 335 335 336 336 335 335 336 334 333 333 333 333 332 331 327 328 333 334 333 334 334 336
339 339 341 345 348 346 346 347 347 348 347 345 344 343 341 339 337 336 335 335 335 334 334 336 335 335 335 334 334 333 332 333 332 330 323 326 328 334 335 335 334 334 334
336 337 339 344 346 346 346 345 346 347 345 345 343 342 340 338 336 335 334 334 335 334 334 335 334 335 335 334 334 333 333 332 330 325 323 327 326 334 336 336 334 334 336
334 336 340 344 345 344 345 345 345 344 345 345 343 341 340 338 336 333 335 333 334 334 334 334 334 334 334 334 333 332 332 331 326 321 322 326 330 337 338 338 337 336 336
333 336 338 342 343 344 344 345 345 345 346 346 344 340 338 336 336 334 334 333 334 333 333 333 333 333 333 333 333 331 328 326 319 320 321 323 328 337 337 335 335 334 332
333 336 338 336 338 340 341 344 343 345 345 345 343 340 338 337 334 334 334 334 334 333 332 332 331 331 332 331 331 330 326 324 320 320 321 323 334 336 335 332 332 330 328
335 334 334 335 335 334 336 336 338 342 342 342 341 340 338 337 336 334 334 334 333 332 331 330 330 330 330 330 329 329 325 323 318 320 324 324 335 333 332 330 328 328 327
332 332 331 332 333 332 331 330 333 335 338 338 336 334 332 333 333 332 331 333 332 331 330 329 329 328 327 328 328 327 324 322 318 320 322 327 332 330 328 327 327 326 324
330 329 330 330 330 330 328 326 328 331 331 331 330 327 326 325 326 325 326 331 332 331 329 328 327 325 325 325 326 324 321 317 318 320 322 329 329 328 327 326 326 323 322
326 328 329 328 328 328 329 325 326 328 326 325 324 324 324 323 322 324 322 327 329 328 329 327 326 325 321 317 317 320 316 316 318 319 319 327 326 326 325 326 322 321 320
326 328 329 327 327 326 326 324 323 324 323 321 321 322 322 322 320 319 319 320 318 319 317 319 319 317 317 316 316 316 316 316 316 313 318 324 324 324 326 322 320 320 319
326 328 328 328 327 325 325 323 322 322 321 320 321 323 321 318 316 315 315 314 314 316 315 316 316 317 316 317 317 317 315 315 312 309 313 318 324 323 324 321 320 319 318
327 328 328 328 328 327 324 323 322 321 321 321 321 322 321 317 315 314 313 313 314 315 316 315 316 317 316 317 317 317 314 314 309 308 309 315 321 324 321 319 318 317 317
328 328 329 327 329 328 326 323 323 322 321 321 321 321 320 319 316 316 315 316 316 317 317 317 316 316 316 317 318 321 317 315 309 307 308 311 320 320 318 317 316 316 316
328 330 330 327 328 326 326 324 323 322 322 321 321 321 321 319 317 317 316 316 318 318 317 317 317 316 316 318 317 321 317 313 307 305 305 306 308 314 313 313 313 314 314
325 327 330 331 327 326 324 323 322 321 321 321 321 321 321 320 318 316 316 317 318 318 317 316 316 314 313 313 314 316 316 312 307 304 304 304 303 303 306 309 309 311 312
324 324 326 331 325 325 325 323 322 320 320 320 320 320 320 320 318 316 317 318 319 318 317 317 315 313 312 312 313 313 312 311 306 303 300 302 302 298 297 304 304 306 309
324 323 324 327 330 324 323 323 319 319 319 319 320 321 320 321 320 318 317 318 318 316 316 315 314 313 312 311 314 310 307 302 299 300 299 301 297 294 292 293 292 295 305
321 321 323 323 327 327 321 317 317 318 317 317 319 320 320 320 319 318 317 317 317 317 316 315 314 313 312 312 309 308 306 301 297 297 298 297 294 291 289 289 288 289 291
321 322 322 323 326 328 327 323 321 319 317 319 318 317 320 320 320 320 318 317 317 316 315 314 313 311 311 312 308 308 304 302 297 296 296 296 291 290 289 289 287 288 288
321 321 322 323 324 327 329 324 319 317 316 314 314 317 319 321 321 320 319 319 318 318 317 315 314 312 310 310 311 309 305 302 297 293 294 295 290 288 288 288 287 287 288
321 323 323 323 324 326 328 325 323 320 316 318 318 318 318 320 321 321 320 319 318 318 317 317 316 315 311 309 311 313 309 306 300 292 291 290 291 289 287 287 287 286 287
322 323 323 323 323 325 326 327 324 323 323 320 318 316 317 318 321 321 321 320 319 319 319 318 314 314 315 312 310 307 306 302 301 296 290 288 291 290 287 287 287 286 286
320 323 323 321 321 324 324 325 324 323 322 320 318 318 318 319 320 321 321 321 320 320 319 318 317 315 316 316 314 309 307 304 299 295 292 288 288 290 289 286 286 285 285

GFSSE_sfc_thetae_120.txt.gz
Theta_e
335 339 348 349 348 348 348 348 347 348 347 345 343 341 341 340 339 338 337 336 336 336 338 339 337 337 336 334 334 334 335 335 334 334 334 334 334 335 334 333 333 331 335
335 342 347 348 348 348 347 348 348 347 347 345 343 341 339 338 337 336 337 335 335 336 338 337 336 335 335 334 334 334 334 334 333 331 332 333 333 334 334 334 336 333 336
338 341 344 347 348 347 348 348 348 348 347 344 343 341 339 337 337 337 335 334 335 336 338 337 335 336 334 334 333 333 334 333 333 333 332 327 328 334 335 335 335 335 337
339 339 342 345 347 346 347 347 347 347 346 344 343 341 338 337 336 336 335 334 334 335 337 335 335 334 335 334 333 333 333 333 332 330 324 327 326 335 336 336 336 338 338
335 337 340 345 347 346 346 346 347 347 346 343 342 340 338 336 335 335 335 334 334 335 335 334 334 335 334 333 333 333 333 332 329 325 323 327 329 336 339 338 337 336 334
333 335 341 345 346 345 345 346 344 345 344 343 341 340 338 335 334 334 334 334 334 334 334 334 335 335 334 333 332 332 331 330 326 320 322 325 328 338 338 337 335 332 331
332 334 338 343 344 345 344 344 344 345 346 343 341 339 337 335 334 334 333 333 333 333 333 334 334 334 334 333 331 329 328 326 319 319 321 323 329 337 336 334 332 330 328
332 335 336 336 339 341 343 344 344 345 345 343 341 338 336 335 334 333 333 333 333 333 333 332 333 333 332 332 330 327 326 324 320 320 321 324 335 334 334 329 328 327 326
333 333 333 333 334 333 337 338 340 342 343 342 341 340 338 336 335 334 334 333 333 332 331 331 331 331 331 330 330 326 325 324 318 320 324 327 333 331 329 328 328 325 324
331 331 330 331 331 329 330 330 333 336 338 338 337 334 332 332 333 332 331 333 332 331 330 330 329 329 329 329 329 325 323 322 318 320 322 326 331 329 328 328 325 324 322
330 329 329 329 328 328 327 325 328 330 331 331 329 327 325 325 324 324 326 331 331 331 329 328 327 326 325 326 327 323 320 317 319 319 320 328 328 327 327 324 322 321 321
326 329 331 328 327 326 328 325 326 327 326 325 324 323 323 322 321 323 322 326 328 328 329 327 326 324 319 316 317 319 315 317 316 315 317 327 327 326 325 322 321 321 320
325 327 329 326 326 325 324 323 324 323 321 321 321 321 321 320 319 318 318 318 316 317 316 318 317 316 316 315 315 315 314 315 311 311 317 325 325 325 323 321 320 320 319
322 325 329 327 325 324 323 322 322 322 320 319 320 320 319 317 315 314 314 314 313 314 314 314 315 315 315 316 316 315 314 313 308 309 312 319 324 324 321 320 319 318 318
323 324 327 327 326 324 322 321 320 320 320 319 319 321 320 317 314 313 313 312 312 313 314 314 314 315 315 315 316 315 315 311 309 307 309 316 323 322 320 319 318 317 317
325 324 327 327 327 325 323 321 321 319 320 319 319 321 320 318 315 313 312 313 313 314 315 315 315 315 315 316 316 317 316 311 309 307 308 312 319 319 318 316 316 316 316
326 326 326 327 328 326 324 322 321 320 320 319 319 320 319 319 316 315 314 314 315 316 316 316 315 315 314 316 315 317 315 310 308 307 308 305 307 314 314 313 313 314 314
325 326 327 328 327 326 326 324 322 321 320 320 320 319 319 319 318 315 315 315 316 317 316 314 314 313 313 312 313 313 311 308 307 305 306 302 301 301 307 309 309 311 311
323 325 326 327 326 326 325 324 323 321 321 321 320 320 320 319 318 316 314 315 316 316 315 315 314 312 311 310 312 310 311 307 305 304 304 302 299 297 298 304 304 306 308
322 322 326 328 326 327 326 324 323 320 319 319 320 321 320 320 319 316 315 315 316 315 315 314 313 311 311 310 313 307 302 303 302 301 303 302 296 294 293 292 292 295 305
320 321 322 324 328 325 324 321 320 319 318 317 319 319 320 320 318 316 315 315 315 316 316 314 313 312 310 310 306 304 300 296 299 300 301 300 294 291 290 290 288 290 292
321 322 322 322 324 326 323 323 320 320 319 320 318 318 319 319 319 319 317 316 315 315 314 313 312 310 310 311 306 304 300 298 294 295 299 299 293 290 289 288 287 288 289
319 321 322 322 323 326 327 323 316 316 314 314 314 316 317 319 319 319 317 318 316 316 316 315 314 311 310 309 309 306 303 299 294 292 293 297 293 288 288 288 287 287 288
320 322 322 323 323 324 327 325 321 320 318 318 319 318 317 318 319 318 319 318 317 317 317 316 316 315 311 311 308 310 307 304 297 292 290 293 294 291 289 287 287 286 287
319 321 322 323 323 323 325 327 323 322 323 321 317 315 316 317 319 319 319 317 318 317 317 317 314 315 314 315 311 306 304 301 299 297 295 289 292 293 291 288 289 288 287
317 320 322 321 322 323 324 325 325 323 323 320 316 316 315 316 317 318 319 319 319 319 318 317 317 315 316 315 316 312 307 301 298 295 293 290 290 290 291 288 287 287 285

GFSSE_sfc_thetae_123.txt.gz
Theta_e
337 343 349 348 348 348 349 348 349 348 347 343 343 342 341 340 338 338 337 338 337 341 340 339 337 335 335 335 336 335 334 335 335 336 334 334 335 336 335 336 335 334 337
340 344 346 348 348 349 348 349 348 347 346 343 341 340 339 338 338 337 336 336 337 340 339 337 336 335 335 334 334 334 335 333 332 333 333 333 336 336 335 337 338 336 338
341 345 347 347 348 348 348 347 347 347 346 342 340 339 337 338 336 336 335 338 338 338 337 337 336 335 334 334 334 335 334 334 333 332 332 331 333 336 337 337 338 340 338
342 344 346 345 348 348 348 347 347 347 346 342 341 338 337 337 336 335 335 336 338 336 337 336 335 334 334 334 334 334 334 333 332 331 333 334 335 338 339 339 338 336 334
340 343 344 344 347 347 347 347 347 347 346 343 341 338 337 337 335 336 335 335 337 336 336 334 334 334 334 334 334 334 333 331 329 330 330 335 337 338 339 336 333 331 330
338 342 343 345 346 346 347 346 346 345 344 342 340 338 336 335 335 335 334 335 335 334 335 335 334 334 333 333 332 331 331 329 327 330 333 335 335 338 337 334 331 329 328
336 341 343 344 345 345 346 346 346 346 345 343 340 339 336 335 334 334 334 334 334 334 334 334 335 335 334 331 330 329 329 327 328 331 333 335 335 335 333 331 328 327 326
335 339 341 337 339 342 344 344 345 345 345 343 341 338 335 335 334 334 334 334 334 334 334 334 333 333 333 332 329 328 327 325 328 330 331 331 334 332 331 328 327 325 324
336 337 339 339 337 335 338 339 341 343 342 341 340 339 337 336 336 335 335 334 333 333 333 333 332 332 331 331 328 327 326 325 329 329 327 328 331 329 330 327 325 323 323
335 336 336 336 335 336 339 331 334 338 339 339 337 334 332 332 333 332 331 334 332 332 331 331 330 330 330 330 327 325 323 324 327 327 328 327 330 329 327 325 323 323 322
331 333 334 334 333 332 332 330 330 332 333 332 331 327 327 331 330 329 328 331 332 331 330 328 328 327 326 328 325 323 322 326 324 325 326 328 328 328 325 323 322 321 321
327 330 332 332 331 330 330 332 334 333 334 332 331 330 330 329 328 328 325 326 328 328 329 328 327 323 322 324 324 321 325 323 322 322 324 328 328 325 323 322 321 321 320
327 329 331 331 331 330 329 329 331 331 330 329 329 328 327 326 326 327 327 325 325 319 323 323 324 323 323 323 322 322 323 320 319 319 321 325 327 324 322 321 320 319 319
325 327 329 331 330 329 328 328 329 327 327 327 327 326 326 324 324 324 324 323 322 322 322 323 323 322 322 322 322 321 322 317 317 317 318 319 326 323 321 320 319 318 317
324 325 328 329 330 328 327 327 327 327 325 325 325 325 325 324 322 322 321 321 320 321 322 323 322 322 321 321 322 321 320 313 313 315 318 317 323 322 319 318 317 317 316
326 326 328 327 330 328 327 326 326 327 326 324 324 325 325 325 322 320 319 319 319 321 321 322 322 322 321 321 321 321 320 313 311 314 316 319 319 320 317 316 315 315 315
328 327 327 328 329 328 327 326 326 325 325 324 323 325 325 325 322 320 319 318 319 321 322 322 322 322 321 321 321 322 320 314 312 312 312 312 315 315 315 313 313 313 313
328 326 327 329 328 329 328 327 326 325 325 325 324 324 325 325 324 322 320 319 321 322 322 322 322 321 321 320 320 321 318 312 311 310 308 307 310 311 311 310 310 311 311
328 328 327 328 328 328 329 328 326 325 325 325 324 324 324 324 324 323 321 321 322 321 322 321 321 321 319 318 318 318 316 312 309 309 307 305 307 307 308 307 306 307 310
325 328 328 328 328 328 329 328 327 325 324 324 324 324 324 324 323 322 321 321 321 321 321 320 320 319 319 318 315 313 313 312 309 307 308 306 303 303 304 303 303 304 305
323 324 326 327 328 327 327 324 324 323 323 322 323 324 323 324 323 322 321 320 319 319 320 320 320 318 316 316 311 308 305 306 306 306 307 307 303 301 301 300 298 301 304
322 323 324 326 328 327 328 327 325 325 325 325 324 322 323 323 323 322 322 320 319 319 319 319 318 317 318 315 312 309 306 306 301 303 303 304 303 299 298 297 296 295 300
321 322 323 324 325 328 328 326 320 320 318 320 320 320 321 322 323 322 322 321 320 319 319 319 319 318 317 316 315 312 305 305 303 299 298 301 302 299 297 294 292 292 295
319 322 323 324 325 326 328 324 323 322 320 321 322 322 321 321 322 322 322 321 321 320 320 320 320 320 320 317 314 313 312 310 306 303 297 296 299 299 297 294 292 292 293
315 320 322 323 324 325 326 327 324 323 324 325 323 320 321 320 322 321 321 321 321 320 321 321 319 319 319 320 317 314 314 311 305 305 307 300 295 298 299 295 295 293 291
308 317 320 321 322 324 324 326 326 324 324 323 321 319 319 320 320 321 320 321 321 321 320 320 321 320 319 319 320 319 315 308 307 305 302 308 301 300 297 296 294 293 292

GFSSE_sfc_thetae_126.txt.gz
Theta_e
339 344 349 348 347 348 348 348 348 348 345 344 343 342 341 340 338 341 341 341 341 340 340 336 336 336 337 337 335 334 334 334 334 334 336 335 337 337 337 337 339 337 338
342 345 347 349 347 348 348 348 348 346 343 342 341 340 339 338 337 337 338 340 338 338 337 336 336 335 334 335 335 334 333 332 334 334 335 336 337 337 337 338 339 338 339
341 345 347 347 348 347 348 348 347 346 343 341 339 338 338 337 336 336 336 339 339 337 338 336 335 335 334 334 334 335 334 334 334 334 332 333 337 338 340 338 336 336 336
342 344 346 345 347 347 347 346 346 346 343 340 338 338 336 337 336 336 336 339 336 338 337 336 334 334 334 335 335 334 334 333 332 335 334 338 337 339 338 335 334 333 331
342 344 346 345 347 346 346 346 346 346 345 340 338 338 337 336 335 335 336 338 336 337 335 335 334 334 334 334 334 333 332 331 331 335 336 337 337 336 336 333 330 329 327
341 344 344 346 346 345 345 345 345 345 343 341 339 337 337 336 335 334 335 336 335 335 336 335 334 334 333 331 331 331 330 330 333 334 336 335 334 335 333 330 328 326 325
339 342 345 344 346 346 346 346 345 345 344 341 339 337 336 335 334 334 335 334 334 335 335 335 335 333 331 331 330 330 329 329 333 334 333 332 332 333 330 329 326 325 325
338 340 343 338 340 343 345 345 344 345 344 343 340 337 335 334 334 334 333 334 334 334 334 334 334 334 331 330 330 329 328 328 330 331 329 329 332 331 329 327 325 324 323
338 339 342 342 338 336 339 340 342 342 342 341 340 339 337 336 335 335 335 334 333 333 334 333 332 332 332 329 328 327 327 327 329 329 327 328 331 329 328 325 324 323 322
336 336 338 340 340 340 340 333 335 338 339 338 337 334 332 332 332 332 332 334 333 333 332 331 331 331 331 329 327 325 325 327 329 329 328 327 330 327 325 323 323 322 321
333 334 336 337 337 337 337 335 332 333 334 333 332 328 328 333 332 331 329 332 332 332 330 328 328 328 330 326 325 323 325 328 327 328 328 328 327 325 323 322 321 321 320
330 332 334 334 334 335 335 339 341 340 339 337 336 334 332 332 331 330 326 327 329 329 329 328 327 324 325 328 327 323 329 327 327 327 326 328 325 323 322 321 320 319 319
331 332 334 335 335 334 334 336 338 338 338 336 335 333 331 330 330 330 330 328 328 322 327 327 327 328 327 328 328 329 328 327 326 324 322 324 324 322 321 320 319 318 318
332 332 333 335 334 333 334 334 335 335 335 334 334 333 331 329 328 328 327 327 327 326 327 328 328 328 327 327 327 327 326 324 323 323 320 319 326 321 320 318 318 317 316
331 332 332 333 335 334 333 333 333 333 333 334 333 332 331 328 327 326 327 326 325 326 326 327 327 326 326 326 327 327 325 322 321 321 322 318 323 321 319 317 316 316 315
331 331 333 332 333 335 333 333 333 333 333 333 332 332 330 327 326 326 325 325 325 325 326 327 327 326 326 326 326 327 326 321 319 321 321 321 320 321 318 315 315 315 315
331 332 332 333 332 335 333 333 332 332 332 331 331 331 329 328 328 325 324 323 324 325 326 327 327 327 326 326 326 326 326 322 318 318 320 320 318 316 316 314 314 314 314
333 332 333 332 331 333 334 334 333 332 332 331 331 330 329 329 330 328 326 323 324 325 326 327 327 326 325 325 325 326 325 322 318 317 318 318 319 317 314 313 313 313 314
333 333 332 333 333 333 334 334 334 333 332 331 331 330 330 329 330 330 329 328 326 325 326 326 326 326 325 324 324 325 324 322 319 315 316 315 316 316 316 312 311 311 312
331 333 334 334 334 334 333 334 333 333 332 332 330 330 330 329 329 329 329 329 328 326 326 326 326 326 325 324 320 320 323 322 319 316 315 314 314 313 313 312 309 306 309
329 330 332 333 334 334 332 330 328 327 330 330 331 330 329 329 329 329 328 328 328 326 325 325 325 324 323 323 319 317 316 317 318 316 315 315 313 311 310 309 307 306 305
326 328 329 331 333 333 332 332 331 330 331 331 331 330 330 329 329 328 328 327 327 326 325 324 324 322 322 323 316 315 310 312 312 314 315 313 313 311 308 306 305 303 304
322 326 327 329 331 333 332 333 332 332 331 329 330 330 330 330 329 329 327 328 327 326 325 324 324 322 320 321 321 316 310 309 314 311 310 311 311 310 308 306 302 301 299
320 324 326 329 329 331 333 331 329 325 324 327 329 330 330 330 328 329 328 328 328 327 325 326 325 324 323 319 319 319 318 316 308 306 306 305 308 307 308 307 302 299 298
317 321 325 327 328 329 331 331 329 327 328 329 329 329 329 329 328 328 328 328 327 328 327 326 325 324 324 323 320 320 319 319 314 309 308 313 303 305 304 306 305 301 299
316 315 321 323 325 328 329 330 330 328 328 328 328 327 328 328 328 328 328 328 327 327 327 326 326 325 324 324 324 323 319 315 313 310 307 311 314 315 305 305 302 302 302